[[{"header":{"parameterUnit":"m.s-1","parameterCategory":1,"la1":30.6,"la2":29.2853,"lo1":-89.7004,"lo2":-87.6739,"dy":0.0162,"dx":0.0183,"nx":112,"ny":82,"refTime":"2024-06-03T18:00:00:Z","depth":0,"parameterNumber":2,"parameterNumberName":"U-component_of_WINDS"},"data":[0.0,0.0,0.0,0.0,0.0,0.0,0.0,0.0,0.0,0.0,0.0,0.0,0.0,0.0,0.0,0.0,0.0,0.0,0.0,0.0,0.0,0.0,0.0,0.0,0.0,0.0,0.0,0.0,0.0,0.0,0.0,0.0,0.0,0.0,0.0,0.0,0.0,0.0,0.0,0.0,0.0,0.0,0.0,0.0,0.0,0.0,0.0,0.0,0.0,0.0,0.0,0.0,0.0,0.0,0.0,0.0,0.0,0.0,0.0,0.0,0.0,0.0,0.0,0.0,0.0,0.0,0.0,0.0,0.0,0.0,0.0,0.0,0.0,0.0,0.0,0.0,0.0,0.0,0.0,0.0,0.0,0.0,0.0,0.0,0.0,0.0,0.0,0.0,0.0,0.0,-1.463,-1.632,-1.8213,-1.9355,-1.9297,-1.8564,-1.7334,-1.5498,0.0,0.0,0.0,0.0,0.0,0.0,0.0,0.0,0.0,0.0,0.0,0.0,0.0,0.0,0.0,0.0,0.0,0.0,0.0,0.0,0.0,0.0,0.0,0.0,0.0,0.0,0.0,0.0,0.0,0.0,0.0,0.0,0.0,0.0,0.0,0.0,0.0,0.0,0.0,0.0,0.0,0.0,0.0,0.0,0.0,0.0,0.0,0.0,0.0,0.0,0.0,0.0,0.0,0.0,0.0,0.0,0.0,0.0,0.0,0.0,0.0,0.0,0.0,0.0,0.0,0.0,0.0,0.0,0.0,0.0,0.0,0.0,0.0,0.0,0.0,0.0,0.0,0.0,0.0,0.0,0.0,0.0,0.0,0.0,0.0,0.0,0.0,0.0,0.0,0.0,0.0,0.0,0.0,0.0,0.0,0.0,0.0,0.0,0.0,0.0,0.0,0.0,0.0,0.0,-1.4795,-1.7876,-1.9153,-1.9678,-1.9316,-1.8828,-1.7613,-1.5547,0.0,0.0,0.0,0.0,0.0,0.0,0.0,0.0,0.0,0.0,0.0,0.0,0.0,0.0,0.0,0.0,0.0,0.0,0.0,0.0,0.0,0.0,0.0,0.0,0.0,0.0,0.0,0.0,0.0,0.0,0.0,0.0,0.0,0.0,0.0,0.0,0.0,0.0,0.0,0.0,0.0,0.0,0.0,0.0,0.0,0.0,0.0,0.0,0.0,0.0,0.0,0.0,0.0,0.0,0.0,0.0,0.0,0.0,0.0,0.0,0.0,0.0,0.0,0.0,0.0,0.0,0.0,0.0,0.0,0.0,0.0,0.0,0.0,0.0,0.0,0.0,0.0,0.0,0.0,0.0,0.0,0.0,0.0,0.0,0.0,0.0,0.0,0.0,0.0,0.0,0.0,0.0,0.0,0.0,0.0,0.0,0.0,0.0,0.0,0.0,0.0,0.0,0.0,-1.4436,-1.6211,-1.8721,-1.9756,-2.0,-1.9346,-1.8887,-1.7681,-1.5547,-1.4209,0.0,0.0,0.0,0.0,0.0,0.0,0.0,0.0,0.0,0.0,0.0,0.0,0.0,0.0,0.0,0.0,0.0,0.0,0.0,0.0,0.0,0.0,0.0,0.0,0.0,0.0,0.0,0.0,0.0,0.0,0.0,0.0,0.0,0.0,0.0,0.0,0.0,0.0,0.0,0.0,0.0,0.0,0.0,0.0,0.0,0.0,0.0,0.0,0.0,0.0,0.0,0.0,0.0,0.0,0.0,0.0,0.0,0.0,0.0,0.0,0.0,0.0,0.0,0.0,0.0,0.0,0.0,0.0,0.0,0.0,0.0,0.0,0.0,0.0,0.0,0.0,0.0,0.0,0.0,0.0,0.0,0.0,0.0,0.0,0.0,0.0,0.0,0.0,0.0,0.0,0.0,0.0,0.0,0.0,0.0,0.0,0.0,0.0,0.0,0.0,0.0,0.0,-1.6268,-1.7617,-1.9131,-2.0096,-2.0253,-1.9365,-1.8789,-1.7574,-1.5547,-1.3997,0.0,0.0,0.0,0.0,0.0,0.0,0.0,0.0,0.0,0.0,0.0,0.0,0.0,0.0,0.0,0.0,0.0,0.0,0.0,0.0,0.0,0.0,0.0,0.0,0.0,0.0,0.0,0.0,0.0,0.0,0.0,0.0,0.0,0.0,0.0,0.0,0.0,0.0,0.0,0.0,0.0,0.0,0.0,0.0,0.0,0.0,0.0,0.0,0.0,0.0,0.0,0.0,0.0,0.0,0.0,0.0,0.0,0.0,0.0,0.0,0.0,0.0,0.0,0.0,0.0,0.0,0.0,0.0,0.0,0.0,0.0,0.0,0.0,0.0,0.0,0.0,0.0,0.0,0.0,0.0,0.0,0.0,0.0,0.0,0.0,0.0,0.0,0.0,0.0,0.0,0.0,0.0,0.0,0.0,0.0,0.0,0.0,0.0,0.0,0.0,0.0,0.0,-1.6641,-1.8271,-1.9189,-2.0096,-2.0253,-1.9365,-1.8535,-1.7305,-1.5518,-1.3441,0.0,0.0,0.0,0.0,0.0,0.0,0.0,0.0,0.0,0.0,0.0,0.0,0.0,0.0,0.0,0.0,0.0,0.0,0.0,0.0,0.0,0.0,0.0,0.0,0.0,0.0,0.0,0.0,0.0,0.0,0.0,0.0,0.0,0.0,0.0,0.0,0.0,0.0,0.0,0.0,0.0,0.0,0.0,0.0,0.0,0.0,0.0,0.0,0.0,0.0,0.0,0.0,0.0,0.0,0.0,0.0,0.0,0.0,0.0,0.0,0.0,0.0,0.0,0.0,0.0,0.0,0.0,0.0,0.0,0.0,0.0,0.0,0.0,0.0,0.0,0.0,0.0,0.0,0.0,0.0,0.0,0.0,0.0,0.0,0.0,0.0,0.0,0.0,0.0,0.0,0.0,0.0,0.0,0.0,0.0,0.0,0.0,0.0,0.0,0.0,0.0,0.0,-1.6445,-1.8047,0.0,-2.0096,-2.0253,-1.9365,-1.874,-1.7506,-1.5537,0.0,0.0,0.0,0.0,0.0,0.0,0.0,0.0,0.0,0.0,0.0,0.0,0.0,0.0,0.0,0.0,0.0,0.0,0.0,0.0,0.0,0.0,0.0,0.0,0.0,0.0,0.0,0.0,0.0,0.0,0.0,0.0,0.0,0.0,0.0,0.0,0.0,0.0,0.0,0.0,0.0,0.0,0.0,0.0,0.0,0.0,0.0,0.0,0.0,0.0,0.0,0.0,0.0,0.0,0.0,0.0,0.0,0.0,0.0,0.0,0.0,0.0,0.0,0.0,0.0,0.0,0.0,0.0,0.0,0.0,0.0,0.0,0.0,0.0,0.0,0.0,0.0,0.0,0.0,0.0,0.0,0.0,0.0,0.0,0.0,0.0,0.0,0.0,0.0,0.0,0.0,0.0,0.0,0.0,0.0,0.0,0.0,0.0,0.0,0.0,0.0,0.0,-1.4882,-1.6709,-1.8223,0.0,-2.0175,-2.0253,-1.9365,-1.8643,-1.7373,-1.5342,0.0,0.0,0.0,0.0,0.0,0.0,0.0,0.0,0.0,0.0,0.0,0.0,0.0,0.0,0.0,0.0,0.0,0.0,0.0,0.0,0.0,0.0,0.0,0.0,0.0,0.0,0.0,0.0,0.0,0.0,0.0,0.0,0.0,0.0,0.0,0.0,0.0,0.0,0.0,0.0,0.0,0.0,0.0,0.0,0.0,0.0,0.0,0.0,0.0,0.0,0.0,0.0,0.0,0.0,0.0,0.0,0.0,0.0,0.0,0.0,0.0,0.0,0.0,0.0,0.0,0.0,0.0,0.0,0.0,0.0,0.0,0.0,0.0,0.0,0.0,0.0,0.0,0.0,0.0,0.0,0.0,0.0,0.0,0.0,0.0,0.0,0.0,0.0,0.0,0.0,0.0,0.0,0.0,0.0,0.0,0.0,0.0,0.0,0.0,0.0,0.0,0.0,-1.5762,-1.7568,-1.8929,-1.9824,-2.0303,-2.0253,-1.9365,-1.8125,-1.665,0.0,0.0,0.0,0.0,0.0,0.0,0.0,0.0,0.0,0.0,0.0,0.0,0.0,0.0,0.0,0.0,0.0,0.0,0.0,0.0,0.0,0.0,0.0,0.0,0.0,0.0,0.0,0.0,0.0,0.0,0.0,0.0,0.0,0.0,0.0,0.0,0.0,0.0,0.0,0.0,0.0,0.0,0.0,0.0,0.0,0.0,0.0,0.0,0.0,0.0,0.0,0.0,0.0,0.0,0.0,0.0,0.0,0.0,0.0,0.0,0.0,0.0,0.0,0.0,0.0,0.0,0.0,0.0,0.0,0.0,0.0,0.0,0.0,0.0,0.0,0.0,0.0,0.0,0.0,0.0,0.0,0.0,0.0,0.0,0.0,0.0,0.0,0.0,0.0,0.0,0.0,0.0,0.0,0.0,0.0,0.0,0.0,0.0,0.0,0.0,0.0,0.0,0.0,-1.5762,-1.7568,-1.8929,-1.9824,-2.0303,-2.0253,-1.9365,-1.8389,-1.708,-1.5342,0.0,0.0,0.0,0.0,0.0,0.0,0.0,0.0,0.0,0.0,0.0,0.0,0.0,0.0,0.0,0.0,0.0,0.0,0.0,0.0,0.0,0.0,0.0,0.0,0.0,0.0,0.0,0.0,0.0,0.0,0.0,0.0,0.0,0.0,0.0,0.0,0.0,0.0,0.0,0.0,0.0,0.0,0.0,0.0,0.0,0.0,0.0,0.0,0.0,0.0,0.0,0.0,0.0,0.0,0.0,0.0,0.0,0.0,0.0,0.0,0.0,0.0,0.0,0.0,0.0,0.0,0.0,0.0,0.0,0.0,0.0,0.0,0.0,0.0,0.0,0.0,0.0,0.0,0.0,0.0,0.0,0.0,0.0,0.0,0.0,0.0,0.0,0.0,0.0,0.0,0.0,0.0,0.0,0.0,0.0,0.0,0.0,0.0,0.0,0.0,0.0,0.0,-1.6016,-1.7832,-1.9219,-2.0078,-2.0449,-2.0321,-1.96,-1.875,-1.7418,-1.5537,0.0,0.0,0.0,0.0,0.0,0.0,0.0,0.0,0.0,0.0,0.0,0.0,0.0,0.0,0.0,0.0,0.0,0.0,0.0,0.0,0.0,0.0,0.0,0.0,0.0,0.0,0.0,0.0,0.0,0.0,0.0,0.0,0.0,0.0,0.0,0.0,0.0,0.0,0.0,0.0,0.0,0.0,0.0,0.0,0.0,0.0,0.0,0.0,0.0,0.0,0.0,0.0,0.0,0.0,0.0,0.0,0.0,0.0,0.0,0.0,0.0,0.0,0.0,0.0,0.0,0.0,0.0,0.0,0.0,0.0,0.0,0.0,0.0,0.0,0.0,0.0,0.0,0.0,0.0,0.0,0.0,0.0,0.0,0.0,0.0,0.0,0.0,0.0,0.0,0.0,0.0,0.0,0.0,0.0,0.0,0.0,0.0,0.0,0.0,0.0,0.0,0.0,-1.6424,-1.8232,-1.9619,-2.0507,-2.0605,-2.0429,-1.9951,-1.9095,-1.772,-1.5664,0.0,0.0,0.0,0.0,0.0,0.0,0.0,0.0,0.0,0.0,0.0,0.0,0.0,0.0,0.0,0.0,0.0,0.0,0.0,0.0,0.0,0.0,0.0,0.0,0.0,0.0,0.0,0.0,0.0,0.0,0.0,0.0,0.0,0.0,0.0,0.0,0.0,0.0,0.0,0.0,0.0,0.0,0.0,0.0,0.0,0.0,0.0,0.0,0.0,0.0,0.0,0.0,0.0,0.0,0.0,0.0,0.0,0.0,0.0,0.0,-1.3242,0.0,0.0,0.0,0.0,0.0,0.0,0.0,0.0,0.0,0.0,0.0,0.0,0.0,0.0,0.0,0.0,0.0,0.0,0.0,0.0,0.0,0.0,0.0,0.0,0.0,0.0,0.0,0.0,0.0,0.0,0.0,0.0,0.0,0.0,0.0,0.0,0.0,0.0,0.0,0.0,0.0,-1.6424,-1.8232,-1.9619,-2.0507,-2.0605,-2.0429,-1.9951,-1.9095,-1.7983,-1.6512,-1.4484,0.0,0.0,0.0,0.0,0.0,0.0,0.0,0.0,0.0,0.0,0.0,0.0,0.0,0.0,0.0,0.0,0.0,0.0,0.0,0.0,0.0,0.0,0.0,0.0,0.0,0.0,0.0,0.0,0.0,0.0,0.0,0.0,0.0,0.0,0.0,0.0,0.0,0.0,0.0,0.0,0.0,0.0,0.0,0.0,0.0,0.0,0.0,0.0,0.0,0.0,0.0,0.0,0.0,0.0,0.0,0.0,0.0,0.0,0.0,0.0,-1.4404,0.0,0.0,0.0,0.0,0.0,0.0,0.0,0.0,0.0,0.0,0.0,0.0,0.0,0.0,0.0,0.0,0.0,0.0,0.0,0.0,0.0,0.0,0.0,0.0,0.0,0.0,0.0,0.0,0.0,0.0,0.0,0.0,0.0,0.0,0.0,0.0,0.0,0.0,0.0,0.0,-1.6816,-1.8535,-1.9844,-2.0537,-2.0605,-2.0507,-2.0244,-1.9443,-1.8496,-1.7379,-1.5478,0.0,0.0,0.0,0.0,0.0,0.0,0.0,0.0,0.0,0.0,0.0,0.0,0.0,0.0,0.0,0.0,0.0,0.0,0.0,0.0,0.0,0.0,0.0,0.0,0.0,0.0,0.0,0.0,0.0,0.0,0.0,0.0,0.0,0.0,0.0,0.0,0.0,0.0,0.0,0.0,0.0,0.0,0.0,0.0,0.0,0.0,0.0,0.0,0.0,0.0,0.0,0.0,0.0,-1.7852,-1.8311,-1.8574,-1.8652,-1.8877,-1.9085,-1.7695,-1.707,-1.6921,-1.5488,0.0,0.0,0.0,0.0,0.0,0.0,0.0,0.0,0.0,0.0,0.0,0.0,0.0,0.0,0.0,0.0,0.0,0.0,0.0,0.0,0.0,0.0,-1.7063,-1.7797,-1.8467,-1.8237,-1.5664,0.0,0.0,0.0,0.0,0.0,0.0,0.0,0.0,0.0,0.0,0.0,-1.7314,-1.8906,-2.0078,-2.0556,-2.0605,-2.0605,-2.0605,-1.9891,-1.9033,-1.8174,-1.6631,-1.5019,0.0,0.0,0.0,0.0,0.0,0.0,0.0,0.0,0.0,0.0,0.0,0.0,0.0,0.0,0.0,0.0,0.0,0.0,0.0,0.0,0.0,0.0,0.0,0.0,0.0,0.0,0.0,0.0,0.0,0.0,0.0,0.0,-1.0527,-1.0702,0.0,0.0,0.0,0.0,0.0,0.0,0.0,0.0,0.0,0.0,0.0,0.0,0.0,-1.7158,-1.7578,-1.8799,-1.9258,-1.8965,-2.0537,-2.1123,-2.0781,-2.1201,-2.1406,-2.1445,-2.1221,0.0,-1.8334,-1.81,0.0,0.0,0.0,0.0,0.0,0.0,0.0,0.0,0.0,0.0,0.0,0.0,0.0,0.0,0.0,0.0,0.0,0.0,0.0,0.0,0.0,0.0,-2.0038,-2.0155,-2.0263,-2.0136,-1.9316,-1.7432,-1.5723,-1.5029,-1.4102,-1.3213,0.0,0.0,0.0,0.0,0.0,0.0,-1.7705,-1.9092,-2.0078,-2.0556,-2.0605,-2.0605,-2.0605,-2.0107,-1.9473,-1.8578,-1.7656,-1.6514,-1.5137,-1.3613,0.0,0.0,0.0,0.0,0.0,0.0,0.0,0.0,0.0,0.0,0.0,0.0,0.0,0.0,0.0,0.0,0.0,0.0,0.0,0.0,0.0,0.0,0.0,0.0,0.0,0.0,0.0,0.0,0.0,-1.0312,-1.1628,-1.1628,-1.2398,-1.2584,0.0,0.0,0.0,0.0,0.0,0.0,0.0,0.0,0.0,-1.7875,-1.8477,-1.9131,-1.9777,-2.0615,-2.1172,-2.1515,-2.2227,-2.2744,-2.3027,-2.3223,-2.331,-2.331,-2.331,-2.2764,-2.1707,-2.0021,-1.8887,-1.8076,0.0,0.0,0.0,0.0,-1.7559,-1.7676,-1.8822,-1.8975,-1.8619,-1.8535,0.0,0.0,0.0,0.0,0.0,0.0,0.0,-1.8281,-1.9095,-2.0146,-2.1064,-2.1543,-2.1846,-2.1894,-2.1465,-2.0303,-1.8848,-1.7197,-1.6816,-1.6084,-1.3955,-1.4033,0.0,0.0,0.0,-1.7642,-1.8926,-2.0215,-2.1006,-2.0947,-2.0937,-2.084,-2.0625,-2.0166,-1.9658,-1.9043,-1.8203,-1.7256,-1.6171,-1.4961,-1.3877,0.0,0.0,0.0,0.0,0.0,0.0,0.0,0.0,0.0,0.0,0.0,0.0,0.0,0.0,0.0,0.0,0.0,0.0,0.0,0.0,0.0,0.0,0.0,0.0,0.0,0.0,0.0,0.0,-1.1697,-1.2779,-1.2564,-1.3578,-1.3955,0.0,0.0,0.0,0.0,0.0,0.0,-1.7291,-1.79,-1.8776,-1.9922,-2.0469,-2.1103,-2.1885,-2.2314,-2.2852,-2.3531,-2.3467,-2.3754,-2.4414,-2.4414,-2.4414,-2.4414,-2.4414,-2.4414,-2.4228,-2.1875,-2.0596,-2.0039,-1.9297,-1.8857,-1.875,-1.9512,-1.958,-1.9465,-2.0878,-2.1182,-2.0909,-2.0654,-2.0391,-1.999,-1.8613,0.0,0.0,0.0,0.0,-1.9465,-2.0361,-2.1064,-2.1707,-2.2457,-2.2867,-2.3013,-2.2744,-2.2432,-2.1543,-1.9277,-1.917,-1.8594,-1.5918,-1.6162,0.0,0.0,0.0,-1.9241,-2.0108,-2.1211,-2.1768,-2.1435,-2.1259,-2.1064,-2.0762,-2.0332,-1.9853,-1.9316,-1.8691,-1.791,-1.6911,-1.6132,-1.5167,-1.4014,0.0,0.0,0.0,0.0,0.0,0.0,0.0,0.0,0.0,0.0,0.0,0.0,0.0,0.0,0.0,0.0,0.0,0.0,0.0,0.0,0.0,0.0,0.0,0.0,0.0,0.0,0.0,0.0,0.0,-1.3545,-1.5264,0.0,0.0,0.0,0.0,-1.7119,-1.7598,-1.8232,-1.9111,-1.9989,-2.086,-2.1728,-2.2549,-2.3149,-2.3652,-2.4082,-2.4316,-2.4355,-2.4355,-2.4375,-2.4414,-2.4414,-2.4414,-2.4414,-2.4414,-2.4414,-2.4375,-2.3818,-2.3105,-2.2305,-2.1865,-2.1222,-2.0537,-2.0967,-2.1083,-2.1142,-2.168,-2.1836,-2.1875,-2.2256,-2.1795,-2.1034,-2.0595,-2.0117,0.0,0.0,-2.0742,-2.1259,-2.2158,-2.2412,-2.2559,-2.2955,-2.3081,-2.3091,-2.3062,-2.3052,-2.2633,-2.1298,-2.0391,-1.9697,-1.9121,0.0,-1.8598,-1.9004,-1.9512,-2.0138,-2.1015,-2.1592,-2.1875,-2.1855,-2.1484,-2.1181,-2.1161,-2.0791,-2.0214,-1.9336,-1.9248,-1.8662,-1.7435,-1.6882,-1.621,-1.5332,-1.3672,0.0,0.0,0.0,0.0,0.0,0.0,0.0,0.0,0.0,0.0,0.0,0.0,0.0,0.0,0.0,0.0,0.0,0.0,0.0,0.0,0.0,0.0,0.0,0.0,0.0,0.0,0.0,0.0,-1.5586,-1.696,0.0,-1.6934,-1.7383,-1.7969,-1.8564,-1.9294,-2.0029,-2.0908,-2.1758,-2.25,-2.3096,-2.3662,-2.4033,-2.4189,-2.4346,-2.456,-2.4834,-2.4834,-2.5137,-2.5684,-2.5684,-2.583,-2.6094,-2.6094,-2.6094,-2.6055,-2.5635,-2.4775,-2.3721,-2.3574,-2.332,-2.3066,-2.3223,-2.3237,-2.3257,-2.3457,-2.3516,-2.3496,-2.3369,-2.2754,-2.2021,-2.1865,-2.1709,-2.1621,-2.1777,-2.2129,-2.2487,-2.2789,-2.2877,-2.2906,-2.3062,-2.3091,-2.3091,-2.3091,-2.3091,-2.2964,-2.2506,-2.1951,-2.1182,-1.9912,-1.9991,-2.0128,-1.9756,-2.0537,-2.1396,-2.1982,-2.2432,-2.2588,-2.2314,-2.1904,-2.1543,-2.122,-2.0566,-1.9902,-1.9326,-1.9023,-1.8545,-1.7822,-1.7077,-1.6414,-1.587,-1.4424,-1.3125,0.0,0.0,0.0,0.0,0.0,0.0,0.0,0.0,0.0,0.0,0.0,0.0,0.0,0.0,0.0,0.0,0.0,0.0,0.0,0.0,0.0,0.0,0.0,0.0,0.0,0.0,-1.6982,-1.7116,-1.852,-1.9251,-1.8711,-1.9143,-1.9718,-2.0332,-2.1075,-2.1799,-2.249,-2.3193,-2.3656,-2.3994,-2.4414,-2.4707,-2.4863,-2.501,-2.5303,-2.5723,-2.5723,-2.6025,-2.6602,-2.6602,-2.6758,-2.7012,-2.7012,-2.7012,-2.6992,-2.6709,-2.6084,-2.5244,-2.4805,-2.4551,-2.4414,-2.4414,-2.4414,-2.4414,-2.4414,-2.4414,-2.4375,-2.4092,-2.3613,-2.3154,-2.3154,-2.3154,-2.3154,-2.3154,-2.3315,-2.352,-2.352,-2.3422,-2.3359,-2.3359,-2.3198,-2.3091,-2.3091,-2.3091,-2.3091,-2.3091,-2.2867,-2.2363,-2.1201,-2.1453,-2.1639,-2.1094,-2.1748,-2.2412,-2.2685,-2.2925,-2.2984,-2.2711,-2.2344,-2.1924,-2.1484,-2.0644,-1.9893,-1.9326,-1.8841,-1.8354,-1.7822,-1.7256,-1.667,-1.6105,-1.4795,-1.3627,-1.2632,0.0,0.0,0.0,0.0,0.0,0.0,0.0,0.0,0.0,0.0,0.0,0.0,0.0,0.0,0.0,0.0,0.0,0.0,0.0,0.0,0.0,0.0,0.0,-1.5488,-1.7291,-1.851,-1.8174,-1.9952,-2.0898,-2.0098,-2.0761,-2.1619,-2.249,-2.2959,-2.3423,-2.3789,-2.4209,-2.4443,-2.4453,-2.4883,-2.5322,-2.5723,-2.6201,-2.6611,-2.7012,-2.7012,-2.7021,-2.7031,-2.7031,-2.7041,-2.7051,-2.7051,-2.7051,-2.7051,-2.7041,-2.7031,-2.6904,-2.5625,-2.4873,-2.4492,-2.4482,-2.4473,-2.4453,-2.4453,-2.4453,-2.4434,-2.4434,-2.4424,-2.4414,-2.4414,-2.4414,-2.4414,-2.4414,-2.4414,-2.4414,-2.4414,-2.4111,-2.3809,-2.3809,-2.3486,-2.313,-2.312,-2.311,-2.311,-2.3091,-2.3091,-2.3091,-2.3091,-2.3091,-2.3091,-2.3091,-2.3091,0.0,-2.3091,-2.3091,-2.3091,-2.3091,-2.2721,-2.2344,-2.1943,-2.1124,-2.0243,-1.9365,-1.8887,-1.8227,-1.7432,-1.7425,-1.6995,-1.6114,-1.4834,-1.3958,-1.3545,0.0,0.0,0.0,0.0,0.0,0.0,0.0,0.0,0.0,0.0,0.0,0.0,0.0,0.0,0.0,0.0,0.0,0.0,0.0,0.0,0.0,0.0,-1.7295,-1.7295,-1.8603,-1.9873,-2.0723,-2.1611,-2.2146,-2.2204,-2.2754,-2.3184,-2.3418,-2.3828,-2.4121,-2.4238,-2.4658,-2.5039,-2.5313,-2.5801,-2.623,-2.666,-2.6787,-2.6904,-2.7012,-2.7012,-2.7178,-2.749,-2.749,-2.7656,-2.7939,-2.7939,-2.7939,-2.792,-2.7617,-2.749,-2.7422,-2.6748,-2.6406,-2.626,-2.5957,-2.5644,-2.5323,-2.5323,-2.5166,-2.4893,-2.4893,-2.4678,-2.4414,-2.4414,-2.4414,-2.4414,-2.4414,-2.4414,-2.4414,-2.4414,-2.4336,-2.4248,-2.4248,-2.415,-2.3984,-2.3672,-2.3613,-2.3516,-2.3159,-2.3091,-2.3091,-2.3091,-2.3091,-2.3091,-2.3091,-2.3091,0.0,-2.3091,-2.3091,-2.3091,-2.3091,-2.2721,-2.2471,-2.2344,-2.129,-2.037,-1.9775,-1.9007,-1.8364,-1.7861,-1.7539,-1.6995,-1.6114,-1.5743,-1.5166,0.0,0.0,0.0,0.0,0.0,0.0,0.0,0.0,0.0,0.0,0.0,0.0,0.0,0.0,0.0,0.0,0.0,0.0,0.0,0.0,0.0,0.0,-1.7637,-1.9004,-1.9551,-2.0273,-2.1094,-2.2041,-2.2519,-2.2896,-2.3369,-2.3643,-2.3867,-2.4043,-2.4443,-2.4687,-2.4687,-2.5283,-2.5742,-2.6006,-2.6426,-2.6855,-2.7285,-2.7285,-2.7383,-2.7549,-2.7549,-2.7685,-2.793,-2.793,-2.8057,-2.8291,-2.8291,-2.8291,-2.8271,-2.8027,-2.793,-2.7871,0.0,0.0,0.0,0.0,-2.6494,-2.62,-2.6074,-2.584,-2.5586,-2.541,-2.5176,-2.4923,-2.4923,-2.4923,-2.4923,-2.4923,-2.4923,-2.4923,-2.4923,-2.4824,-2.4687,-2.4687,-2.4551,-2.4346,-2.4102,-2.4053,-2.3926,-2.3496,-2.3408,0.0,-2.312,-2.3091,-2.3091,-2.3091,-2.3091,-2.3091,-2.3091,-2.3091,-2.3091,-2.3091,-2.2877,-2.2662,-2.2529,-2.1484,0.0,0.0,0.0,-1.8633,-1.8037,-1.7432,0.0,0.0,0.0,0.0,0.0,0.0,0.0,0.0,-1.5234,-1.5303,0.0,0.0,0.0,0.0,0.0,0.0,0.0,0.0,0.0,0.0,0.0,0.0,0.0,0.0,0.0,0.0,-1.9268,-2.0566,-2.1787,-2.2002,-2.2168,-2.2539,-2.2867,-2.3266,-2.375,-2.3838,-2.4033,-2.4463,-2.4893,-2.5213,-2.5262,0.0,0.0,0.0,0.0,-2.7295,-2.7787,-2.7787,-2.792,-2.8291,-2.8291,-2.8291,-2.8291,-2.8291,-2.8291,-2.8291,-2.8291,-2.8291,-2.8291,-2.8291,-2.8291,-2.8213,-2.7461,-2.7129,-2.709,-2.709,-2.706,-2.6963,-2.6592,0.0,0.0,-2.5957,-2.5801,-2.5762,-2.5762,-2.5732,-2.5693,-2.5693,-2.5693,-2.5693,-2.5693,-2.5439,-2.5194,-2.5194,-2.4853,-2.4551,-2.4502,-2.4492,-2.4365,-2.3945,-2.3828,-2.3662,-2.3237,-2.313,-2.3091,-2.3091,-2.3091,-2.3091,-2.3091,-2.3091,-2.3091,-2.3091,-2.3091,0.0,-2.2617,-2.1804,-2.1191,-2.0781,-1.9863,-1.9066,-1.8355,-1.7586,-1.733,-1.7708,-1.7767,-1.8041,-1.8598,-1.8646,-1.8724,-1.8773,-1.6804,-1.6719,0.0,0.0,0.0,0.0,0.0,0.0,0.0,0.0,0.0,0.0,0.0,0.0,0.0,0.0,0.0,-1.8926,-2.043,-2.1709,-2.2305,-2.2643,-2.2886,-2.2964,-2.3042,-2.3266,-2.375,-2.4092,-2.4473,-2.4912,-2.5352,-2.5762,-2.6113,-2.6299,-2.6709,-2.7454,-2.75,-2.7744,-2.8164,-2.8174,-2.8213,-2.8291,0.0,0.0,-2.8291,-2.8291,-2.8291,-2.8291,-2.8291,-2.8291,-2.8291,-2.8291,-2.8291,-2.8271,-2.8115,-2.7842,-2.7539,-2.7539,-2.7314,-2.7002,-2.6924,-2.6894,-2.6875,-2.6797,-2.6543,-2.626,-2.626,-2.6016,0.0,-2.5693,-2.5693,-2.5693,-2.5693,-2.5625,-2.5557,-2.5557,-2.5499,-2.5381,-2.5019,-2.4941,-2.4814,-2.4375,-2.4023,-2.376,-2.3682,-2.3369,-2.3091,-2.3091,-2.3091,-2.3091,-2.3091,-2.3091,-2.3091,-2.3091,-2.3091,-2.3062,-2.2984,-2.2516,-2.208,-2.166,-2.0478,-1.9919,-2.0242,-2.0115,-1.9885,-1.957,-1.9969,-1.9645,-1.8598,-1.8994,-1.9521,-2.0176,-1.9404,-1.9043,0.0,0.0,0.0,0.0,0.0,0.0,0.0,0.0,0.0,0.0,0.0,-1.6777,0.0,0.0,-1.9814,-2.0478,-2.1494,-2.2344,-2.2721,-2.2964,-2.3091,-2.3091,-2.3286,-2.3633,-2.4062,-2.4492,-2.5019,-2.5684,-2.5937,-2.625,-2.668,-2.6904,-2.7226,-2.7708,-2.7924,-2.8086,-2.8291,-2.8291,-2.8291,-2.8291,-2.8291,-2.8398,-2.8603,-2.8603,-2.8721,-2.8916,-2.8701,-2.8603,-2.8584,-2.8379,-2.8291,-2.8291,-2.8291,-2.8164,-2.7978,-2.7978,-2.7842,-2.7627,-2.7412,-2.7344,-2.7305,-2.709,-2.6875,-2.6699,-2.6699,-2.6406,-2.6064,-2.6064,-2.5908,-2.5693,-2.5693,-2.5693,-2.5693,-2.5693,-2.5693,-2.5625,-2.5449,-2.54,-2.5273,-2.4824,-2.457,-2.4297,-2.3867,-2.3603,-2.3344,-2.313,-2.3091,-2.3091,-2.3091,-2.3091,-2.3091,-2.3091,-2.3091,-2.3091,-2.3091,-2.2711,-2.2334,-2.1914,-2.1055,-2.071,-2.1004,-2.0819,-2.0935,-2.1476,-2.1745,-2.1861,-2.1898,-2.1566,-2.1608,-2.2046,-2.1481,-2.0996,0.0,0.0,0.0,0.0,0.0,0.0,0.0,0.0,-1.5674,-1.6182,-1.7539,-1.8705,-1.9046,-2.0127,-2.1222,-2.1894,-2.2353,-2.2711,-2.3052,-2.3091,-2.3091,-2.3091,-2.3525,-2.3955,-2.4375,-2.4814,-2.5487,-2.6318,-2.6387,-2.6611,-2.7119,-2.7471,-2.7757,-2.7783,-2.8115,-2.8291,-2.8291,-2.8369,-2.8418,-2.8418,-2.8506,-2.8721,-2.9043,-2.9043,-2.9238,-2.9551,-2.9199,-2.9043,-2.9014,-2.8594,-2.8418,-2.8408,-2.833,-2.8291,-2.8291,-2.8291,-2.8291,-2.8242,-2.791,-2.7836,-2.7734,-2.7383,-2.7207,-2.7139,-2.7139,-2.6846,-2.6514,-2.6514,-2.6201,-2.5859,-2.5859,-2.5752,-2.5693,-2.5693,-2.5693,-2.5693,-2.5693,-2.5693,-2.5586,-2.5273,-2.5354,-2.5208,-2.4505,-2.4461,-2.4235,-2.3533,-2.343,-2.3517,-2.3724,-2.3551,-2.3507,-2.3724,-2.3551,-2.3507,-2.3724,-2.3285,-2.278,-2.2353,-2.1793,-2.1476,-2.1579,-2.15,-2.2045,-2.3296,-2.3306,-2.384,-2.4859,-2.3743,-2.3234,-2.3287,-2.2745,-2.2334,-1.3115,-1.35,-1.3929,-1.4385,-1.4853,-1.5654,0.0,0.0,-1.8403,-1.9248,-2.0157,-2.0849,-2.0898,-2.1639,-2.2324,-2.2432,-2.275,-2.3042,-2.3091,-2.3091,-2.3091,-2.3091,-2.3525,-2.3955,-2.4375,-2.4814,-2.5487,-2.6318,-2.6387,-2.6738,-2.7601,-2.7689,-2.7832,-2.8213,-2.8271,-2.8291,-2.8291,-2.8662,-2.8848,-2.8848,-2.9238,-2.9453,-2.9502,-2.9502,-2.9521,-2.9626,-2.9512,-2.9502,-2.9463,-2.9023,-2.8848,-2.8809,-2.8437,-2.8291,-2.8291,-2.8291,-2.8291,-2.8281,-2.8242,-2.8223,-2.8213,-2.8164,-2.79,-2.7598,-2.7598,-2.7285,-2.6943,-2.6943,-2.6641,-2.6318,-2.6318,-2.6025,-2.5693,-2.5693,-2.5693,-2.5693,-2.5693,-2.5693,-2.5674,-2.5625,-2.6216,-2.667,-2.6576,-2.6745,-2.6408,-2.4818,-2.4617,-2.4967,-2.5975,-2.5263,-2.4999,-2.6016,-2.521,-2.4999,-2.6016,-2.5167,-2.4357,-2.395,-2.2952,-2.2585,-2.3029,-2.3989,-2.4587,-2.4759,-2.4759,-2.439,-2.3692,-2.2625,-2.2269,-2.2601,-2.2533,-2.249,-1.4774,-1.5312,0.0,0.0,-1.6797,-1.7842,-1.8451,-1.9182,-1.9932,-2.0518,-2.1327,-2.1982,-2.1982,-2.2428,-2.2838,0.0,-2.2984,-2.3091,-2.3091,-2.3091,-2.3091,-2.3091,-2.3525,-2.3955,-2.4375,-2.4814,-2.5537,-2.667,-2.6758,-2.7129,-2.7988,-2.8027,-2.8115,-2.8281,-2.8291,-2.8408,-2.8662,-2.8838,-2.9053,-2.9297,-2.9482,-2.9697,-2.9932,-2.9932,-2.9932,-2.9932,-2.9932,-2.9795,-2.956,-2.9375,-2.915,-2.8896,-2.8721,-2.8506,-2.8291,-2.8291,-2.8291,-2.8291,-2.8291,-2.8291,-2.8291,-2.8291,-2.8174,-2.8027,-2.8027,-2.7734,-2.7393,-2.7393,-2.6904,-2.6387,-2.6387,-2.6064,-2.5693,-2.5693,-2.5693,-2.5693,-2.5693,-2.5693,-2.5927,-2.6658,-2.7065,-2.7433,-2.7924,-2.8077,-2.7967,-2.7281,-2.639,-2.5975,-2.6431,-2.6099,-2.5964,-2.6431,-2.6058,-2.5975,-2.6483,-2.6058,-2.5721,-2.5565,-2.511,-2.4639,-2.4179,-2.4623,-2.5196,-2.5856,-2.5856,-2.6297,-2.718,-2.6045,-2.5265,-2.4818,-2.4146,-2.3486,-1.5694,0.0,0.0,-1.7194,-1.8457,-1.959,-1.9358,-2.0264,-2.1191,-2.1483,-2.2136,-2.2685,-2.2685,-2.2886,-2.3091,-2.3091,-2.3091,-2.3091,-2.3091,-2.3091,-2.3091,-2.3091,-2.3418,-2.3779,-2.4199,-2.4746,-2.5615,-2.6914,-2.7012,-2.7383,-2.8242,-2.8291,-2.8291,-2.8291,-2.8291,-2.8496,-2.8916,-2.9033,-2.9316,-2.9746,-2.9873,-3.0088,-3.0391,-3.0391,-3.0391,-3.0391,-3.0391,-3.049,-3.0568,-3.0438,-3.0409,-3.0414,-2.9748,-2.9359,-2.9016,-2.849,-2.8291,-2.8291,-2.8291,-2.8291,-2.8291,-2.8291,-2.8291,-2.8291,-2.8291,-2.8086,-2.7894,-2.7894,-2.7314,-2.681,-2.7023,-2.6705,-2.6433,-2.6688,-2.6696,-2.6696,-2.6696,-2.6696,-2.6982,-2.7908,-2.8366,-2.8802,-2.9352,-2.9625,-2.9757,-2.9802,-2.8586,-2.7586,-2.7447,-2.7395,-2.7302,-2.6964,-2.7221,-2.7395,-2.7395,-2.7128,-2.6924,-2.6924,-2.6637,-2.6141,-2.5294,-2.5535,-2.6119,-2.6924,-2.6924,-2.7747,-2.9326,-2.7896,-2.6778,-2.6005,-2.4882,-2.3877,0.0,0.0,-1.8066,-1.8442,-1.9561,-2.0674,-2.1025,-2.1826,-2.2461,-2.2471,-2.2779,-2.3081,-2.3081,-2.3081,-2.3091,-2.3091,-2.3091,-2.3091,-2.3091,-2.3091,-2.3091,-2.3091,-2.311,-2.3286,0.0,-2.4617,-2.5615,-2.6914,-2.7012,-2.7383,-2.8242,-2.8291,-2.8291,-2.8291,-2.8291,-2.8496,-2.8916,-2.9336,-2.9766,-3.0185,-3.0635,-3.0859,-3.0869,-3.0869,-3.0869,-3.0869,-3.0869,-3.168,-3.2937,-3.2486,-3.3158,-3.4189,-3.1923,-3.1053,-3.0767,-2.8953,-2.8291,-2.8291,-2.8291,-2.8291,-2.8291,-2.8291,-2.8291,-2.8291,-2.8291,-2.8281,-2.8271,-2.8271,-2.7959,-2.7821,-2.8549,-2.8439,-2.8317,-2.9104,-2.9269,-2.9269,-2.9269,-2.9269,-2.9315,-2.9361,-3.0271,-3.1078,-3.111,-3.1675,-3.2118,-3.2081,-3.1179,-3.0276,-2.9777,-2.9714,-2.9287,-2.8176,-2.9028,-2.9714,-2.9714,-2.8688,-2.8056,-2.8056,-2.7087,-2.6472,-2.6431,-2.7441,-2.8004,-2.8056,-2.8056,-2.8084,-2.8136,-2.5942,-2.4872,-2.483,-2.3671,-2.3135,0.0,0.0,-1.9443,-2.0138,-2.1113,-2.1894,-2.2051,-2.2305,-2.251,-2.251,-2.2136,-2.1921,-2.2256,-2.2305,-2.2402,-2.2676,-2.2916,-2.3091,-2.3091,-2.3389,-2.3467,-2.313,-2.3344,0.0,0.0,0.0,0.0,-2.6044,-2.6699,-2.7266,-2.7851,-2.8135,-2.8291,-2.8291,-2.8564,-2.8916,-2.9346,-2.9775,-3.0215,-3.0664,-3.081,-3.0889,-3.0947,-3.193,-3.2369,-3.2426,-3.336,-3.408,-3.4559,-3.4395,-3.4405,-3.4515,-3.3752,-3.3021,-3.2397,-3.1776,-3.1299,-3.0721,-2.89,-2.8291,-2.8291,-2.8291,-2.8291,-2.8441,-2.9355,-2.9608,-2.9807,-3.0721,-3.0635,-3.04,-3.0674,-3.0367,-3.0028,-2.9965,-2.9935,-2.9845,-2.9474,-2.9407,-2.9636,-3.0451,-3.0899,-3.1456,-3.2339,-3.2635,-3.2654,-3.2277,-3.1311,-3.0419,-2.9867,-2.9792,-2.9663,-2.9275,-2.9573,-2.9792,-2.9792,-2.9456,-2.9236,-2.9236,-2.887,-2.8371,-2.7602,-2.7924,-2.8096,-2.8096,-2.8096,-2.8466,-2.9236,-2.849,-2.7371,-2.5933,-2.5515,-2.4563,-1.8559,-1.9609,-2.04,-2.1395,-2.2109,-2.251,-2.251,-2.251,-2.2422,-2.2119,-2.1494,-2.1084,-2.1357,-2.1289,-2.1426,-2.2168,-2.251,-2.2852,-2.331,-2.3477,-2.3564,-2.3549,-2.4093,-2.4421,0.0,0.0,0.0,-2.5947,-2.6621,-2.7207,-2.7689,-2.8522,-2.8804,-2.8291,-2.9168,-2.966,-2.9626,-2.999,-3.043,-3.0898,-3.1441,-3.172,-3.171,-3.3191,-3.3912,-3.3968,-3.4902,-3.5617,-3.6108,-3.6108,-3.6248,-3.6361,-3.5633,-3.5014,-3.4395,-3.3537,-3.2942,-3.2323,-3.0422,-2.9713,-2.9713,-2.9713,-2.9713,-2.9911,-3.0773,-3.1019,-3.1173,-3.2079,-3.2107,-3.1987,-3.2248,-3.2108,-3.1872,-3.1798,-3.1679,-3.1411,-3.1072,-3.0861,-3.0956,-3.1733,-3.1877,-3.2152,-3.2939,-3.3124,-3.288,-3.2303,-3.1461,-3.0696,-3.0156,-2.9917,-2.9792,-2.9792,-2.9792,-2.9792,-2.9792,-2.9792,-2.9792,-2.9792,-2.9792,-2.9495,-2.8727,-2.8727,-2.8727,-2.8727,-2.8727,-2.9067,-2.9792,-2.9404,-2.845,-2.7035,-2.6254,-2.5094,-1.9609,-2.0303,-2.1006,-2.2227,-2.2529,-2.251,-2.251,-2.2461,-2.2178,-2.1298,-2.0781,-2.0468,0.0,0.0,-2.0293,-2.1582,-2.1865,-2.2363,-2.3613,-2.3447,-2.3461,0.0,0.0,0.0,0.0,0.0,0.0,-2.6646,0.0,-2.7402,-2.7793,-2.9476,-2.9817,-2.8441,-3.0185,-3.0681,-2.9728,-3.0113,-3.0564,-3.1005,-3.2426,-3.3134,-3.3237,-3.4736,-3.5398,-3.5409,-3.5508,-3.6325,-3.7624,-3.7624,-3.8465,-3.9531,-3.7673,-3.6912,-3.6613,-3.4314,-3.3424,-3.3333,-3.2712,-3.2431,-3.228,-3.228,-3.228,-3.2331,-3.2381,-3.2392,-3.2431,-3.2482,-3.2532,-3.268,-3.3443,-3.366,-3.3826,-3.4558,-3.4361,-3.3972,-3.3909,-3.3483,-3.3106,-3.3124,-3.3124,-3.3124,-3.3124,-3.3124,-3.2893,-3.234,-3.1788,-3.1235,-3.0683,-3.0131,-2.9792,-2.9792,-2.9792,-2.9792,-2.9792,-2.9792,-2.9792,-2.9792,-2.9792,-2.9792,-2.9792,-2.9792,-2.9792,-2.9792,-2.9792,-2.9792,-2.9792,-2.8727,-2.8176,-2.8056,-2.5942,-2.4957,-2.0175,-2.1191,-2.2168,-2.2779,-2.2701,-2.251,-2.251,-2.1768,-2.0908,-2.0361,-1.9404,-1.8564,0.0,0.0,0.0,-2.0312,-2.1504,0.0,-2.3652,-2.3965,0.0,-2.4394,0.0,-2.6269,-2.5447,-2.7793,0.0,0.0,-2.9323,-2.9689,-2.9228,-3.0823,-3.1173,-2.9807,-3.193,-3.248,-3.1278,-3.2008,-3.2406,-3.253,-3.2907,-3.3687,-3.4792,-3.6271,-3.6918,-3.6984,-3.8096,-3.8804,-3.9129,-3.9129,-3.9362,-3.962,-3.9148,-3.8734,-3.8237,-3.7168,-3.6504,-3.6076,-3.5538,-3.3995,-3.228,-3.228,-3.228,-3.2493,-3.3563,-3.3871,-3.4068,-3.5054,-3.5343,-3.5414,-3.5625,-3.5647,-3.5605,-3.5361,-3.5182,-3.4856,-3.4073,-3.3796,-3.3571,-3.3156,-3.3124,-3.3124,-3.3124,-3.3124,-3.3074,-3.288,-3.2365,-3.1675,-3.0733,-3.0131,-2.9792,-2.9792,-2.9792,-2.9792,-2.9792,-2.9792,-2.9792,-2.9792,-2.9792,-2.9792,-2.9792,-2.9792,-2.9792,-2.9792,-2.9792,-2.9792,-2.9792,-2.9495,-2.8937,-2.8096,-2.751,-2.6819,-2.1133,-2.209,-2.2799,-2.3033,-2.2779,-2.2314,-2.1543,-2.0664,-1.9705,-1.8467,-1.75,0.0,0.0,0.0,0.0,0.0,0.0,0.0,-2.3867,-2.4111,-2.4529,0.0,-2.6936,0.0,-2.7677,-2.9963,-3.1136,0.0,-3.0869,-3.1029,-3.0621,-3.2284,-3.2695,-3.1601,-3.3562,-3.4234,-3.3334,-3.3809,-3.4069,-3.4069,-3.4725,-3.5431,-3.6325,-3.7808,-3.8465,-3.8518,-3.9362,-3.9697,-3.9697,-3.9697,-3.9697,-3.9697,-3.9697,-3.9509,-3.9132,-3.8316,-3.7814,-3.7425,-3.6681,-3.5391,-3.4093,-3.4093,-3.4093,-3.4252,-3.5017,-3.5271,-3.5415,-3.6216,-3.6405,-3.6405,-3.6405,-3.6405,-3.6329,-3.5981,-3.5671,-3.5332,-3.4705,-3.4248,-3.3734,-3.3181,-3.3124,-3.3124,-3.3124,-3.3124,-3.3124,-3.3124,-3.2591,-3.1989,-3.1399,-3.0633,-3.0068,-2.9817,-2.9792,-2.9792,-2.9792,-2.9792,-2.9792,-2.9792,-2.9792,-2.9792,-2.9792,-2.9792,-2.9792,-2.9792,-2.9792,-2.9792,-2.9792,-2.9792,-2.9495,-2.8819,-2.8347,-2.7763,-2.2197,-2.2779,-2.3081,-2.3023,-2.2652,-2.1904,-2.0215,-1.9414,-1.8492,-1.6427,0.0,-1.5293,-1.5186,-1.5946,-1.7155,-1.8848,0.0,-2.1936,-2.4205,-2.4153,-2.4846,-2.7431,-2.8413,-2.9262,-3.0193,-3.2548,-3.3463,-3.2139,-3.2207,-3.2256,-3.206,-3.3734,-3.4388,-3.3839,-3.5109,-3.573,-3.5606,-3.5563,-3.5563,-3.5617,-3.6865,-3.7571,-3.7849,-3.9141,-3.9697,-3.9697,-3.9697,-3.9697,-3.9697,-3.9697,-3.9697,-3.9697,-3.9697,-3.9697,-3.9559,-3.8417,-3.8002,-3.7852,-3.6795,-3.6405,-3.6405,-3.6405,-3.6405,-3.6405,-3.6405,-3.6405,-3.6405,-3.6405,-3.6405,-3.6405,-3.6405,-3.6405,-3.6405,-3.6405,-3.5994,-3.5596,-3.552,-3.4675,-3.3734,-3.3181,-3.3124,-3.3124,-3.3124,-3.3124,-3.3124,-3.3124,-3.2654,-3.2303,-3.2227,-3.1273,-3.0432,-2.9955,-2.9829,-2.9792,-2.9792,-2.9792,-2.9792,-2.9792,-2.9792,-2.9792,-2.9792,-2.9792,-2.9792,-2.9792,-2.9792,-2.9792,-2.9792,-2.9792,-2.9792,-2.9792,-2.8779,-2.8347,-2.2353,-2.2779,-2.3013,-2.2705,-2.199,-2.1054,-1.9707,-1.8525,0.0,0.0,0.0,-1.4678,-1.3965,-1.5117,0.0,-1.8008,0.0,0.0,0.0,0.0,-2.532,0.0,0.0,0.0,0.0,0.0,0.0,0.0,0.0,-3.5077,-3.3999,-3.527,-3.6425,-3.7159,-3.6379,-3.6355,-3.7133,-3.7145,-3.7145,-3.7145,-3.7358,-3.8125,-3.9349,-3.9581,-3.9697,-3.9697,-3.9697,-3.9697,-3.9697,-3.9697,-3.9697,-3.9697,-3.9697,-3.9697,-3.9559,-3.8417,-3.8002,-3.7852,-3.6795,-3.6405,-3.6405,-3.6405,-3.6405,-3.6405,-3.6405,-3.6405,-3.6405,-3.6405,-3.6405,-3.6405,-3.6405,-3.6405,-3.6405,-3.6405,-3.6329,-3.6094,-3.5596,-3.4675,-3.3734,-3.3181,-3.3124,-3.3124,-3.3124,-3.3124,-3.3124,-3.3124,-3.2993,-3.2754,-3.2277,-3.1273,-3.0583,-3.0482,-3.0068,-2.9792,-2.9792,-2.9792,-2.9792,-2.9792,-2.9792,-2.9792,-2.9792,-2.9792,-2.9792,-2.9792,-2.9792,-2.9792,-2.9792,-2.9792,-2.9792,-2.9792,-2.9585,-2.9495,-2.246,-2.3222,-2.3733,-2.2735,-2.2615,-2.1977,-1.8978,0.0,0.0,0.0,0.0,-1.3672,-1.3262,0.0,0.0,0.0,0.0,0.0,0.0,0.0,0.0,0.0,0.0,0.0,0.0,0.0,0.0,0.0,0.0,-3.6108,-3.5475,-3.6335,-3.7036,-3.7563,-3.7567,-3.7743,-3.8206,-3.85,-3.8635,-3.8635,-3.8635,-3.9025,-3.9697,-3.9697,-3.9697,-3.9697,-3.9697,-3.9697,-3.9697,-3.9697,-3.9697,-3.9697,-3.9697,-3.9521,-3.917,-3.8316,-3.7826,-3.7462,-3.6694,-3.6405,-3.6405,-3.6405,-3.6405,-3.6405,-3.6405,-3.6405,-3.6405,-3.6405,-3.6405,-3.6405,-3.6405,-3.6405,-3.6405,-3.6405,-3.6405,-3.6179,-3.5257,-3.47,-3.4085,-3.3244,-3.3124,-3.3124,-3.3124,-3.3124,-3.3124,-3.3124,-3.3124,-3.3023,-3.2704,-3.1951,-3.1235,-3.067,-3.0382,-3.0105,-2.9817,-2.9792,-2.9792,-2.9792,-2.9792,-2.9792,-2.9792,-2.9792,-2.9792,-2.9792,-2.9792,-2.9792,-2.9792,-2.9792,-2.9792,-2.9792,-2.9792,-2.9792,-2.277,-2.3769,-2.4409,-2.3326,-2.344,-2.2765,-1.854,-1.7318,0.0,0.0,-1.2905,-1.2954,-1.3065,0.0,0.0,0.0,0.0,0.0,0.0,0.0,0.0,0.0,0.0,0.0,0.0,0.0,0.0,0.0,0.0,-3.6405,-3.6405,-3.682,-3.7061,-3.7186,-3.804,-3.868,-3.8919,-3.9295,-3.9584,-3.9697,-3.9697,-3.9697,-3.9697,-3.9697,-3.9697,-3.9697,-3.9697,-3.9697,-3.9697,-3.9697,-3.9697,-3.9685,-3.9559,-3.9245,-3.8831,-3.809,-3.755,-3.7098,-3.6606,-3.6405,-3.6405,-3.6405,-3.6405,-3.6405,-3.6405,-3.6405,-3.6405,-3.6405,-3.6405,-3.6405,-3.6405,-3.6405,-3.6405,-3.6405,-3.6405,-3.6103,-3.4964,-3.468,-3.4399,-3.3294,-3.3124,-3.3124,-3.3124,-3.3124,-3.3124,-3.3124,-3.3124,-3.3124,-3.3124,-3.2679,-3.2026,-3.106,-3.0758,-3.0444,-3.0005,-2.9867,-2.9792,-2.9792,-2.9792,-2.9792,-2.9792,-2.9792,-2.9792,-2.9792,-2.9792,-2.9792,-2.9792,-2.9792,-2.9792,-2.9792,-2.9792,-2.9792,-2.3677,-2.4147,-2.4351,-2.4671,-2.3798,-2.2016,-1.8848,0.0,0.0,-1.3318,-1.2905,-1.3065,-1.3613,-1.371,0.0,0.0,0.0,0.0,0.0,0.0,0.0,0.0,0.0,0.0,0.0,0.0,0.0,0.0,0.0,-3.6405,-3.6405,-3.6455,-3.6719,-3.7161,-3.7287,-3.7826,-3.8906,-3.8969,-3.9195,-3.9697,-3.9697,-3.9697,-3.9697,-3.9697,-3.9697,-3.9697,-3.9697,-3.9697,-3.9697,-3.9697,-3.9697,-3.9647,-3.9145,-3.8957,-3.8793,-3.7663,-3.7224,-3.7098,-3.6606,-3.6405,-3.6405,-3.6405,-3.6405,-3.6405,-3.6405,-3.6405,-3.6405,-3.6405,-3.6405,-3.6405,-3.6405,-3.6405,-3.6405,-3.6405,-3.6405,-3.6103,-3.4964,-3.468,-3.4399,-3.3294,-3.3124,-3.3124,-3.3124,-3.3124,-3.3124,-3.3124,-3.3124,-3.3124,-3.3124,-3.3031,-3.2754,-3.2127,-3.1198,-3.0595,-3.0545,-3.008,-2.9792,-2.9792,-2.9792,-2.9792,-2.9792,-2.9792,-2.9792,-2.9792,-2.9792,-2.9792,-2.9792,-2.9792,-2.9792,-2.9792,-2.9792,-2.9792,-2.267,-2.4174,-2.5262,-2.3944,-2.38,-2.3039,-1.9543,0.0,-1.6607,-1.4432,-1.3695,-1.3624,-1.4236,-1.4281,-1.4913,-1.6965,-1.7893,-1.9537,0.0,0.0,0.0,0.0,0.0,0.0,0.0,0.0,0.0,0.0,0.0,-3.6405,-3.6405,-3.6405,-3.6505,-3.6732,-3.701,-3.74,-3.7852,-3.858,-3.9032,-3.9195,-3.9534,-3.9697,-3.9697,-3.9697,-3.9697,-3.9672,-3.9346,-3.9195,-3.917,-3.8818,-3.868,-3.8655,-3.8429,-3.814,-3.7801,-3.7349,-3.7021,-3.6707,-3.648,-3.6405,-3.6405,-3.6405,-3.6405,-3.6405,-3.6405,-3.6405,-3.6405,-3.6405,-3.6405,-3.6405,-3.6405,-3.6405,-3.6405,-3.6405,-3.6405,-3.6103,-3.4964,-3.468,-3.4399,-3.3294,-3.3124,-3.3124,-3.3124,-3.3124,-3.3124,-3.3124,-3.3124,-3.3124,-3.3124,-3.3124,-3.2993,-3.2754,-3.175,-3.0947,-3.0645,-3.0118,-2.9792,-2.9792,-2.9792,-2.9792,-2.9792,-2.9792,-2.9792,-2.9792,-2.9792,-2.9792,-2.9792,-2.9792,-2.9792,-2.9792,-2.9792,-2.9792,-2.2177,-2.4036,-2.5446,-2.3932,-2.3941,-2.3424,0.0,0.0,-1.7274,-1.5141,-1.4213,-1.405,-1.4824,-1.4675,-1.4996,-1.6706,-1.7664,-1.9139,-2.1856,0.0,0.0,0.0,0.0,0.0,0.0,0.0,0.0,0.0,0.0,-3.6405,-3.6405,-3.6405,-3.6405,-3.6405,-3.6782,-3.7023,-3.7186,-3.7977,-3.8454,-3.8617,-3.9007,-3.9195,-3.9195,-3.9195,-3.9195,-3.917,-3.8781,-3.8617,-3.858,-3.8178,-3.8002,-3.799,-3.7826,-3.7525,-3.7161,-3.6998,-3.6744,-3.6405,-3.6405,-3.6405,-3.6405,-3.6405,-3.6405,-3.6405,-3.6405,-3.6405,-3.6405,-3.6405,-3.6405,-3.6405,-3.6405,-3.6405,-3.6405,-3.6405,-3.6279,-3.5855,-3.4926,-3.46,-3.4198,-3.3257,-3.3124,-3.3124,-3.3124,-3.3124,-3.3124,-3.3124,-3.3124,-3.3124,-3.3124,-3.3124,-3.3124,-3.3124,-3.2064,-3.1248,-3.0871,-3.0193,-2.9792,-2.9792,-2.9792,-2.9792,-2.9792,-2.9792,-2.9792,-2.9792,-2.9792,-2.9792,-2.9792,-2.9792,-2.9792,-2.9792,-2.9792,-2.9792,-2.2667,-2.3726,-2.4427,-2.5331,-2.4336,-2.2533,0.0,-1.8478,-1.6811,-1.5073,-1.4213,-1.4167,-1.5365,-1.4607,-1.461,-1.7016,-1.7787,-1.9281,-2.2618,0.0,0.0,0.0,0.0,0.0,0.0,0.0,0.0,0.0,-3.6405,0.0,-3.6405,-3.6405,-3.6405,-3.6405,-3.6417,-3.6681,-3.7174,-3.7199,-3.7475,-3.8015,-3.8027,-3.8027,-3.8027,-3.8027,-3.8027,-3.8027,-3.8015,-3.8015,-3.8015,-3.8002,-3.8002,-3.7952,-3.7412,-3.7186,-3.7123,-3.6619,-3.6417,-3.6405,-3.6405,-3.6405,-3.6405,-3.6405,-3.6405,-3.6405,-3.6405,-3.6405,-3.6405,-3.6405,-3.6405,-3.6405,-3.6405,-3.6405,-3.6405,-3.6405,-3.5943,-3.5357,-3.4806,-3.4299,-3.3746,-3.3224,-3.3124,-3.3124,-3.3124,-3.3124,-3.3124,-3.3124,-3.3124,-3.3124,-3.3124,-3.3124,-3.3124,-3.3124,-3.2064,-3.1386,-3.1386,-3.0407,-2.9792,-2.9792,-2.9792,-2.9792,-2.9792,-2.9792,-2.9792,-2.9792,-2.9792,-2.9792,-2.9792,-2.9792,-2.9792,-2.9792,-2.9792,-2.9792,-2.0164,-2.1422,-2.2254,-2.1856,-2.1285,-2.0573,-1.9478,-1.8264,-1.7082,-1.6122,-1.5454,-1.5264,-1.6073,-1.5577,-1.5904,-1.8597,-1.917,0.0,0.0,0.0,0.0,0.0,0.0,0.0,0.0,0.0,0.0,0.0,-3.6157,-3.6405,-3.6405,-3.6405,-3.6405,-3.6405,-3.6405,-3.6493,-3.6669,-3.6998,-3.7274,-3.745,-3.7826,-3.8002,-3.8002,-3.8002,-3.8002,-3.799,-3.7613,-3.745,-3.7412,-3.7036,-3.6933,-3.6908,-3.6732,-3.6669,-3.6644,-3.6468,-3.6405,-3.6405,-3.6405,-3.6405,-3.6405,-3.6405,-3.6405,-3.6405,-3.6405,-3.6405,-3.6405,-3.6405,-3.6405,-3.6405,-3.6405,-3.6405,-3.6317,-3.5893,-3.5621,-3.5245,-3.4361,-3.4022,-3.3734,-3.3181,-3.3124,-3.3124,-3.3124,-3.3124,-3.3124,-3.3124,-3.3124,-3.3124,-3.3124,-3.3124,-3.3124,-3.3124,-3.2403,-3.18,-3.1424,-3.0407,-2.9792,-2.9792,-2.9792,-2.9792,-2.9792,-2.9792,-2.9792,-2.9792,-2.9792,-2.9792,-2.9792,-2.9792,-2.9792,-2.9792,-2.9792,-2.9792,0.0,-1.9959,-2.0705,-2.0079,-1.9715,-1.9346,-1.882,-1.8028,-1.7234,-1.6613,-1.603,-1.5776,-1.6402,-1.6008,-1.6242,-1.8234,-1.9095,0.0,0.0,0.0,0.0,0.0,0.0,0.0,0.0,0.0,0.0,-3.547,-3.5868,-3.6144,-3.6405,-3.6405,-3.6405,-3.6405,-3.6405,-3.6405,-3.6405,-3.6744,-3.692,-3.6872,-3.7224,-3.7387,-3.7387,-3.7387,-3.7387,-3.7362,-3.7023,-3.692,0.0,-3.6556,-3.6405,-3.6405,-3.6405,-3.6405,-3.6405,-3.6405,-3.6405,-3.6405,-3.6405,-3.6405,-3.6405,-3.6405,-3.6405,-3.6405,-3.6405,-3.6405,-3.6405,-3.6405,-3.6405,-3.6405,-3.6405,-3.6207,-3.5968,-3.5583,-3.5182,-3.4693,-3.4048,-3.3734,-3.3483,-3.3144,-3.3124,-3.3124,-3.3124,-3.3124,-3.3124,-3.3124,-3.3124,-3.3124,-3.3124,-3.3124,-3.3124,-3.3124,-3.2554,-3.2077,-3.1725,-3.0721,-3.0105,-3.0105,-2.9905,-2.9792,-2.9792,-2.9792,-2.9792,-2.9792,-2.9792,-2.9792,-2.9792,-2.9792,-2.9792,-2.9792,-2.9792,-2.9905,0.0,0.0,0.0,0.0,-1.9183,-1.8694,-1.8204,-1.7689,0.0,-1.6613,-1.6051,-1.5866,-1.6501,-1.6137,-1.5985,-1.6726,0.0,0.0,0.0,0.0,0.0,0.0,0.0,0.0,0.0,0.0,0.0,-3.5307,-3.542,-3.5717,-3.6317,-3.6355,-3.6367,-3.6405,-3.6405,-3.6405,-3.6405,-3.6405,-3.6405,-3.6405,-3.6405,-3.6405,-3.6405,-3.6405,-3.6405,0.0,-3.6405,-3.6405,-3.6405,-3.6405,-3.6405,-3.6405,-3.6405,-3.6405,-3.6405,-3.6405,-3.6405,-3.6405,-3.6405,-3.6405,-3.6405,-3.6405,-3.6405,-3.6405,-3.6405,-3.6405,-3.6405,-3.6405,-3.6405,-3.6405,-3.6367,-3.5931,-3.5483,-3.5395,-3.465,-3.3884,-3.3847,-3.3432,-3.3124,-3.3124,-3.3124,-3.3124,-3.3124,-3.3124,-3.3124,-3.3124,-3.3124,-3.3124,-3.3124,-3.3124,-3.3124,-3.3124,-3.2591,-3.2277,-3.2277,-3.1286,-3.067,-3.067,-3.0193,-2.9892,-2.9854,-2.9854,-2.9829,-2.9792,-2.9792,-2.9792,-2.9792,-2.9792,-2.9792,-2.9792,-2.9792,-3.0093,-1.5535,0.0,-1.676,-1.7165,-1.7177,-1.7052,0.0,-1.6789,-1.6663,0.0,0.0,0.0,0.0,0.0,0.0,0.0,0.0,0.0,0.0,0.0,0.0,0.0,0.0,0.0,0.0,0.0,-3.401,-3.4274,-3.4675,-3.5107,-3.5658,-3.5683,-3.5931,-3.6405,-3.6405,-3.6405,-3.6405,-3.6405,-3.6405,-3.6405,-3.6405,-3.6405,-3.6405,-3.6405,-3.6405,-3.6405,-3.6405,-3.6405,-3.6405,-3.6405,-3.6405,-3.6405,-3.6405,-3.6405,-3.6405,-3.6405,-3.6405,-3.6405,-3.6405,-3.6405,-3.6405,-3.6405,-3.6405,-3.6405,-3.6405,-3.6405,-3.6405,-3.6405,-3.6405,-3.6304,-3.5843,-3.5596,-3.5282,-3.4487,-3.4085,-3.3784,-3.337,-3.3212,-3.3124,-3.3124,-3.3124,-3.3124,-3.3124,-3.3124,-3.3124,-3.3124,-3.3124,-3.3124,-3.3124,-3.3124,-3.3124,-3.3124,-3.2955,-3.2867,-3.2867,-3.1851,-3.121,-3.121,-3.1085,-3.0834,-3.0432,-3.0419,-3.0218,-2.9804,-2.9792,-2.9792,-2.9792,-2.9792,-2.9792,-2.9792,-2.9792,-3.0093,-1.4387,-1.5286,-1.6145,-1.6425,-1.6722,-1.6911,-1.6911,0.0,0.0,0.0,0.0,0.0,0.0,0.0,0.0,0.0,0.0,0.0,0.0,0.0,0.0,0.0,0.0,0.0,0.0,0.0,-3.3621,-3.3884,-3.4173,-3.4587,-3.5094,-3.5119,-3.5303,-3.5604,-3.5855,-3.6107,-3.6405,-3.6405,-3.6405,-3.6405,-3.6405,-3.6405,-3.6405,-3.6405,-3.6405,-3.6405,-3.6405,-3.6405,-3.6405,-3.6405,-3.6405,-3.6405,-3.6405,-3.6405,-3.6405,-3.6405,-3.6405,-3.6405,-3.6405,-3.6405,-3.6405,-3.6405,-3.6405,-3.6405,-3.6405,-3.6405,-3.6405,-3.6405,-3.6405,-3.6279,-3.5646,-3.5307,-3.4906,-3.411,-3.3709,-3.3432,-3.3144,-3.3124,-3.3124,-3.3124,-3.3124,-3.3124,-3.3124,-3.3124,-3.3124,-3.3124,-3.3124,-3.3124,-3.3124,-3.3124,-3.3124,-3.3124,-3.3124,-3.3124,-3.3124,-3.2516,-3.2051,-3.1788,-3.1537,-3.126,-3.0984,-3.0746,-3.0357,-2.9804,-2.9792,-2.9792,-2.9792,-3.0043,-3.0168,-3.0181,-3.0419,-3.0821,-1.4035,-1.5349,-1.6475,-1.6387,-1.6886,-1.7385,-1.7285,0.0,0.0,0.0,0.0,0.0,0.0,0.0,0.0,0.0,0.0,0.0,0.0,0.0,0.0,0.0,0.0,0.0,0.0,-3.3124,-3.3269,-3.3734,-3.3771,-3.401,-3.4562,-3.46,-3.4638,-3.468,-3.5132,-3.5642,-3.6153,-3.6317,-3.6405,-3.6405,-3.6405,-3.6405,-3.6405,-3.6405,-3.6405,-3.6405,-3.6405,-3.6405,-3.6405,-3.6405,-3.6405,-3.6405,-3.6405,-3.6405,-3.6405,-3.6405,-3.6405,-3.6405,-3.6405,-3.6405,-3.6405,-3.6405,-3.6355,-3.6304,-3.638,-3.6292,-3.6179,-3.6254,-3.6279,-3.6107,-3.552,-3.4969,-3.4462,-3.3909,-3.342,-3.3124,-3.3124,-3.3124,-3.3124,-3.3124,-3.3124,-3.3124,-3.3124,-3.3124,-3.3124,-3.3124,-3.3124,-3.3124,-3.3124,-3.3124,-3.3124,-3.3124,-3.3124,-3.3124,-3.3124,-3.3124,-3.2867,-3.2378,-3.1901,-3.1612,-3.1524,-3.0934,-3.0394,-2.993,-2.9829,-2.9829,-2.9917,-3.0382,-3.0658,-3.0746,-3.1185,-3.1687,-1.4494,-1.5618,-1.6387,-1.5944,-1.6631,-1.7272,-1.676,0.0,0.0,0.0,0.0,0.0,0.0,0.0,0.0,0.0,0.0,0.0,0.0,0.0,0.0,0.0,0.0,0.0,-3.3074,-3.3124,-3.3106,-3.3206,-3.3206,-3.3445,-3.3997,-3.4022,-3.4236,-3.4713,-3.4756,-3.4889,-3.4977,-3.594,-3.6405,-3.6405,-3.6405,-3.6405,-3.6405,-3.6405,-3.6405,-3.6405,-3.6405,-3.6405,-3.6405,-3.6405,-3.6405,-3.6405,-3.6405,-3.6405,-3.6405,-3.6405,-3.6405,-3.6405,-3.6405,-3.6405,-3.6405,-3.6405,-3.6044,-3.5708,-3.6267,-3.5717,-3.5077,-3.5495,-3.5621,-3.5495,-3.4944,-3.4437,-3.3884,-3.3332,-3.3174,-3.3124,-3.3124,-3.3124,-3.3124,-3.3124,-3.3124,-3.3124,-3.3124,-3.3124,-3.3124,-3.3124,-3.3124,-3.3124,-3.3124,-3.3124,-3.3124,-3.3124,-3.3124,-3.3124,-3.3124,-3.3124,-3.3043,-3.2955,-3.2867,-3.2604,-3.2102,-3.1135,-3.057,-3.0495,-3.003,-3.0018,-3.0495,-3.057,-3.0834,-3.1273,-3.1348,-3.1687,-1.3848,-1.5003,-1.6019,-1.5756,-1.6986,-1.8279,-1.8292,0.0,0.0,0.0,0.0,0.0,0.0,0.0,0.0,0.0,0.0,0.0,0.0,0.0,0.0,0.0,0.0,-3.2315,-3.2591,-3.2893,-3.3124,-3.3124,-3.3124,-3.3224,-3.3432,-3.3458,-3.3571,-3.3822,-3.4123,-3.4274,-3.4274,-3.5077,-3.5479,-3.5479,-3.578,-3.5918,-3.5931,-3.6267,-3.6405,-3.6405,-3.6405,-3.6405,-3.6405,-3.6405,-3.6405,-3.6405,-3.6405,-3.6405,-3.6405,-3.6405,-3.6169,-3.5918,-3.5918,-3.573,-3.5479,-3.5479,-3.5303,-3.5107,-3.5403,-3.5127,-3.4731,-3.4981,-3.5056,-3.4931,-3.4424,-3.4085,-3.3759,-3.3206,-3.3124,-3.3124,-3.3124,-3.3124,-3.3124,-3.3124,-3.3124,-3.3124,-3.3124,-3.3124,-3.3124,-3.3124,-3.3124,-3.3124,-3.3124,-3.3124,-3.3124,-3.3124,-3.3124,-3.3124,-3.3124,-3.3124,-3.3124,-3.3124,-3.3124,-3.2817,-3.224,-3.1738,-3.1336,-3.1035,-3.0783,-3.0783,-3.1035,-3.1336,-3.1599,-3.1838,-3.2152,-3.2441,-1.3529,-1.4638,-1.5756,-1.6019,0.0,-1.882,-1.9623,-1.9397,0.0,0.0,0.0,0.0,0.0,0.0,0.0,0.0,0.0,0.0,0.0,0.0,0.0,0.0,-3.1336,-3.1888,-3.2001,-3.2541,-3.288,-3.288,-3.3006,-3.3124,-3.3124,-3.3124,-3.3124,-3.3124,-3.3483,-3.3709,-3.3709,-3.4123,-3.4462,-3.468,-3.5107,-3.5307,-3.532,-3.578,-3.5981,-3.5981,-3.5981,-3.5981,-3.5981,-3.5981,-3.5981,-3.5981,-3.5981,-3.5981,-3.5981,-3.5981,-3.5717,-3.5307,-3.5307,-3.5031,-3.468,-3.468,-3.4638,-3.4562,-3.4675,-3.4537,-3.4361,-3.45,-3.4437,-3.4274,-3.3972,-3.3809,-3.3608,-3.3224,-3.3124,-3.3124,-3.3124,-3.3124,-3.3124,-3.3124,-3.3124,-3.3124,-3.3124,-3.3124,-3.3124,-3.3124,-3.3124,-3.3124,-3.3124,-3.3124,-3.3124,-3.3124,-3.3124,-3.3124,-3.3124,-3.3124,-3.3124,-3.3124,-3.3124,-3.288,-3.2441,-3.229,-3.2014,-3.1587,-3.1449,-3.1449,-3.1587,-3.2001,-3.2277,-3.2428,-3.2867,-3.3124,-1.4494,-1.5236,-1.5944,-1.6999,-1.741,0.0,-1.9447,-1.9397,0.0,-2.1041,0.0,0.0,0.0,0.0,0.0,0.0,0.0,0.0,0.0,0.0,0.0,-3.0557,-3.0683,-3.0922,-3.1399,-3.1951,-3.2277,-3.2277,-3.2767,-3.3124,-3.3124,-3.3124,-3.3124,-3.3124,-3.3162,-3.3174,-3.3174,-3.3224,-3.3709,-3.468,-3.4718,-3.4776,-3.4776,-3.4781,-3.4839,-3.4839,-3.4839,-3.4839,-3.4839,-3.4839,-3.4839,-3.4839,-3.4839,-3.4839,-3.4839,-3.4839,-3.4768,-3.4776,-3.4776,-3.4705,-3.468,-3.468,-3.4374,-3.406,-3.4562,-3.401,-3.3307,-3.3822,-3.3583,-3.3307,-3.3771,-3.352,-3.3174,-3.3124,-3.3124,-3.3124,-3.3124,-3.3124,-3.3124,-3.3124,-3.3124,-3.3124,-3.3124,-3.3124,-3.3124,-3.3124,-3.3124,-3.3124,-3.3124,-3.3124,-3.3124,-3.3124,-3.3124,-3.3124,-3.3124,-3.3124,-3.3124,-3.3124,-3.3124,-3.3056,-3.3061,-3.2503,-3.219,-3.2152,-3.165,-3.1637,-3.2152,-3.219,-3.2491,-3.3061,-3.3056,-3.3124,-1.3729,-1.5003,-1.6308,-1.6735,-1.7877,0.0,0.0,-2.123,-2.2029,-2.3703,-2.4494,0.0,0.0,0.0,0.0,0.0,0.0,0.0,0.0,0.0,-2.9867,-3.008,-3.0407,-3.0696,-3.0884,-3.1386,-3.17,-3.17,-3.2215,-3.2541,-3.2541,-3.288,-3.3124,-3.3124,-3.3124,-3.3124,-3.3124,-3.3124,-3.3282,-3.3709,-3.4048,-3.4211,-3.4223,-3.4562,-3.468,-3.468,-3.468,-3.468,-3.468,-3.468,-3.468,-3.468,-3.468,-3.468,-3.468,-3.468,-3.4512,-3.4211,-3.4211,-3.3985,-3.3709,-3.3709,-3.3558,-3.3432,-3.3633,-3.3407,-3.3162,-3.3332,-3.3244,-3.3174,-3.3332,-3.3232,-3.3124,-3.3124,-3.3124,-3.3124,-3.3124,-3.3124,-3.3124,-3.3124,-3.3124,-3.3124,-3.3124,-3.3124,-3.3124,-3.3124,-3.3124,-3.3124,-3.3124,-3.3124,-3.3124,-3.3124,-3.3124,-3.3124,-3.3124,-3.3124,-3.3124,-3.3124,-3.3124,-3.3124,-3.3124,-3.2867,-3.2754,-3.2754,-3.2541,-3.2541,-3.2754,-3.2754,-3.2867,-3.3124,-3.3124,-3.3124,-1.3483,-1.4852,-1.6325,0.0,0.0,0.0,-2.1631,-2.2706,-2.3898,-2.5749,-2.6487,0.0,0.0,0.0,0.0,0.0,0.0,0.0,0.0,0.0,-2.9792,-2.9792,-3.0118,-3.0357,-3.0357,-3.0834,-3.1148,-3.1148,-3.165,-3.1951,-3.1951,-3.2328,-3.2629,-3.2805,-3.2805,-3.2893,-3.3124,-3.3124,-3.3124,-3.3081,-3.3458,-3.3633,-3.3658,-3.4035,-3.4198,-3.4198,-3.4198,-3.4198,-3.4198,-3.4198,-3.4198,-3.4198,-3.4198,-3.4198,-3.4198,-3.4198,-3.396,-3.3633,-3.3633,-3.3395,-3.3124,-3.3124,-3.3124,-3.3124,-3.3124,-3.3124,-3.3124,-3.3124,-3.3124,-3.3124,-3.3124,-3.3124,-3.3124,-3.3124,-3.3124,-3.3124,-3.3124,-3.3124,-3.3124,-3.3124,-3.3124,-3.3124,-3.3124,-3.3124,-3.3124,-3.3124,-3.3124,-3.3124,-3.3124,-3.3124,-3.3124,-3.3124,-3.3124,-3.3124,-3.3124,-3.3124,-3.3124,-3.3124,-3.3124,-3.3124,-3.3124,-3.3124,-3.3124,-3.3124,-3.3124,-3.3124,-3.3124,-3.3124,-3.3124,-3.3124,-3.3124,-3.3124,-1.4103,-1.4884,0.0,0.0,0.0,0.0,-2.2493,-2.359,-2.4632,-2.6854,0.0,-2.7469,0.0,0.0,0.0,0.0,0.0,0.0,0.0,-2.9792,-2.9792,-2.9792,-2.9792,-2.9792,-2.9792,-3.0281,-3.0608,-3.0608,-3.1085,-3.1386,-3.1386,-3.1386,-3.1637,-3.219,-3.2202,-3.2478,-3.3099,-3.3111,-3.3111,-3.3111,-3.3124,-3.3124,-3.3124,-3.3124,-3.3124,-3.3124,-3.3124,-3.3124,-3.3124,-3.3124,-3.3124,-3.3124,-3.3124,-3.3124,-3.3124,-3.3124,-3.3124,-3.3124,-3.3124,-3.3124,-3.3124,-3.3124,-3.3124,-3.3124,-3.3124,-3.3124,-3.3124,-3.3124,-3.3124,-3.3124,-3.3124,-3.3124,-3.3124,-3.3124,-3.3124,-3.3124,-3.3124,-3.3124,-3.3124,-3.3124,-3.3124,-3.3124,-3.3124,-3.3124,-3.3124,-3.3124,-3.3124,-3.3124,-3.3124,-3.3124,-3.3124,-3.3124,-3.3124,-3.3124,-3.3124,-3.3124,-3.3124,-3.3124,-3.3124,-3.3124,-3.3124,-3.3124,-3.3124,-3.3124,-3.3124,-3.3124,-3.3124,-3.3124,-3.3124,-3.3124,-3.3124,-3.3124,-1.4186,0.0,0.0,0.0,0.0,0.0,0.0,-2.4456,0.0,0.0,0.0,0.0,0.0,0.0,0.0,-2.8863,-2.9415,-2.9792,-2.9792,-2.9792,-2.9792,-2.9792,-2.9792,-2.9792,-2.9792,-2.9942,-3.0043,-3.0043,-3.0532,-3.0846,-3.0846,-3.1198,-3.1461,-3.1625,-3.1637,-3.1712,-3.1888,-3.2277,-3.2466,-3.2466,-3.288,-3.3124,-3.3124,-3.3124,-3.3124,-3.3124,-3.3124,-3.3124,-3.3124,-3.3124,-3.3124,-3.3124,-3.3124,-3.3124,-3.3124,-3.3124,-3.3124,-3.3124,-3.3124,-3.3124,-3.3124,-3.3124,-3.3124,-3.3124,-3.3124,-3.3124,-3.3124,-3.3124,-3.3124,-3.3124,-3.3124,-3.3124,-3.3124,-3.3124,-3.3124,-3.3124,-3.3124,-3.3124,-3.3124,-3.3124,-3.3124,-3.3124,-3.3124,-3.3124,-3.3124,-3.3124,-3.3124,-3.3124,-3.3124,-3.3124,-3.3124,-3.3124,-3.3124,-3.3124,-3.3124,-3.3124,-3.3124,-3.3124,-3.3124,-3.3124,-3.3124,-3.3124,-3.3124,-3.3124,-3.3124,-3.3124,-3.3124,-3.3124,-3.3124,-3.3124,-3.3124,-3.3124,-1.4979,0.0,0.0,0.0,0.0,0.0,0.0,0.0,0.0,0.0,0.0,0.0,0.0,-2.9051,0.0,-2.9239,-2.9566,-2.9792,-2.9792,-2.9792,-2.9792,-2.9792,-2.9792,-2.9792,-2.9792,-2.9792,-2.9792,-2.9792,-3.0093,-3.0281,-3.0281,-3.0583,-3.0859,-3.1072,-3.1085,-3.1185,-3.1386,-3.1725,-3.1888,-3.1888,-3.224,-3.2516,-3.2742,-3.2968,-3.3124,-3.3124,-3.3124,-3.3124,-3.3124,-3.3124,-3.3124,-3.3124,-3.3124,-3.3124,-3.3124,-3.3124,-3.3124,-3.3124,-3.3124,-3.3124,-3.3124,-3.3124,-3.3124,-3.3124,-3.3124,-3.3124,-3.3124,-3.3124,-3.3124,-3.3124,-3.3124,-3.3124,-3.3124,-3.3124,-3.3124,-3.3124,-3.3124,-3.3124,-3.3124,-3.3124,-3.3124,-3.3124,-3.3124,-3.3124,-3.3124,-3.3124,-3.3124,-3.3124,-3.3124,-3.3124,-3.3124,-3.3124,-3.3124,-3.3124,-3.3124,-3.3124,-3.3124,-3.3124,-3.3124,-3.3124,-3.3124,-3.3124,-3.3124,-3.3124,-3.3124,-3.3124,-3.3124,-3.3124,-3.3124,-3.3124,-3.3124,-3.3124,0.0,0.0,0.0,0.0,0.0,0.0,0.0,0.0,0.0,0.0,0.0,0.0,0.0,-2.9365,-2.9176,-2.9704,-2.9792,-2.9792,-2.9792,-2.9792,-2.9792,-2.9792,-2.9792,-2.9792,-2.9792,-2.9792,-2.9792,-2.9792,-2.9792,-2.9792,-2.9792,-2.9792,-3.0018,-3.052,-3.0545,-3.0771,-3.1235,-3.1298,-3.1323,-3.1323,-3.1361,-3.165,-3.2152,-3.2729,-3.3074,-3.3124,-3.3124,-3.3124,-3.3124,-3.3124,-3.3124,-3.3124,-3.3124,-3.3124,-3.3124,-3.3124,-3.3124,-3.3124,-3.3124,-3.3124,-3.3124,-3.3124,-3.3124,-3.3124,-3.3124,-3.3124,-3.3124,-3.3124,-3.3124,-3.3124,-3.3124,-3.3124,-3.3124,-3.3124,-3.3124,-3.3124,-3.3124,-3.3124,-3.3124,-3.3124,-3.3124,-3.3124,-3.3124,-3.3124,-3.3124,-3.3124,-3.3124,-3.3124,-3.3124,-3.3124,-3.3124,-3.3124,-3.3124,-3.3124,-3.3124,-3.3124,-3.3124,-3.3124,-3.3124,-3.3124,-3.3124,-3.3124,-3.3124,-3.3124,-3.3124,-3.3124,-3.3124,-3.3124,-3.3124,-3.3124,-3.3124,-3.3124,0.0,0.0,0.0,0.0,0.0,0.0,0.0,0.0,0.0,0.0,0.0,0.0,0.0,-2.9691,-2.9641,-2.9779,-2.9792,-2.9792,-2.9792,-2.9792,-2.9792,-2.9792,-2.9792,-2.9792,-2.9792,-2.9792,-2.9792,-2.9792,-2.9792,-2.9792,-2.9792,-2.9792,-2.9842,-2.9967,-2.9967,-3.003,-3.0131,-3.057,-3.0783,-3.0783,-3.1198,-3.1449,-3.1587,-3.2139,-3.2641,-3.3124,-3.3124,-3.3124,-3.3124,-3.3124,-3.3124,-3.3124,-3.3124,-3.3124,-3.3124,-3.3124,-3.3124,-3.3124,-3.3124,-3.3124,-3.3124,-3.3124,-3.3124,-3.3124,-3.3124,-3.3124,-3.3124,-3.3124,-3.3124,-3.3124,-3.3124,-3.3124,-3.3124,-3.3124,-3.3124,-3.3124,-3.3124,-3.3124,-3.3124,-3.3124,-3.3124,-3.3124,-3.3124,-3.3124,-3.3124,-3.3124,-3.3124,-3.3124,-3.3124,-3.3124,-3.3124,-3.3124,-3.3124,-3.3124,-3.3124,-3.3124,-3.3124,-3.3124,-3.3124,-3.3124,-3.3124,-3.3124,-3.3124,-3.3124,-3.3124,-3.3124,-3.3124,-3.3124,-3.3124,-3.3124,-3.3124,-3.3124,0.0,0.0,0.0,0.0,0.0,0.0,0.0,0.0,0.0,0.0,0.0,0.0,0.0,-2.9792,-2.9792,-2.9792,-2.9792,-2.9792,-2.9792,-2.9792,-2.9792,-2.9792,-2.9792,-2.9792,-2.9792,-2.9792,-2.9792,-2.9792,-2.9792,-2.9792,-2.9792,-2.9792,-2.9792,-2.9792,-2.9792,-2.9792,-2.9792,-3.008,-3.0218,-3.0231,-3.0495,-3.0771,-3.1035,-3.1574,-3.1989,-3.2265,-3.2265,-3.2416,-3.2667,-3.2667,-3.283,-3.3124,-3.3124,-3.3124,-3.3124,-3.3124,-3.3124,-3.3124,-3.3124,-3.3124,-3.3124,-3.3124,-3.3124,-3.3124,-3.3124,-3.3124,-3.3124,-3.3124,-3.3124,-3.3124,-3.3124,-3.3124,-3.3124,-3.3124,-3.3124,-3.3124,-3.3124,-3.3124,-3.3124,-3.3124,-3.3124,-3.3124,-3.3124,-3.3124,-3.3124,-3.3124,-3.3124,-3.3124,-3.3124,-3.3124,-3.3124,-3.3124,-3.3124,-3.3124,-3.3124,-3.3124,-3.3124,-3.3124,-3.3124,-3.3124,-3.3124,-3.3124,-3.3124,-3.3124,-3.3124,-3.3124,-3.3124,-3.3124,-3.3124,-3.3124,-3.3124,-3.3124,0.0,0.0,0.0,0.0,0.0,0.0,0.0,0.0,0.0,0.0,0.0,0.0,0.0,-2.9729,-2.9792,-2.9792,-2.9792,-2.9792,-2.9792,-2.9792,-2.9792,-2.9792,-2.9792,-2.9792,-2.9792,-2.9792,-2.9792,-2.9792,-2.9792,-2.9792,-2.9792,-2.9792,-2.9792,-2.9792,-2.9792,-2.9792,-2.9792,-2.9792,-2.9792,-2.9792,-2.9792,-3.003,-3.0482,-3.0922,-3.121,-3.1386,-3.1386,-3.165,-3.2077,-3.2077,-3.2353,-3.2847,-3.2893,-3.293,-3.2943,-3.3043,-3.3124,-3.3124,-3.3124,-3.3124,-3.3124,-3.3124,-3.3124,-3.3124,-3.3124,-3.3124,-3.3124,-3.3124,-3.3124,-3.3124,-3.3124,-3.3124,-3.3124,-3.3124,-3.3124,-3.3124,-3.3124,-3.3124,-3.3124,-3.3124,-3.3124,-3.3124,-3.3124,-3.3124,-3.3124,-3.3124,-3.3124,-3.3124,-3.3124,-3.3124,-3.3124,-3.3124,-3.3124,-3.3124,-3.3124,-3.3124,-3.3124,-3.3124,-3.3124,-3.3124,-3.3124,-3.3124,-3.3124,-3.3124,-3.3124,-3.3124,-3.3124,-3.3124,-3.3124,-3.3124,-3.3124,-3.3124,0.0,0.0,0.0,0.0,0.0,0.0,0.0,0.0,0.0,0.0,0.0,0.0,0.0,-2.9453,-2.9792,-2.9792,-2.9792,-2.9792,-2.9792,-2.9792,-2.9792,-2.9792,-2.9792,-2.9792,-2.9792,-2.9792,-2.9792,-2.9792,-2.9792,-2.9792,-2.9792,-2.9792,-2.9792,-2.9792,-2.9792,-2.9792,-2.9792,-2.9792,-2.9792,-2.9792,-2.9792,-2.9829,-2.9905,-2.998,-3.052,-3.1386,-3.1386,-3.1436,-3.1499,-3.1499,-3.1549,-3.1662,-3.2139,-3.2328,-3.239,-3.2893,-3.3124,-3.3124,-3.3124,-3.3124,-3.3124,-3.3124,-3.3124,-3.3124,-3.3124,-3.3124,-3.3124,-3.3124,-3.3124,-3.3124,-3.3124,-3.3124,-3.3124,-3.3124,-3.3124,-3.3124,-3.3124,-3.3124,-3.3124,-3.3124,-3.3124,-3.3124,-3.3124,-3.3124,-3.3124,-3.3124,-3.3124,-3.3124,-3.3124,-3.3124,-3.3124,-3.3124,-3.3124,-3.3124,-3.3124,-3.3124,-3.3124,-3.3124,-3.3124,-3.3124,-3.3124,-3.3124,-3.3124,-3.3124,-3.3124,-3.3124,-3.3124,-3.3124,-3.3124,-3.3124,-3.3124,-3.3124,0.0,0.0,0.0,0.0,0.0,0.0,0.0,0.0,0.0,0.0,0.0,0.0,0.0,-2.8925,-2.9315,-2.9315,-2.9578,-2.9792,-2.9792,-2.9792,-2.9792,-2.9792,-2.9792,-2.9792,-2.9792,-2.9792,-2.9792,-2.9792,-2.9792,-2.9792,-2.9792,-2.9792,-2.9792,-2.9792,-2.9792,-2.9792,-2.9792,-2.9792,-2.9792,-2.9792,-2.9792,-2.9792,-2.9792,-2.9792,-3.0055,-3.0495,-3.0495,-3.067,-3.0959,-3.0959,-3.1122,-3.1411,-3.165,-3.175,-3.1788,-3.2039,-3.2127,-3.2177,-3.2491,-3.2591,-3.2641,-3.2968,-3.3124,-3.3124,-3.3124,-3.3124,-3.3124,-3.3124,-3.3124,-3.3124,-3.3124,-3.3124,-3.3124,-3.3124,-3.3124,-3.3124,-3.3124,-3.3124,-3.3124,-3.3124,-3.3124,-3.3124,-3.3124,-3.3124,-3.3124,-3.3124,-3.3124,-3.3124,-3.3124,-3.3124,-3.3124,-3.3124,-3.3124,-3.3124,-3.3124,-3.3124,-3.3124,-3.3124,-3.3124,-3.3124,-3.3124,-3.3124,-3.3124,-3.3124,-3.3124,-3.2918,-3.2591,-3.2918,-3.2918,-3.2604,-3.293,-3.3124,0.0,0.0,0.0,0.0,0.0,0.0,0.0,0.0,0.0,0.0,0.0,0.0,0.0,-2.8247,-2.8725,-2.8863,-2.9289,-2.9628,-2.9779,-2.9792,-2.9792,-2.9792,-2.9792,-2.9792,-2.9792,-2.9792,-2.9792,-2.9792,-2.9792,-2.9792,-2.9792,-2.9792,-2.9792,-2.9792,-2.9792,-2.9792,-2.9792,-2.9792,-2.9792,-2.9792,-2.9792,-2.9792,-2.9792,-2.9792,-2.9792,-2.9792,-2.9792,-3.003,-3.0407,-3.0407,-3.0633,-3.0997,-3.1135,-3.1198,-3.121,-3.1336,-3.1386,-3.1449,-3.1863,-3.2001,-3.2102,-3.2667,-3.2855,-3.288,-3.3031,-3.3124,-3.3124,-3.3124,-3.3124,-3.3124,-3.3124,-3.3124,-3.3124,-3.3124,-3.3313,-3.3513,-3.3513,-3.3283,-3.3197,-3.3441,-3.3283,-3.3124,-3.3124,-3.3124,-3.3124,-3.3124,-3.3124,-3.3124,-3.3124,-3.3124,-3.3124,-3.3124,-3.3124,-3.3124,-3.3124,-3.3124,-3.3124,-3.3124,-3.3124,-3.3124,-3.3124,-3.3124,-3.3048,-3.2855,-3.2855,-3.2641,-3.2215,-3.2641,-3.2641,-3.2227,-3.2805,-3.3124,0.0,0.0,0.0,0.0,0.0,0.0,0.0,0.0,0.0,0.0,0.0,0.0,-2.6575,-2.7419,-2.8323,-2.8813,-2.8913,-2.9164,-2.9716,-2.9792,-2.9792,-2.9792,-2.9792,-2.9792,-2.9792,-2.9792,-2.9792,-2.9792,-2.9792,-2.9792,-2.9792,-2.9792,-2.9792,-2.9792,-2.9792,-2.9792,-2.9792,-2.9792,-2.9792,-2.9792,-2.9792,-2.9792,-2.9792,-2.9792,-2.9792,-2.9792,-2.9792,-2.9817,-2.9829,-2.9829,-2.9854,-2.993,-3.0457,-3.0658,-3.0721,-3.121,-3.1386,-3.1386,-3.1424,-3.1436,-3.1524,-3.2077,-3.2252,-3.2353,-3.2918,-3.3124,-3.3124,-3.3124,-3.3124,-3.3124,-3.3124,-3.3124,-3.3124,-3.3124,-3.3869,-3.4622,-3.4622,-3.3839,-3.3398,-3.4428,-3.3797,-3.3124,-3.3124,-3.3124,-3.3124,-3.3124,-3.3124,-3.3124,-3.3124,-3.3124,-3.3124,-3.3124,-3.3124,-3.3124,-3.3124,-3.3124,-3.3124,-3.3124,-3.3124,-3.3124,-3.3124,-3.3124,-3.2817,-3.2265,-3.2252,-3.224,-3.2215,-3.224,-3.224,-3.2227,-3.2805,-3.3124,0.0,0.0,0.0,0.0,0.0,0.0,0.0,0.0,0.0,0.0,0.0,0.0,-2.59,-2.6816,-2.7645,-2.7846,-2.8172,-2.8473,-2.8674,-2.9013,-2.9239,-2.9239,-2.9566,-2.9792,-2.9792,-2.9792,-2.9792,-2.9792,-2.9792,-2.9792,-2.9792,-2.9792,-2.9792,-2.9792,-2.9792,-2.9792,-2.9792,-2.9792,-2.9792,-2.9792,-3.0419,-3.0381,-2.983,-3.0419,-3.0381,-2.9792,-2.9792,-2.9792,-2.9792,-2.9792,-2.9792,-2.9817,-3.0005,-3.0093,-3.0105,-3.0294,-3.0369,-3.0419,-3.0771,-3.0896,-3.0984,-3.1512,-3.1687,-3.1788,-3.2353,-3.2516,-3.276,-3.3808,-3.382,-3.3645,-3.4352,-3.4193,-3.3873,-3.3873,-3.3662,-3.3794,-3.4845,-3.4563,-3.4233,-3.4622,-3.3839,-3.3124,-3.3124,-3.3124,-3.3124,-3.3124,-3.3124,-3.3124,-3.3124,-3.3124,-3.3124,-3.3124,-3.3124,-3.3124,-3.3124,-3.3124,-3.3124,-3.3124,-3.3124,-3.3124,-3.3124,-3.2717,-3.2428,-3.2215,-3.1537,-3.1185,-3.1185,-3.1524,-3.1512,-3.121,-3.2102,-3.2516,-1.2432,0.0,0.0,0.0,0.0,0.0,0.0,0.0,0.0,0.0,0.0,0.0,0.0,-2.6312,-2.7129,-2.7289,-2.7595,-2.7896,-2.8084,-2.8423,-2.8687,-2.8863,-2.9264,-2.9578,-2.9779,-2.9792,-2.9792,-2.9792,-2.9792,-2.9792,-2.9792,-2.9792,-2.9792,-2.9792,-2.9792,-2.9792,-2.9792,-2.9792,-2.9792,-2.9792,-3.0419,-3.0558,-3.0279,-3.0932,-3.1044,-3.0746,-3.0746,-3.0394,-2.9792,-2.9792,-2.9792,-2.9792,-2.9792,-2.9792,-2.9792,-2.9792,-2.9792,-2.9842,-3.0218,-3.0331,-3.0459,-3.1309,-3.1594,-3.1736,-3.2623,-3.2913,-3.3152,-3.4246,-3.4233,-3.4057,-3.4783,-3.4634,-3.4369,-3.4757,-3.4317,-3.4224,-3.5709,-3.4882,-3.4027,-3.4596,-3.4108,-3.3513,-3.3154,-3.367,-3.4024,-3.367,-3.3898,-3.4137,-3.4137,-3.3869,-3.3641,-3.3641,-3.3313,-3.3124,-3.3124,-3.3124,-3.3124,-3.3124,-3.3124,-3.2993,-3.2792,-3.2416,-3.2039,-3.1687,-3.0972,-3.052,-3.0344,-3.0871,-3.0947,-3.0633,-3.1524,-3.2039,0.0,0.0,0.0,0.0,0.0,0.0,0.0,0.0,0.0,0.0,0.0,0.0,0.0,-2.5839,-2.6804,-2.7192,-2.7266,-2.748,-2.802,-2.8108,-2.8309,-2.885,-2.8925,-2.9126,-2.973,-2.9741,-2.9741,-2.978,-2.9741,-2.9754,-2.9805,-2.9779,-2.9792,-2.9792,-2.9792,-2.9792,-2.983,-2.983,-2.9869,-2.9895,-2.9895,-3.0394,-3.1254,-3.1278,-3.1742,-3.2593,-3.2593,-3.1586,-2.9895,-2.9895,-2.9895,-2.9895,-2.9895,-2.9895,-2.9895,-2.9895,-2.9895,-2.9895,-2.9895,-2.9895,-3.0125,-3.1548,-3.2011,-3.2308,-3.381,-3.4266,-3.4279,-3.4331,-3.4317,-3.4303,-3.4327,-3.4327,-3.4589,-3.5632,-3.5863,-3.6128,-3.7119,-3.464,-3.2721,-3.4423,-3.4706,-3.4402,-3.333,-3.487,-3.5854,-3.4897,-3.5588,-3.6198,-3.6158,-3.5278,-3.4705,-3.4664,-3.3713,-3.3124,-3.3124,-3.3124,-3.3111,-3.3056,-3.3056,-3.2792,-3.2215,-3.2177,-3.1675,-3.0633,-3.0595,-3.0331,-2.9792,-3.0331,-3.0595,-3.0608,-3.1135,-3.1687,-1.3232,0.0,0.0,0.0,0.0,0.0,0.0,0.0,0.0,0.0,0.0,0.0,0.0,-2.5654,-2.6154,-2.6271,-2.6531,-2.6971,-2.7704,-2.8157,-2.8664,-2.9441,-2.9368,-2.9317,-2.9473,-2.8955,-2.8845,0.0,-2.8918,-2.9022,-3.001,-2.9923,-2.9792,-2.9792,-2.9792,-3.0139,-3.0796,-3.0796,-3.1156,-3.1829,-3.25,-3.2607,-3.2249,-3.2925,-3.2996,-3.2593,-3.2593,-3.2321,-3.1829,-3.1829,-3.1829,-3.1829,-3.1829,-3.1829,-3.1829,-3.1829,-3.1829,-3.1829,-3.1829,-3.1829,-3.1892,-3.2296,-3.2409,-3.2604,-3.339,-3.3656,-3.3901,-3.5111,-3.5109,-3.4797,-3.5078,-3.518,-3.5248,-3.5547,-3.5049,-3.4724,-3.5459,-3.4259,-3.3555,-3.5246,-3.5339,-3.5056,-3.4739,-3.5541,-3.6132,-3.5814,-3.6013,-3.5934,-3.521,-3.4856,-3.4387,-3.3641,-3.3283,-3.3124,-3.3124,-3.3124,-3.2893,-3.2478,-3.2453,-3.2202,-3.1637,-3.126,-3.0922,-3.062,-3.0218,-2.9942,-2.9792,-2.9942,-3.0018,-3.0043,-3.0959,-3.1687,-1.4634,-1.5201,-1.6069,0.0,0.0,0.0,0.0,-1.9196,0.0,0.0,0.0,0.0,0.0,0.0,-2.53,-2.5579,-2.6003,-2.6524,-2.7268,-2.7822,-2.8559,-2.9676,-2.9652,-2.9657,-2.9864,-2.9451,-2.9218,-2.9381,-2.9254,-2.9504,-3.0316,-3.0224,-3.0246,-3.0555,-3.0568,-3.0956,-3.1779,-3.1779,-3.2069,-3.2593,-3.3136,-3.3345,-3.3206,-3.3739,-3.3925,-3.3802,-3.3802,-3.3802,-3.3802,-3.3802,-3.3325,-3.2593,-3.2593,-3.2593,-3.2593,-3.2593,-3.2593,-3.2593,-3.2593,-3.2593,-3.2664,-3.3066,-3.3171,-3.3311,-3.4043,-3.4262,-3.4487,-3.5461,-3.5453,-3.519,-3.5431,-3.5504,-3.5504,-3.5504,-3.5052,-3.4727,-3.5073,-3.4687,-3.4462,-3.5105,-3.5409,-3.5507,-3.5339,-3.6061,-3.6755,-3.6859,-3.6627,-3.6266,-3.5709,-3.5117,-3.4286,-3.3183,-3.2862,-3.2616,-3.239,-3.2378,-3.2227,-3.1888,-3.1863,-3.1625,-3.1085,-3.0783,-3.0507,-3.0281,-2.9955,-2.9792,-2.9792,-2.9792,-2.9792,-2.9817,-3.067,-3.1348,-1.6068,-1.6437,-1.7288,0.0,0.0,0.0,-2.0013,-1.9728,-1.9316,0.0,0.0,0.0,0.0,0.0,-2.4275,-2.4803,-2.5409,-2.6095,-2.6934,-2.7466,-2.8293,-2.9721,-2.9804,-2.9974,-3.0502,-3.0471,-3.0167,-2.9566,-3.0235,-3.06,-3.0533,-3.0568,-3.0877,-3.1481,-3.1495,-3.1854,-3.2638,-3.2652,-3.275,-3.2925,-3.2925,-3.3345,-3.4177,-3.4177,-3.4658,-3.5504,-3.5504,-3.5504,-3.5504,-3.5504,-3.4476,-3.2925,-3.2925,-3.2925,-3.2925,-3.2925,-3.2925,-3.2925,-3.2925,-3.2925,-3.3066,-3.3891,-3.4177,-3.4312,-3.5246,-3.5504,-3.5504,-3.5504,-3.5504,-3.5504,-3.5504,-3.5504,-3.5504,-3.5504,-3.5504,-3.5504,-3.5504,-3.5504,-3.5274,-3.4559,-3.5279,-3.5834,-3.5469,-3.6512,-3.748,-3.7715,-3.7234,-3.6859,-3.6865,-3.5675,-3.4393,-3.3289,-3.2728,-3.219,-3.1627,-3.1536,-3.1483,-3.1311,-3.1298,-3.1072,-3.0545,-3.052,-3.0294,-2.9804,-2.9792,-2.9792,-2.9792,-2.9792,-2.9792,-2.9804,-3.0357,-3.0896,-1.8409,-1.8983,-1.9694,0.0,0.0,0.0,-1.923,-1.9716,-2.0408,0.0,0.0,0.0,0.0,0.0,0.0,-2.3008,-2.3872,-2.537,-2.7695,-2.8105,-2.874,-3.0206,-2.9797,-2.9667,-3.028,-2.9729,-2.9539,-3.0089,-3.0682,-3.0697,-2.9981,-3.0368,-3.065,-3.0808,-3.0808,-3.1519,-3.2992,-3.2992,-3.3633,-3.492,-3.492,-3.5034,-3.5213,-3.5213,-3.5311,-3.5504,-3.5504,-3.5504,-3.5504,-3.5504,-3.5294,-3.492,-3.492,-3.492,-3.492,-3.492,-3.492,-3.492,-3.492,-3.492,-3.4953,-3.5133,-3.5213,-3.5246,-3.5439,-3.5504,-3.5504,-3.5504,-3.5504,-3.5504,-3.5504,-3.5504,-3.5504,-3.5504,-3.5504,-3.5504,-3.5504,-3.5504,-3.5434,-3.5292,-3.5881,-3.6348,-3.6281,-3.6911,-3.7425,-3.7456,-3.7382,-3.7013,-3.6216,-3.5866,-3.5246,-3.4169,-3.3946,-3.3535,-3.2607,-3.2528,-3.2042,-3.0823,-3.0771,-3.052,-2.998,-2.9955,-2.9905,-2.9792,-2.9792,-2.9792,-2.9792,-2.9792,-2.9792,-2.9804,-3.0357,-3.0896,-1.9956,-2.0198,-2.0688,-2.0711,0.0,0.0,0.0,-1.9944,-1.9881,-2.0554,0.0,0.0,0.0,0.0,0.0,-2.2476,-2.3317,-2.4373,-2.5754,-2.7323,-2.8739,-2.9916,-2.9696,-2.9589,-2.9912,-2.9552,-2.9609,-3.0338,-3.0596,-3.0682,-3.0637,-3.0907,-3.1191,-3.1539,-3.1539,-3.2124,-3.3287,-3.3642,-3.4206,-3.4996,-3.534,-3.5504,-3.5504,-3.5504,-3.5504,-3.5504,-3.5504,-3.5504,-3.5504,-3.5504,-3.5504,-3.5504,-3.5504,-3.5504,-3.5504,-3.5504,-3.5504,-3.5504,-3.5504,-3.5504,-3.5504,-3.5504,-3.5504,-3.5504,-3.5504,-3.5504,-3.5504,-3.5504,-3.5504,-3.5504,-3.5504,-3.5504,-3.5504,-3.5504,-3.5504,-3.5504,-3.5504,-3.5504,-3.5504,-3.5504,-3.5774,-3.6103,-3.6432,-3.6462,-3.6671,-3.7315,-3.6694,-3.5974,-3.5502,-3.5258,-3.4668,-3.3565,-3.3684,-3.3553,-3.2755,-3.2691,-3.2396,-3.1642,-3.1162,-3.0778,-3.0495,-3.0037,-2.9792,-2.9792,-2.9792,-2.9792,-2.9792,-2.9792,-2.9792,-2.9804,-3.008,-3.0495,-2.163,0.0,0.0,0.0,0.0,-2.0752,0.0,0.0,0.0,-2.0348,0.0,0.0,0.0,0.0,0.0,0.0,0.0,0.0,0.0,-2.5624,0.0,-2.8554,-2.8873,-2.9082,-2.9202,-2.9217,-2.9532,-3.0268,-2.9985,-3.0221,-3.1258,-3.1316,-3.1615,-3.2273,-3.2303,-3.2647,-3.3305,-3.3829,-3.4218,-3.4518,-3.504,-3.5385,-3.5504,-3.5504,-3.5504,-3.5504,-3.5504,-3.5504,-3.5504,-3.5504,-3.5504,-3.5504,-3.5504,-3.5504,-3.5504,-3.5504,-3.5504,-3.5504,-3.5504,-3.5504,-3.5504,-3.5504,-3.5504,-3.5504,-3.5504,-3.5504,-3.5504,-3.5504,-3.5504,-3.5504,-3.5504,-3.5504,-3.5504,-3.5504,-3.5504,-3.5504,-3.5504,-3.5504,-3.5504,-3.5504,-3.5504,-3.5669,-3.6207,-3.5863,-3.5848,-3.6881,-3.5874,-3.5042,-3.5082,-3.4789,-3.42,-3.3262,-3.355,-3.3527,-3.2918,-3.289,-3.2784,-3.2593,-3.1888,-3.1389,-3.1217,-3.0317,-2.9792,-2.9792,-2.9792,-2.9792,-2.9792,-2.9792,-2.9792,-2.9792,-2.9792,-3.0093,0.0,0.0,0.0,0.0,-2.3385,0.0,0.0,0.0,-2.1066,-2.0037,0.0,0.0,0.0,0.0,0.0,0.0,0.0,0.0,-2.1919,-2.3202,-2.438,-2.5098,-2.6228,-2.718,-2.7764,-2.7824,-2.8349,-2.9621,-2.8584,-2.8692,-3.0537,-3.0612,-3.0913,-3.1585,-3.1615,-3.1929,-3.2617,-3.2706,-3.332,-3.4503,-3.4593,-3.4906,-3.5504,-3.5504,-3.5504,-3.5504,-3.5504,-3.5504,-3.5504,-3.5504,-3.5504,-3.5504,-3.5504,-3.5504,-3.5504,-3.5504,-3.5504,-3.5504,-3.5504,-3.5504,-3.5504,-3.5504,-3.5504,-3.5504,-3.5504,-3.5504,-3.5504,-3.5504,-3.5504,-3.5504,-3.5504,-3.5504,-3.5504,-3.5504,-3.5504,-3.5504,-3.5504,-3.5504,-3.5504,-3.5504,-3.5504,-3.5534,-3.5609,-3.5549,-3.5549,-3.5699,-3.5556,-3.5431,-3.5431,-3.5391,-3.5311,-3.5195,-3.5207,-3.4894,-3.3925,-3.3842,-3.3484,-3.2629,-3.25,-3.2069,-3.1217,-3.0317,-2.9792,-2.9792,-2.9792,-2.9792,-2.9792,-2.9792,-2.9792,-2.9792,-2.9792,-3.0093,0.0,0.0,0.0,0.0,0.0,0.0,-2.1335,0.0,-2.0483,0.0,0.0,0.0,0.0,0.0,0.0,0.0,-2.0498,0.0,0.0,0.0,-2.2877,0.0,0.0,0.0,-2.5794,-2.6213,-2.6826,-2.7794,-2.7705,-2.8139,-2.934,-3.0103,-3.0642,-3.0898,-3.1301,-3.1645,-3.1914,-3.2317,-3.2796,-3.335,-3.4144,-3.4653,-3.4921,-3.5325,-3.5504,-3.5504,-3.5504,-3.5504,-3.5504,-3.5504,-3.5504,-3.5504,-3.5504,-3.5504,-3.5504,-3.5504,-3.5504,-3.5504,-3.5504,-3.5504,-3.5504,-3.5504,-3.5504,-3.5504,-3.5504,-3.5504,-3.5504,-3.5504,-3.5504,-3.5504,-3.5504,-3.5504,-3.5504,-3.5504,-3.5504,-3.5504,-3.5504,-3.5504,-3.5504,-3.5504,-3.5504,-3.5504,-3.5504,-3.5504,-3.5504,-3.5504,-3.5504,-3.5504,-3.5504,-3.5504,-3.5504,-3.5504,-3.5504,-3.5326,-3.4905,-3.4872,-3.4691,-3.4308,-3.3754,-3.2749,-3.1241,-3.0833,-3.0343,-2.9792,-2.9792,-2.9792,-2.9792,-2.9792,-2.9792,-2.9792,-2.9792,-2.9917,-2.5591,0.0,0.0,0.0,0.0,0.0,0.0,0.0,0.0,0.0,0.0,0.0,0.0,0.0,-2.0202,-1.9989,0.0,-2.0303,0.0,0.0,0.0,0.0,0.0,0.0,0.0,-2.4358,-2.4956,-2.5974,-2.6192,-2.6866,-2.8248,-2.9385,-3.0148,-3.0492,-3.1152,-3.1511,-3.1511,-3.1974,-3.2303,-3.2497,-3.3484,-3.4128,-3.4518,-3.4996,-3.5325,-3.5504,-3.5504,-3.5504,-3.5504,-3.5504,-3.5504,-3.5504,-3.5504,-3.5504,-3.5504,-3.5504,-3.5504,-3.5504,-3.5504,-3.5504,-3.5504,-3.5504,-3.5504,-3.5504,-3.5504,-3.5504,-3.5504,-3.5504,-3.5504,-3.5504,-3.5504,-3.5504,-3.5504,-3.5504,-3.5504,-3.5504,-3.5504,-3.5504,-3.5504,-3.5504,-3.5504,-3.5504,-3.5504,-3.5504,-3.5504,-3.5504,-3.5504,-3.5504,-3.5504,-3.5504,-3.5504,-3.5504,-3.5504,-3.5504,-3.5504,-3.5504,-3.5504,-3.5504,-3.4543,-3.338,-3.2033,-3.1706,-3.1254,-3.057,-3.057,-3.057,-3.057,-3.057,-3.0432,-3.0177,-2.9934,-2.9792,-2.769,-2.8004,-2.7724,-2.4448,-2.361,-2.2921,-2.0352,0.0,-2.1455,0.0,0.0,0.0,-2.1784,-2.165,-2.1425,-2.0763,-2.0688,0.0,0.0,0.0,0.0,0.0,0.0,0.0,0.0,-2.2173,-2.2622,0.0,-2.3535,-2.4245,-2.7465,-2.8278,-2.9235,-3.0462,-3.1152,-3.1511,-3.1511,-3.1525,-3.1854,-3.2512,-3.2557,-3.3245,-3.4503,-3.4533,-3.4876,-3.5504,-3.5504,-3.5504,-3.5504,-3.5504,-3.5504,-3.5504,-3.5504,-3.5504,-3.5504,-3.5504,-3.5504,-3.5504,-3.5504,-3.5504,-3.5504,-3.5504,-3.5504,-3.5504,-3.5504,-3.5504,-3.5504,-3.5504,-3.5504,-3.5504,-3.5504,-3.5504,-3.5504,-3.5504,-3.5504,-3.5504,-3.5504,-3.5504,-3.5504,-3.5504,-3.5504,-3.5504,-3.5504,-3.5504,-3.5504,-3.5504,-3.5504,-3.5504,-3.5504,-3.5504,-3.5504,-3.5504,-3.5504,-3.5504,-3.5504,-3.5504,-3.5504,-3.5504,-3.4543,-3.3993,-3.391,-3.3031,-3.2522,-3.25,-3.25,-3.25,-3.25,-3.25,-3.2033,-3.1143,-3.0203,-2.9792,-2.8992,-2.937,-2.9175,-2.6303,-2.5255,-2.4238,-2.162,-2.1729,-2.2059,-2.0932,-2.2084,-2.2966,-2.1889,-2.1695,-2.1485,-2.0808,-2.0703,-2.015,0.0,0.0,0.0,0.0,0.0,0.0,0.0,0.0,0.0,-2.3221,-2.2942,-2.3535,-2.551,-2.7081,-2.8349,-2.922,-3.0298,-3.1047,-3.1511,-3.1511,-3.1615,-3.1839,-3.2273,-3.2751,-3.3215,-3.4114,-3.4638,-3.4846,-3.531,-3.5504,-3.5504,-3.5504,-3.5504,-3.5504,-3.5504,-3.5504,-3.5504,-3.5504,-3.5504,-3.5504,-3.5504,-3.5504,-3.5504,-3.5504,-3.5504,-3.5504,-3.5504,-3.5504,-3.5504,-3.5504,-3.5504,-3.5504,-3.5504,-3.5504,-3.5504,-3.5504,-3.5504,-3.5504,-3.5504,-3.5504,-3.5504,-3.5504,-3.5504,-3.5504,-3.5504,-3.5504,-3.5504,-3.5504,-3.5504,-3.5504,-3.5504,-3.5504,-3.5504,-3.5504,-3.5504,-3.5504,-3.5504,-3.5504,-3.5504,-3.5504,-3.518,-3.4691,-3.4027,-3.3705,-3.3241,-3.2593,-3.2593,-3.2593,-3.2593,-3.2593,-3.2464,-3.2141,-3.1792,-3.1328,-2.9666,-3.0028,-2.9924,-2.7555,-2.6641,-2.5615,-2.2966,-2.3071,-2.3415,-2.2303,-2.308,-2.3924,-2.3826,-2.2853,-2.1979,-2.1769,-2.1137,-2.0165,0.0,-1.8401,0.0,0.0,0.0,0.0,0.0,0.0,-2.0543,-2.1874,-2.1999,-2.2652,0.0,-2.6138,-2.7675,-2.8562,-2.9834,-3.0808,-3.1496,-3.1511,-3.1511,-3.1511,-3.1929,-3.2258,-3.2542,-3.3395,-3.4038,-3.4533,-3.4951,-3.528,-3.5504,-3.5504,-3.5504,-3.5504,-3.5504,-3.5504,-3.5504,-3.5504,-3.5504,-3.5504,-3.5504,-3.5504,-3.5504,-3.5504,-3.5504,-3.5504,-3.5504,-3.5504,-3.5504,-3.5504,-3.5504,-3.5504,-3.5504,-3.5504,-3.5504,-3.5504,-3.5504,-3.5504,-3.5504,-3.5504,-3.5504,-3.5504,-3.5504,-3.5504,-3.5504,-3.5504,-3.5504,-3.5504,-3.5504,-3.5504,-3.5504,-3.5504,-3.5504,-3.5504,-3.5504,-3.5504,-3.5504,-3.5504,-3.5504,-3.5504,-3.5504,-3.5213,-3.4543,-3.4543,-3.4259,-3.365,-3.365,-3.365,-3.365,-3.365,-3.3429,-3.3101,-3.3101,-3.2784]},{"header":{"parameterUnit":"m.s-1","parameterCategory":1,"la1":30.6,"la2":29.2853,"lo1":-89.7004,"lo2":-87.6739,"dy":0.0162,"dx":0.0183,"nx":112,"ny":82,"refTime":"2024-06-03T18:00:00:Z","depth":0,"parameterNumber":3,"parameterNumberName":"V-component_of_WINDS"},"data":[0.0,0.0,0.0,0.0,0.0,0.0,0.0,0.0,0.0,0.0,0.0,0.0,0.0,0.0,0.0,0.0,0.0,0.0,0.0,0.0,0.0,0.0,0.0,0.0,0.0,0.0,0.0,0.0,0.0,0.0,0.0,0.0,0.0,0.0,0.0,0.0,0.0,0.0,0.0,0.0,0.0,0.0,0.0,0.0,0.0,0.0,0.0,0.0,0.0,0.0,0.0,0.0,0.0,0.0,0.0,0.0,0.0,0.0,0.0,0.0,0.0,0.0,0.0,0.0,0.0,0.0,0.0,0.0,0.0,0.0,0.0,0.0,0.0,0.0,0.0,0.0,0.0,0.0,0.0,0.0,0.0,0.0,0.0,0.0,0.0,0.0,0.0,0.0,0.0,0.0,-2.5405,-2.8196,-3.1546,-3.3525,-3.3423,-3.2154,-3.0023,-2.6911,0.0,0.0,0.0,0.0,0.0,0.0,0.0,0.0,0.0,0.0,0.0,0.0,0.0,0.0,0.0,0.0,0.0,0.0,0.0,0.0,0.0,0.0,0.0,0.0,0.0,0.0,0.0,0.0,0.0,0.0,0.0,0.0,0.0,0.0,0.0,0.0,0.0,0.0,0.0,0.0,0.0,0.0,0.0,0.0,0.0,0.0,0.0,0.0,0.0,0.0,0.0,0.0,0.0,0.0,0.0,0.0,0.0,0.0,0.0,0.0,0.0,0.0,0.0,0.0,0.0,0.0,0.0,0.0,0.0,0.0,0.0,0.0,0.0,0.0,0.0,0.0,0.0,0.0,0.0,0.0,0.0,0.0,0.0,0.0,0.0,0.0,0.0,0.0,0.0,0.0,0.0,0.0,0.0,0.0,0.0,0.0,0.0,0.0,0.0,0.0,0.0,0.0,0.0,0.0,-2.5625,-3.1041,-3.3258,-3.4083,-3.3457,-3.2611,-3.0584,-2.6928,0.0,0.0,0.0,0.0,0.0,0.0,0.0,0.0,0.0,0.0,0.0,0.0,0.0,0.0,0.0,0.0,0.0,0.0,0.0,0.0,0.0,0.0,0.0,0.0,0.0,0.0,0.0,0.0,0.0,0.0,0.0,0.0,0.0,0.0,0.0,0.0,0.0,0.0,0.0,0.0,0.0,0.0,0.0,0.0,0.0,0.0,0.0,0.0,0.0,0.0,0.0,0.0,0.0,0.0,0.0,0.0,0.0,0.0,0.0,0.0,0.0,0.0,0.0,0.0,0.0,0.0,0.0,0.0,0.0,0.0,0.0,0.0,0.0,0.0,0.0,0.0,0.0,0.0,0.0,0.0,0.0,0.0,0.0,0.0,0.0,0.0,0.0,0.0,0.0,0.0,0.0,0.0,0.0,0.0,0.0,0.0,0.0,0.0,0.0,0.0,0.0,0.0,0.0,-2.5066,-2.8078,-3.2425,-3.4218,-3.4641,-3.3508,-3.2713,-3.0702,-2.6928,-2.4611,0.0,0.0,0.0,0.0,0.0,0.0,0.0,0.0,0.0,0.0,0.0,0.0,0.0,0.0,0.0,0.0,0.0,0.0,0.0,0.0,0.0,0.0,0.0,0.0,0.0,0.0,0.0,0.0,0.0,0.0,0.0,0.0,0.0,0.0,0.0,0.0,0.0,0.0,0.0,0.0,0.0,0.0,0.0,0.0,0.0,0.0,0.0,0.0,0.0,0.0,0.0,0.0,0.0,0.0,0.0,0.0,0.0,0.0,0.0,0.0,0.0,0.0,0.0,0.0,0.0,0.0,0.0,0.0,0.0,0.0,0.0,0.0,0.0,0.0,0.0,0.0,0.0,0.0,0.0,0.0,0.0,0.0,0.0,0.0,0.0,0.0,0.0,0.0,0.0,0.0,0.0,0.0,0.0,0.0,0.0,0.0,0.0,0.0,0.0,0.0,0.0,0.0,-2.8248,-3.0514,-3.3136,-3.4721,-3.4991,-3.3541,-3.2544,-3.0516,-2.6928,-2.4305,0.0,0.0,0.0,0.0,0.0,0.0,0.0,0.0,0.0,0.0,0.0,0.0,0.0,0.0,0.0,0.0,0.0,0.0,0.0,0.0,0.0,0.0,0.0,0.0,0.0,0.0,0.0,0.0,0.0,0.0,0.0,0.0,0.0,0.0,0.0,0.0,0.0,0.0,0.0,0.0,0.0,0.0,0.0,0.0,0.0,0.0,0.0,0.0,0.0,0.0,0.0,0.0,0.0,0.0,0.0,0.0,0.0,0.0,0.0,0.0,0.0,0.0,0.0,0.0,0.0,0.0,0.0,0.0,0.0,0.0,0.0,0.0,0.0,0.0,0.0,0.0,0.0,0.0,0.0,0.0,0.0,0.0,0.0,0.0,0.0,0.0,0.0,0.0,0.0,0.0,0.0,0.0,0.0,0.0,0.0,0.0,0.0,0.0,0.0,0.0,0.0,0.0,-2.8822,-3.1647,-3.3237,-3.4721,-3.4991,-3.3541,-3.2104,-2.9973,-2.6877,-2.334,0.0,0.0,0.0,0.0,0.0,0.0,0.0,0.0,0.0,0.0,0.0,0.0,0.0,0.0,0.0,0.0,0.0,0.0,0.0,0.0,0.0,0.0,0.0,0.0,0.0,0.0,0.0,0.0,0.0,0.0,0.0,0.0,0.0,0.0,0.0,0.0,0.0,0.0,0.0,0.0,0.0,0.0,0.0,0.0,0.0,0.0,0.0,0.0,0.0,0.0,0.0,0.0,0.0,0.0,0.0,0.0,0.0,0.0,0.0,0.0,0.0,0.0,0.0,0.0,0.0,0.0,0.0,0.0,0.0,0.0,0.0,0.0,0.0,0.0,0.0,0.0,0.0,0.0,0.0,0.0,0.0,0.0,0.0,0.0,0.0,0.0,0.0,0.0,0.0,0.0,0.0,0.0,0.0,0.0,0.0,0.0,0.0,0.0,0.0,0.0,0.0,0.0,-2.8484,-3.1258,0.0,-3.4721,-3.4991,-3.3541,-3.2459,-3.0398,-2.6911,0.0,0.0,0.0,0.0,0.0,0.0,0.0,0.0,0.0,0.0,0.0,0.0,0.0,0.0,0.0,0.0,0.0,0.0,0.0,0.0,0.0,0.0,0.0,0.0,0.0,0.0,0.0,0.0,0.0,0.0,0.0,0.0,0.0,0.0,0.0,0.0,0.0,0.0,0.0,0.0,0.0,0.0,0.0,0.0,0.0,0.0,0.0,0.0,0.0,0.0,0.0,0.0,0.0,0.0,0.0,0.0,0.0,0.0,0.0,0.0,0.0,0.0,0.0,0.0,0.0,0.0,0.0,0.0,0.0,0.0,0.0,0.0,0.0,0.0,0.0,0.0,0.0,0.0,0.0,0.0,0.0,0.0,0.0,0.0,0.0,0.0,0.0,0.0,0.0,0.0,0.0,0.0,0.0,0.0,0.0,0.0,0.0,0.0,0.0,0.0,0.0,0.0,-2.5711,-2.8941,-3.1562,0.0,-3.4856,-3.4991,-3.3541,-3.229,-3.0091,-2.6573,0.0,0.0,0.0,0.0,0.0,0.0,0.0,0.0,0.0,0.0,0.0,0.0,0.0,0.0,0.0,0.0,0.0,0.0,0.0,0.0,0.0,0.0,0.0,0.0,0.0,0.0,0.0,0.0,0.0,0.0,0.0,0.0,0.0,0.0,0.0,0.0,0.0,0.0,0.0,0.0,0.0,0.0,0.0,0.0,0.0,0.0,0.0,0.0,0.0,0.0,0.0,0.0,0.0,0.0,0.0,0.0,0.0,0.0,0.0,0.0,0.0,0.0,0.0,0.0,0.0,0.0,0.0,0.0,0.0,0.0,0.0,0.0,0.0,0.0,0.0,0.0,0.0,0.0,0.0,0.0,0.0,0.0,0.0,0.0,0.0,0.0,0.0,0.0,0.0,0.0,0.0,0.0,0.0,0.0,0.0,0.0,0.0,0.0,0.0,0.0,0.0,0.0,-2.7232,-3.0429,-3.2869,-3.4336,-3.5165,-3.4991,-3.3541,-3.1393,-2.8839,0.0,0.0,0.0,0.0,0.0,0.0,0.0,0.0,0.0,0.0,0.0,0.0,0.0,0.0,0.0,0.0,0.0,0.0,0.0,0.0,0.0,0.0,0.0,0.0,0.0,0.0,0.0,0.0,0.0,0.0,0.0,0.0,0.0,0.0,0.0,0.0,0.0,0.0,0.0,0.0,0.0,0.0,0.0,0.0,0.0,0.0,0.0,0.0,0.0,0.0,0.0,0.0,0.0,0.0,0.0,0.0,0.0,0.0,0.0,0.0,0.0,0.0,0.0,0.0,0.0,0.0,0.0,0.0,0.0,0.0,0.0,0.0,0.0,0.0,0.0,0.0,0.0,0.0,0.0,0.0,0.0,0.0,0.0,0.0,0.0,0.0,0.0,0.0,0.0,0.0,0.0,0.0,0.0,0.0,0.0,0.0,0.0,0.0,0.0,0.0,0.0,0.0,0.0,-2.7232,-3.0429,-3.2869,-3.4336,-3.5165,-3.4991,-3.3541,-3.185,-2.9583,-2.6573,0.0,0.0,0.0,0.0,0.0,0.0,0.0,0.0,0.0,0.0,0.0,0.0,0.0,0.0,0.0,0.0,0.0,0.0,0.0,0.0,0.0,0.0,0.0,0.0,0.0,0.0,0.0,0.0,0.0,0.0,0.0,0.0,0.0,0.0,0.0,0.0,0.0,0.0,0.0,0.0,0.0,0.0,0.0,0.0,0.0,0.0,0.0,0.0,0.0,0.0,0.0,0.0,0.0,0.0,0.0,0.0,0.0,0.0,0.0,0.0,0.0,0.0,0.0,0.0,0.0,0.0,0.0,0.0,0.0,0.0,0.0,0.0,0.0,0.0,0.0,0.0,0.0,0.0,0.0,0.0,0.0,0.0,0.0,0.0,0.0,0.0,0.0,0.0,0.0,0.0,0.0,0.0,0.0,0.0,0.0,0.0,0.0,0.0,0.0,0.0,0.0,0.0,-2.774,-3.0886,-3.3288,-3.4776,-3.5329,-3.5109,-3.3947,-3.2476,-3.0245,-2.6911,0.0,0.0,0.0,0.0,0.0,0.0,0.0,0.0,0.0,0.0,0.0,0.0,0.0,0.0,0.0,0.0,0.0,0.0,0.0,0.0,0.0,0.0,0.0,0.0,0.0,0.0,0.0,0.0,0.0,0.0,0.0,0.0,0.0,0.0,0.0,0.0,0.0,0.0,0.0,0.0,0.0,0.0,0.0,0.0,0.0,0.0,0.0,0.0,0.0,0.0,0.0,0.0,0.0,0.0,0.0,0.0,0.0,0.0,0.0,0.0,0.0,0.0,0.0,0.0,0.0,0.0,0.0,0.0,0.0,0.0,0.0,0.0,0.0,0.0,0.0,0.0,0.0,0.0,0.0,0.0,0.0,0.0,0.0,0.0,0.0,0.0,0.0,0.0,0.0,0.0,0.0,0.0,0.0,0.0,0.0,0.0,0.0,0.0,0.0,0.0,0.0,0.0,-2.8519,-3.1579,-3.3981,-3.543,-3.56,-3.5295,-3.4556,-3.3156,-3.077,-2.7131,0.0,0.0,0.0,0.0,0.0,0.0,0.0,0.0,0.0,0.0,0.0,0.0,0.0,0.0,0.0,0.0,0.0,0.0,0.0,0.0,0.0,0.0,0.0,0.0,0.0,0.0,0.0,0.0,0.0,0.0,0.0,0.0,0.0,0.0,0.0,0.0,0.0,0.0,0.0,0.0,0.0,0.0,0.0,0.0,0.0,0.0,0.0,0.0,0.0,0.0,0.0,0.0,0.0,0.0,0.0,0.0,0.0,0.0,0.0,0.0,-2.2936,0.0,0.0,0.0,0.0,0.0,0.0,0.0,0.0,0.0,0.0,0.0,0.0,0.0,0.0,0.0,0.0,0.0,0.0,0.0,0.0,0.0,0.0,0.0,0.0,0.0,0.0,0.0,0.0,0.0,0.0,0.0,0.0,0.0,0.0,0.0,0.0,0.0,0.0,0.0,0.0,0.0,-2.8519,-3.1579,-3.3981,-3.543,-3.56,-3.5295,-3.4556,-3.3156,-3.1227,-2.8671,-2.5151,0.0,0.0,0.0,0.0,0.0,0.0,0.0,0.0,0.0,0.0,0.0,0.0,0.0,0.0,0.0,0.0,0.0,0.0,0.0,0.0,0.0,0.0,0.0,0.0,0.0,0.0,0.0,0.0,0.0,0.0,0.0,0.0,0.0,0.0,0.0,0.0,0.0,0.0,0.0,0.0,0.0,0.0,0.0,0.0,0.0,0.0,0.0,0.0,0.0,0.0,0.0,0.0,0.0,0.0,0.0,0.0,0.0,0.0,0.0,0.0,-2.4949,0.0,0.0,0.0,0.0,0.0,0.0,0.0,0.0,0.0,0.0,0.0,0.0,0.0,0.0,0.0,0.0,0.0,0.0,0.0,0.0,0.0,0.0,0.0,0.0,0.0,0.0,0.0,0.0,0.0,0.0,0.0,0.0,0.0,0.0,0.0,0.0,0.0,0.0,0.0,0.0,-2.9127,-3.2104,-3.437,-3.5481,-3.56,-3.543,-3.5064,-3.3677,-3.2036,-3.0178,-2.6877,0.0,0.0,0.0,0.0,0.0,0.0,0.0,0.0,0.0,0.0,0.0,0.0,0.0,0.0,0.0,0.0,0.0,0.0,0.0,0.0,0.0,0.0,0.0,0.0,0.0,0.0,0.0,0.0,0.0,0.0,0.0,0.0,0.0,0.0,0.0,0.0,0.0,0.0,0.0,0.0,0.0,0.0,0.0,0.0,0.0,0.0,0.0,0.0,0.0,0.0,0.0,0.0,0.0,-3.092,-3.1715,-3.2171,-3.2307,-3.2696,-3.3139,-3.0649,-2.9567,-2.9382,-2.6894,0.0,0.0,0.0,0.0,0.0,0.0,0.0,0.0,0.0,0.0,0.0,0.0,0.0,0.0,0.0,0.0,0.0,0.0,0.0,0.0,0.0,0.0,-2.948,-3.0748,-3.1985,-3.1667,-2.7199,0.0,0.0,0.0,0.0,0.0,0.0,0.0,0.0,0.0,0.0,0.0,-2.9989,-3.2747,-3.4776,-3.5515,-3.56,-3.56,-3.56,-3.4366,-3.2966,-3.1478,-2.8805,-2.6015,0.0,0.0,0.0,0.0,0.0,0.0,0.0,0.0,0.0,0.0,0.0,0.0,0.0,0.0,0.0,0.0,0.0,0.0,0.0,0.0,0.0,0.0,0.0,0.0,0.0,0.0,0.0,0.0,0.0,0.0,0.0,0.0,-1.8279,-1.8584,0.0,0.0,0.0,0.0,0.0,0.0,0.0,0.0,0.0,0.0,0.0,0.0,0.0,-2.9719,-3.0446,-3.256,-3.3355,-3.2848,-3.5571,-3.6586,-3.6084,-3.6721,-3.7077,-3.7144,-3.6755,0.0,-3.1836,-3.143,0.0,0.0,0.0,0.0,0.0,0.0,0.0,0.0,0.0,0.0,0.0,0.0,0.0,0.0,0.0,0.0,0.0,0.0,0.0,0.0,0.0,0.0,-3.4619,-3.4822,-3.5008,-3.4788,-3.3457,-3.0192,-2.7164,-2.6031,-2.4425,-2.2885,0.0,0.0,0.0,0.0,0.0,0.0,-3.0666,-3.3068,-3.4776,-3.5515,-3.56,-3.56,-3.56,-3.4827,-3.3728,-3.2259,-3.0581,-2.8602,-2.6218,-2.3579,0.0,0.0,0.0,0.0,0.0,0.0,0.0,0.0,0.0,0.0,0.0,0.0,0.0,0.0,0.0,0.0,0.0,0.0,0.0,0.0,0.0,0.0,0.0,0.0,0.0,0.0,0.0,0.0,0.0,-1.7907,-2.0192,-2.0192,-2.1529,-2.185,0.0,0.0,0.0,0.0,0.0,0.0,0.0,0.0,0.0,-3.0883,-3.2002,-3.3136,-3.4341,-3.5707,-3.6671,-3.7172,-3.8497,-3.9394,-3.9884,-4.0223,-4.0375,-4.0375,-4.0375,-3.9428,-3.7692,-3.4764,-3.2713,-3.1309,0.0,0.0,0.0,0.0,-3.0412,-3.0615,-3.2682,-3.2865,-3.2168,-3.2104,0.0,0.0,0.0,0.0,0.0,0.0,0.0,-3.1664,-3.3156,-3.4895,-3.6485,-3.7313,-3.7838,-3.7922,-3.7178,-3.5165,-3.2645,-2.9786,-2.9127,-2.7858,-2.4171,-2.4306,0.0,0.0,0.0,-3.0635,-3.278,-3.5013,-3.6383,-3.6282,-3.6265,-3.6096,-3.5633,-3.4928,-3.4049,-3.2983,-3.1529,-2.9888,-2.8079,-2.5913,-2.4036,0.0,0.0,0.0,0.0,0.0,0.0,0.0,0.0,0.0,0.0,0.0,0.0,0.0,0.0,0.0,0.0,0.0,0.0,0.0,0.0,0.0,0.0,0.0,0.0,0.0,0.0,0.0,0.0,-2.031,-2.2189,-2.1817,-2.3577,-2.4171,0.0,0.0,0.0,0.0,0.0,0.0,-3.0025,-3.1004,-3.2439,-3.4506,-3.5453,-3.6552,-3.7905,-3.865,-3.958,-4.0654,-4.0646,-4.1247,-4.2286,-4.2286,-4.2286,-4.2286,-4.2286,-4.2286,-4.1965,-3.7889,-3.5673,-3.4709,-3.3423,-3.2662,-3.2476,-3.3795,-3.3914,-3.38,-3.6254,-3.6688,-3.6124,-3.5774,-3.5407,-3.4624,-3.2239,0.0,0.0,0.0,0.0,-3.38,-3.5267,-3.6485,-3.7692,-3.8996,-3.9706,-3.996,-3.9394,-3.8853,-3.7313,-3.3389,-3.3203,-3.2205,-2.7571,-2.7994,0.0,0.0,0.0,-3.341,-3.4917,-3.6738,-3.7702,-3.7127,-3.6914,-3.6575,-3.596,-3.5216,-3.4387,-3.3457,-3.2374,-3.1021,-2.9365,-2.8011,-2.6336,-2.4272,0.0,0.0,0.0,0.0,0.0,0.0,0.0,0.0,0.0,0.0,0.0,0.0,0.0,0.0,0.0,0.0,0.0,0.0,0.0,0.0,0.0,0.0,0.0,0.0,0.0,0.0,0.0,0.0,0.0,-2.346,-2.6505,0.0,0.0,0.0,0.0,-2.9651,-3.048,-3.1579,-3.3102,-3.4535,-3.6039,-3.7635,-3.9056,-4.0197,-4.0967,-4.1711,-4.2117,-4.2185,-4.2185,-4.2219,-4.2286,-4.2286,-4.2286,-4.2286,-4.2286,-4.2286,-4.2219,-4.1255,-4.002,-3.8633,-3.7872,-3.6664,-3.5481,-3.6315,-3.6609,-3.6711,-3.755,-3.7821,-3.7889,-3.8548,-3.7845,-3.6524,-3.5583,-3.4844,0.0,0.0,-3.5926,-3.6914,-3.8379,-3.8819,-3.9073,-3.9859,-4.0079,-4.0096,-4.0045,-4.0028,-3.93,-3.6981,-3.5407,-3.4117,-3.3119,0.0,-3.2293,-3.2916,-3.3795,-3.4967,-3.6491,-3.7398,-3.7889,-3.7855,-3.7212,-3.6778,-3.6745,-3.6011,-3.4923,-3.3491,-3.3339,-3.2324,-3.0123,-2.9314,-2.8147,-2.6556,-2.368,0.0,0.0,0.0,0.0,0.0,0.0,0.0,0.0,0.0,0.0,0.0,0.0,0.0,0.0,0.0,0.0,0.0,0.0,0.0,0.0,0.0,0.0,0.0,0.0,0.0,0.0,0.0,0.0,-2.6996,-2.945,0.0,-2.933,-3.0108,-3.1123,-3.2154,-3.3334,-3.4692,-3.6214,-3.7686,-3.8971,-4.0003,-4.0984,-4.1627,-4.1897,-4.2168,-4.254,-4.3014,-4.3014,-4.3538,-4.4485,-4.4485,-4.4739,-4.5196,-4.5196,-4.5196,-4.5128,-4.4401,-4.2912,-4.1085,-4.0832,-4.0392,-3.9952,-4.0223,-4.035,-4.0383,-4.0629,-4.073,-4.0696,-4.0476,-3.9411,-3.8142,-3.7872,-3.7601,-3.7449,-3.7719,-3.8328,-3.9046,-3.9571,-3.9723,-3.9774,-4.0045,-4.0096,-4.0096,-4.0096,-4.0096,-3.9876,-3.908,-3.8115,-3.6688,-3.4489,-3.4714,-3.495,-3.4218,-3.5571,-3.706,-3.8075,-3.8853,-3.9123,-3.865,-3.7939,-3.7313,-3.6846,-3.5622,-3.4472,-3.3474,-3.2949,-3.2121,-3.0869,-2.9653,-2.8502,-2.7418,-2.4983,-2.2733,0.0,0.0,0.0,0.0,0.0,0.0,0.0,0.0,0.0,0.0,0.0,0.0,0.0,0.0,0.0,0.0,0.0,0.0,0.0,0.0,0.0,0.0,0.0,0.0,0.0,0.0,-2.9414,-2.9721,-3.2158,-3.3427,-3.2408,-3.3241,-3.424,-3.5216,-3.6411,-3.7662,-3.8954,-4.0172,-4.1077,-4.1559,-4.2286,-4.2794,-4.3064,-4.3318,-4.3826,-4.4553,-4.4553,-4.5077,-4.6075,-4.6075,-4.6346,-4.6786,-4.6786,-4.6786,-4.6752,-4.6261,-4.5179,-4.3724,-4.2963,-4.2523,-4.2286,-4.2286,-4.2286,-4.2286,-4.2286,-4.2286,-4.2219,-4.1728,-4.0899,-4.0104,-4.0104,-4.0104,-4.0104,-4.0104,-4.0485,-4.084,-4.084,-4.0671,-4.046,-4.046,-4.0282,-4.0096,-4.0096,-4.0096,-4.0096,-4.0096,-3.9706,-3.8734,-3.6721,-3.7252,-3.7574,-3.6535,-3.7669,-3.8819,-3.9292,-3.9808,-3.991,-3.9436,-3.87,-3.7973,-3.7212,-3.5757,-3.4455,-3.3474,-3.2716,-3.187,-3.0869,-2.9888,-2.8873,-2.7824,-2.5625,-2.3661,-2.1935,0.0,0.0,0.0,0.0,0.0,0.0,0.0,0.0,0.0,0.0,0.0,0.0,0.0,0.0,0.0,0.0,0.0,0.0,0.0,0.0,0.0,0.0,0.0,-2.6826,-3.0025,-3.2141,-3.1478,-3.4646,-3.6288,-3.481,-3.6051,-3.754,-3.8954,-3.9766,-4.0468,-4.1204,-4.1931,-4.2337,-4.2354,-4.3098,-4.3859,-4.4666,-4.5382,-4.6092,-4.6786,-4.6786,-4.6802,-4.6819,-4.6819,-4.6836,-4.6853,-4.6853,-4.6853,-4.6853,-4.6836,-4.6819,-4.6599,-4.4384,-4.3081,-4.2422,-4.2405,-4.2388,-4.2354,-4.2354,-4.2354,-4.232,-4.232,-4.2303,-4.2286,-4.2286,-4.2286,-4.2286,-4.2286,-4.2286,-4.2286,-4.2286,-4.1762,-4.1238,-4.1238,-4.0679,-4.0163,-4.0146,-4.013,-4.013,-4.0096,-4.0096,-4.0096,-4.0096,-4.0096,-4.0096,-4.0096,-4.0096,0.0,-4.0096,-4.0096,-4.0096,-4.0096,-3.9453,-3.87,-3.8007,-3.6495,-3.4974,-3.3541,-3.2713,-3.165,-3.0192,-3.0106,-2.9362,-2.7841,-2.5693,-2.4237,-2.346,0.0,0.0,0.0,0.0,0.0,0.0,0.0,0.0,0.0,0.0,0.0,0.0,0.0,0.0,0.0,0.0,0.0,0.0,0.0,0.0,0.0,0.0,-2.9956,-2.9956,-3.2222,-3.4421,-3.5893,-3.7432,-3.8454,-3.8556,-3.9411,-4.0155,-4.0561,-4.1271,-4.1779,-4.1982,-4.2709,-4.3369,-4.3955,-4.4688,-4.5432,-4.6177,-4.6397,-4.6599,-4.6786,-4.6786,-4.7073,-4.7614,-4.7614,-4.7902,-4.8392,-4.8392,-4.8392,-4.8359,-4.7834,-4.7614,-4.7496,-4.6329,-4.5737,-4.5483,-4.4959,-4.4418,-4.3972,-4.3972,-4.3589,-4.3115,-4.3115,-4.2743,-4.2286,-4.2286,-4.2286,-4.2286,-4.2286,-4.2286,-4.2286,-4.2286,-4.2151,-4.1999,-4.1999,-4.183,-4.1542,-4.1001,-4.0899,-4.073,-4.0214,-4.0096,-4.0096,-4.0096,-4.0096,-4.0096,-4.0096,-4.0096,0.0,-4.0096,-4.0096,-4.0096,-4.0096,-3.9453,-3.892,-3.87,-3.6783,-3.5194,-3.4252,-3.3004,-3.1887,-3.0937,-3.0378,-2.9362,-2.7841,-2.7198,-2.6268,0.0,0.0,0.0,0.0,0.0,0.0,0.0,0.0,0.0,0.0,0.0,0.0,0.0,0.0,0.0,0.0,0.0,0.0,0.0,0.0,0.0,0.0,-3.0548,-3.2916,-3.3863,-3.5115,-3.6535,-3.8176,-3.9005,-3.9757,-4.0476,-4.095,-4.1339,-4.1644,-4.2337,-4.276,-4.276,-4.3792,-4.4587,-4.5043,-4.5771,-4.6515,-4.7259,-4.7259,-4.7428,-4.7716,-4.7716,-4.7953,-4.8376,-4.8376,-4.8595,-4.9001,-4.9001,-4.9001,-4.8968,-4.8545,-4.8376,-4.8274,0.0,0.0,0.0,0.0,-4.5889,-4.5495,-4.5162,-4.4756,-4.4316,-4.4012,-4.3606,-4.3278,-4.3278,-4.3278,-4.3278,-4.3278,-4.3278,-4.3278,-4.3278,-4.2997,-4.276,-4.276,-4.2523,-4.2168,-4.1745,-4.166,-4.1441,-4.0696,-4.0544,0.0,-4.0146,-4.0096,-4.0096,-4.0096,-4.0096,-4.0096,-4.0096,-4.0096,-4.0096,-4.0096,-3.9723,-3.9351,-3.9022,-3.7212,0.0,0.0,0.0,-3.2273,-3.1241,-3.0192,0.0,0.0,0.0,0.0,0.0,0.0,0.0,0.0,-2.6387,-2.6505,0.0,0.0,0.0,0.0,0.0,0.0,0.0,0.0,0.0,0.0,0.0,0.0,0.0,0.0,0.0,0.0,-3.3372,-3.5622,-3.7736,-3.8108,-3.8396,-3.9039,-3.9706,-4.04,-4.1136,-4.1288,-4.1627,-4.2371,-4.3115,-4.3561,-4.3646,0.0,0.0,0.0,0.0,-4.7276,-4.8007,-4.8007,-4.8359,-4.9001,-4.9001,-4.9001,-4.9001,-4.9001,-4.9001,-4.9001,-4.9001,-4.9001,-4.9001,-4.9001,-4.9001,-4.8866,-4.7564,-4.6989,-4.6921,-4.6921,-4.687,-4.6701,-4.6058,0.0,0.0,-4.5072,-4.4801,-4.4733,-4.4733,-4.4682,-4.4615,-4.4615,-4.4615,-4.4615,-4.4615,-4.4062,-4.3527,-4.3527,-4.3047,-4.2523,-4.2439,-4.2422,-4.2202,-4.1474,-4.1271,-4.0984,-4.035,-4.0163,-4.0096,-4.0096,-4.0096,-4.0096,-4.0096,-4.0096,-4.0096,-4.0096,-4.0096,0.0,-3.9174,-3.7862,-3.6705,-3.5904,-3.4404,-3.2857,-3.1395,-3.008,-2.9642,-3.0212,-3.0314,-3.1013,-3.2293,-3.2378,-3.2513,-3.2598,-2.9179,-2.8958,0.0,0.0,0.0,0.0,0.0,0.0,0.0,0.0,0.0,0.0,0.0,0.0,0.0,0.0,0.0,-3.278,-3.5385,-3.7601,-3.8633,-3.9317,-3.974,-3.9876,-4.0011,-4.04,-4.1136,-4.1728,-4.2388,-4.3149,-4.391,-4.4621,-4.5229,-4.5551,-4.6261,-4.7432,-4.7631,-4.8054,-4.8781,-4.8798,-4.8866,-4.9001,0.0,0.0,-4.9001,-4.9001,-4.9001,-4.9001,-4.9001,-4.9001,-4.9001,-4.9001,-4.9001,-4.8968,-4.8697,-4.8223,-4.7699,-4.7699,-4.731,-4.6769,-4.6633,-4.6583,-4.6549,-4.6413,-4.5974,-4.5483,-4.5483,-4.506,0.0,-4.4615,-4.4615,-4.4615,-4.4615,-4.4496,-4.4378,-4.4378,-4.4276,-4.3961,-4.3335,-4.32,-4.298,-4.2219,-4.161,-4.1153,-4.1018,-4.0476,-4.0096,-4.0096,-4.0096,-4.0096,-4.0096,-4.0096,-4.0096,-4.0096,-4.0096,-4.0045,-3.991,-3.9097,-3.8244,-3.7516,-3.547,-3.3648,-3.2238,-3.188,-3.1517,-3.1092,-3.1649,-3.2057,-3.2293,-3.2899,-3.3812,-3.4945,-3.3609,-3.2983,0.0,0.0,0.0,0.0,0.0,0.0,0.0,0.0,0.0,0.0,0.0,-2.9059,0.0,0.0,-3.432,-3.547,-3.7229,-3.87,-3.9453,-3.9876,-4.0096,-4.0096,-4.0434,-4.0933,-4.1677,-4.2422,-4.3335,-4.4485,-4.4925,-4.5466,-4.621,-4.6599,-4.7158,-4.7872,-4.8244,-4.8646,-4.9001,-4.9001,-4.9001,-4.9001,-4.9001,-4.9187,-4.9543,-4.9543,-4.9746,-5.0084,-4.9712,-4.9543,-4.9509,-4.9154,-4.9001,-4.9001,-4.9001,-4.8781,-4.846,-4.846,-4.8223,-4.7851,-4.7479,-4.7361,-4.7293,-4.6921,-4.6549,-4.6244,-4.6244,-4.5737,-4.5145,-4.5145,-4.4874,-4.4615,-4.4615,-4.4615,-4.4615,-4.4615,-4.4615,-4.4496,-4.4079,-4.3995,-4.3775,-4.2997,-4.2557,-4.2083,-4.1339,-4.0882,-4.0536,-4.0163,-4.0096,-4.0096,-4.0096,-4.0096,-4.0096,-4.0096,-4.0096,-4.0096,-4.0096,-3.9436,-3.8684,-3.7956,-3.6468,-3.5335,-3.4614,-3.4224,-3.3831,-3.3468,-3.3806,-3.3986,-3.3963,-3.4681,-3.5435,-3.6152,-3.6558,-3.6366,0.0,0.0,0.0,0.0,0.0,0.0,0.0,0.0,-2.7148,-2.8027,-3.0378,-3.2479,-3.3072,-3.4861,-3.6664,-3.7922,-3.8717,-3.9436,-4.0028,-4.0096,-4.0096,-4.0096,-4.0747,-4.1491,-4.2219,-4.298,-4.4035,-4.5585,-4.5703,-4.6092,-4.6972,-4.7581,-4.7956,-4.8122,-4.8697,-4.9001,-4.9001,-4.9137,-4.9221,-4.9221,-4.9373,-4.9746,-5.0304,-5.0304,-5.0642,-5.1183,-5.0574,-5.0304,-5.0253,-4.9526,-4.9221,-4.9204,-4.9069,-4.9001,-4.9001,-4.9001,-4.9001,-4.8917,-4.8342,-4.8091,-4.8037,-4.7428,-4.7124,-4.7005,-4.7005,-4.6498,-4.5923,-4.5923,-4.5382,-4.479,-4.479,-4.4716,-4.4615,-4.4615,-4.4615,-4.4615,-4.4615,-4.4615,-4.4429,-4.3775,-4.3367,-4.2795,-4.16,-4.1013,-4.0534,-3.9951,-3.9876,-3.9825,-3.9679,-3.9782,-3.9808,-3.9679,-3.9782,-3.9808,-3.9679,-3.9236,-3.8672,-3.7949,-3.7462,-3.7104,-3.6818,-3.6048,-3.5625,-3.5617,-3.5633,-3.5678,-3.5835,-3.6561,-3.7002,-3.7176,-3.8421,-3.8684,-2.2716,-2.3441,-2.4186,-2.4915,-2.5727,-2.7182,0.0,0.0,-3.1955,-3.3339,-3.5001,-3.6203,-3.6288,-3.7574,-3.8667,-3.8853,-3.9503,-4.0011,-4.0096,-4.0096,-4.0096,-4.0096,-4.0747,-4.1491,-4.2219,-4.298,-4.4035,-4.5585,-4.5703,-4.6312,-4.7686,-4.7838,-4.8206,-4.8866,-4.8968,-4.9001,-4.9001,-4.9644,-4.9965,-4.9965,-5.0642,-5.1014,-5.1099,-5.1099,-5.1133,-5.1185,-5.1116,-5.1099,-5.1031,-5.027,-4.9965,-4.9898,-4.9255,-4.9001,-4.9001,-4.9001,-4.9001,-4.8984,-4.8917,-4.8883,-4.8866,-4.8781,-4.8325,-4.78,-4.78,-4.7259,-4.6667,-4.6667,-4.6143,-4.5585,-4.5585,-4.5077,-4.4615,-4.4615,-4.4615,-4.4615,-4.4615,-4.4615,-4.4581,-4.4496,-4.3308,-4.227,-4.2121,-4.0408,-3.9059,-3.905,-3.9016,-3.8816,-3.8149,-3.8624,-3.8772,-3.8121,-3.8635,-3.8772,-3.8121,-3.857,-3.8603,-3.7866,-3.8388,-3.8152,-3.6854,-3.6072,-3.5691,-3.569,-3.569,-3.599,-3.657,-3.7377,-3.8089,-3.8754,-3.893,-3.8954,-2.5525,-2.6522,0.0,0.0,-2.9093,-3.0903,-3.2039,-3.3309,-3.4523,-3.5627,-3.7032,-3.8075,-3.8075,-3.8945,-3.9656,0.0,-3.991,-4.0096,-4.0096,-4.0096,-4.0096,-4.0096,-4.0747,-4.1491,-4.2219,-4.298,-4.4231,-4.6194,-4.6346,-4.6989,-4.8477,-4.8545,-4.8697,-4.8984,-4.9001,-4.9204,-4.9644,-4.9949,-5.0321,-5.0744,-5.1065,-5.1437,-5.1843,-5.1843,-5.1843,-5.1843,-5.1843,-5.1606,-5.12,-5.0879,-5.049,-5.005,-4.9746,-4.9373,-4.9001,-4.9001,-4.9001,-4.9001,-4.9001,-4.9001,-4.9001,-4.9001,-4.8798,-4.8545,-4.8545,-4.8037,-4.7445,-4.7445,-4.6599,-4.5703,-4.5703,-4.5145,-4.4615,-4.4615,-4.4615,-4.4615,-4.4615,-4.4615,-4.4457,-4.3931,-4.3313,-4.2548,-4.1594,-4.0662,-3.9572,-3.8334,-3.8219,-3.8149,-3.7835,-3.8064,-3.8133,-3.7835,-3.8092,-3.8149,-3.7822,-3.8092,-3.8132,-3.7813,-3.8117,-3.8214,-3.8045,-3.7736,-3.7355,-3.6926,-3.6926,-3.6613,-3.5987,-3.6768,-3.7545,-3.8308,-3.8735,-3.9184,-2.7114,0.0,0.0,-2.9856,-3.1968,-3.3931,-3.3613,-3.5098,-3.6705,-3.7303,-3.8437,-3.9292,-3.9292,-3.974,-4.0096,-4.0096,-4.0096,-4.0096,-4.0096,-4.0096,-4.0096,-4.0096,-4.0561,-4.1187,-4.1914,-4.2861,-4.4367,-4.6616,-4.6786,-4.7428,-4.8917,-4.9001,-4.9001,-4.9001,-4.9001,-4.9357,-5.0084,-5.0287,-5.0777,-5.1522,-5.1742,-5.2114,-5.2638,-5.2638,-5.2638,-5.2638,-5.2638,-5.2151,-5.138,-5.1161,-5.061,-4.9876,-4.9754,-4.9349,-4.8894,-4.8976,-4.9001,-4.9001,-4.9001,-4.9001,-4.9001,-4.9001,-4.9001,-4.9001,-4.9001,-4.8646,-4.8193,-4.8193,-4.731,-4.6203,-4.5761,-4.511,-4.4431,-4.3981,-4.3885,-4.3885,-4.3885,-4.3885,-4.371,-4.3078,-4.2754,-4.2202,-4.1055,-4.0496,-3.9669,-3.806,-3.7592,-3.7365,-3.7177,-3.7191,-3.7235,-3.7456,-3.7294,-3.7191,-3.7191,-3.7338,-3.7485,-3.7485,-3.769,-3.8035,-3.858,-3.8398,-3.8003,-3.7485,-3.7485,-3.6905,-3.5814,-3.6768,-3.7541,-3.8104,-3.887,-3.9542,0.0,0.0,-3.1292,-3.2022,-3.388,-3.5718,-3.6508,-3.7804,-3.8903,-3.892,-3.9554,-4.0079,-4.0079,-4.0079,-4.0096,-4.0096,-4.0096,-4.0096,-4.0096,-4.0096,-4.0096,-4.0096,-4.013,-4.0434,0.0,-4.253,-4.4367,-4.6616,-4.6786,-4.7428,-4.8917,-4.9001,-4.9001,-4.9001,-4.9001,-4.9357,-5.0084,-5.0811,-5.1555,-5.2283,-5.3061,-5.345,-5.3467,-5.3467,-5.3467,-5.3467,-5.3467,-5.2854,-5.1825,-5.1117,-5.0216,-4.9283,-4.8807,-4.8626,-4.8645,-4.8908,-4.9001,-4.9001,-4.9001,-4.9001,-4.9001,-4.9001,-4.9001,-4.9001,-4.9001,-4.8984,-4.8968,-4.8968,-4.8426,-4.7467,-4.591,-4.4964,-4.4023,-4.2445,-4.2093,-4.2093,-4.2093,-4.2093,-4.2062,-4.2029,-4.1379,-4.0777,-4.0727,-3.9466,-3.8447,-3.8402,-3.7323,-3.6322,-3.5644,-3.5569,-3.5846,-3.6554,-3.6006,-3.5569,-3.5569,-3.6228,-3.6646,-3.6646,-3.7368,-3.7806,-3.7835,-3.7084,-3.6661,-3.6646,-3.6646,-3.66,-3.6584,-3.8101,-3.8854,-3.8881,-3.9688,-4.007,0.0,0.0,-3.3677,-3.4967,-3.6569,-3.7922,-3.8193,-3.8633,-3.8988,-3.8988,-3.8437,-3.8065,-3.8548,-3.8633,-3.8802,-3.9276,-3.9791,-4.0096,-4.0096,-4.051,-4.0646,-4.0163,-4.0536,0.0,0.0,0.0,0.0,-4.5224,-4.6244,-4.7225,-4.824,-4.8731,-4.9001,-4.9001,-4.9475,-5.0084,-5.0828,-5.1572,-5.2334,-5.3112,-5.3365,-5.3501,-5.3467,-5.2749,-5.2435,-5.24,-5.174,-5.1245,-5.0876,-5.0634,-5.0059,-4.9293,-4.9109,-4.8497,-4.7693,-4.7781,-4.7512,-4.7306,-4.8576,-4.9001,-4.9001,-4.9001,-4.9001,-4.8892,-4.8257,-4.808,-4.7933,-4.7306,-4.6616,-4.5929,-4.5369,-4.4704,-4.3896,-4.2894,-4.2653,-4.2525,-4.2093,-4.1997,-4.1836,-4.1247,-4.0912,-4.0535,-3.9935,-3.9414,-3.8916,-3.8467,-3.7315,-3.6252,-3.5594,-3.5504,-3.5587,-3.5831,-3.5636,-3.5504,-3.5504,-3.5733,-3.5863,-3.5863,-3.6133,-3.6477,-3.6964,-3.6722,-3.6615,-3.6615,-3.6615,-3.6353,-3.5863,-3.6384,-3.716,-3.8177,-3.8458,-3.9119,-3.2226,-3.3964,-3.5334,-3.7151,-3.8294,-3.8988,-3.8988,-3.8988,-3.8836,-3.8311,-3.7229,-3.6518,-3.6992,-3.6874,-3.711,-3.8396,-3.8988,-3.958,-4.0375,-4.0663,-4.0815,-4.0891,-4.08,-4.1151,0.0,0.0,0.0,-4.4829,-4.6109,-4.7124,-4.7838,-4.8301,-4.8656,-4.9001,-4.9394,-5.0102,-5.1185,-5.1944,-5.2706,-5.3518,-5.311,-5.2921,-5.2904,-5.1849,-5.1357,-5.132,-5.0665,-5.0165,-4.9813,-4.9813,-4.9324,-4.8583,-4.8709,-4.8193,-4.734,-4.7235,-4.6937,-4.6702,-4.7638,-4.8015,-4.8015,-4.8015,-4.8015,-4.7868,-4.7273,-4.7088,-4.6986,-4.6349,-4.5853,-4.5365,-4.4795,-4.4294,-4.3668,-4.2679,-4.2231,-4.1969,-4.1515,-4.1234,-4.0894,-4.0343,-4.0255,-4.006,-3.9517,-3.9388,-3.9185,-3.8497,-3.7494,-3.6582,-3.5938,-3.5654,-3.5504,-3.5504,-3.5504,-3.5504,-3.5504,-3.5504,-3.5504,-3.5504,-3.5504,-3.5701,-3.6196,-3.6196,-3.6196,-3.6196,-3.6196,-3.5975,-3.5504,-3.575,-3.6415,-3.7381,-3.7933,-3.8734,-3.3964,-3.5165,-3.6293,-3.8497,-3.9022,-3.8988,-3.8988,-3.8903,-3.8413,-3.6981,-3.5994,-3.5363,0.0,0.0,-3.5148,-3.7381,-3.7872,-3.8734,-4.0899,-4.0612,-4.0739,0.0,0.0,0.0,0.0,0.0,0.0,-4.5462,0.0,-4.6988,-4.7777,-4.7633,-4.795,-4.8892,-4.8779,-4.946,-5.1103,-5.1896,-5.2673,-5.3433,-5.24,-5.1885,-5.1796,-5.0779,-5.032,-5.0336,-5.0242,-4.9655,-4.8702,-4.8702,-4.8141,-4.7321,-4.7574,-4.7673,-4.7608,-4.7229,-4.7075,-4.6948,-4.6287,-4.6103,-4.6208,-4.6208,-4.6208,-4.6173,-4.6138,-4.6154,-4.6103,-4.6067,-4.6032,-4.5711,-4.418,-4.3768,-4.3393,-4.1829,-4.095,-4.0487,-4.0412,-3.9903,-3.9454,-3.9388,-3.9388,-3.9388,-3.9388,-3.9388,-3.92,-3.8542,-3.7883,-3.7225,-3.6567,-3.5908,-3.5504,-3.5504,-3.5504,-3.5504,-3.5504,-3.5504,-3.5504,-3.5504,-3.5504,-3.5504,-3.5504,-3.5504,-3.5504,-3.5504,-3.5504,-3.5504,-3.5504,-3.6196,-3.6554,-3.6646,-3.8101,-3.8799,-3.4856,-3.6705,-3.8396,-3.9554,-3.9419,-3.8988,-3.8988,-3.7702,-3.6214,-3.5267,-3.3609,-3.2154,0.0,0.0,0.0,-3.5182,-3.7246,0.0,-4.0967,-4.1508,0.0,-4.2252,0.0,-4.2244,-4.3855,-4.2594,0.0,0.0,-4.5046,-4.5391,-4.6775,-4.6679,-4.6986,-4.7933,-4.8241,-4.8955,-5.0055,-5.1348,-5.2113,-5.2312,-5.2029,-5.1504,-5.0741,-4.9694,-4.9215,-4.9191,-4.8434,-4.7919,-4.7679,-4.7679,-4.7538,-4.7322,-4.7385,-4.7093,-4.6592,-4.6001,-4.5483,-4.495,-4.428,-4.5011,-4.6208,-4.6208,-4.6208,-4.6083,-4.5358,-4.5153,-4.5005,-4.4266,-4.4036,-4.3928,-4.3506,-4.3436,-4.3193,-4.2329,-4.2021,-4.1632,-4.0606,-4.0277,-4.0008,-3.9514,-3.9388,-3.9388,-3.9388,-3.9388,-3.9328,-3.9185,-3.8571,-3.7749,-3.6626,-3.5908,-3.5504,-3.5504,-3.5504,-3.5504,-3.5504,-3.5504,-3.5504,-3.5504,-3.5504,-3.5504,-3.5504,-3.5504,-3.5504,-3.5504,-3.5504,-3.5504,-3.5504,-3.5701,-3.6054,-3.6615,-3.7008,-3.7512,-3.6603,-3.8261,-3.9588,-3.9994,-3.9554,-3.865,-3.7313,-3.5791,-3.4044,-3.1985,-3.0311,0.0,0.0,0.0,0.0,0.0,0.0,0.0,-4.1339,-4.1762,-4.2061,0.0,-4.2078,0.0,-4.3759,-4.2299,-4.2367,0.0,-4.481,-4.4937,-4.5828,-4.5681,-4.6156,-4.7405,-4.76,-4.844,-5.0006,-5.0839,-5.1229,-5.1229,-5.0763,-5.0249,-4.9655,-4.861,-4.8141,-4.8099,-4.7538,-4.7309,-4.7309,-4.7309,-4.7309,-4.7309,-4.7309,-4.7085,-4.6636,-4.5663,-4.5065,-4.4601,-4.3618,-4.3997,-4.4937,-4.4937,-4.4937,-4.484,-4.432,-4.4143,-4.4028,-4.3448,-4.329,-4.329,-4.329,-4.329,-4.32,-4.288,-4.2605,-4.2201,-4.1452,-4.0816,-4.0202,-3.9544,-3.9388,-3.9388,-3.9388,-3.9388,-3.9388,-3.9388,-3.8841,-3.8123,-3.7419,-3.6507,-3.5833,-3.5534,-3.5504,-3.5504,-3.5504,-3.5504,-3.5504,-3.5504,-3.5504,-3.5504,-3.5504,-3.5504,-3.5504,-3.5504,-3.5504,-3.5504,-3.5504,-3.5504,-3.5701,-3.6149,-3.6446,-3.6843,-3.8447,-3.9554,-4.0079,-3.9977,-3.9334,-3.7939,-3.5013,-3.3626,-3.1948,-2.8382,0.0,-2.6488,-2.6302,-2.769,-2.9788,-3.2645,0.0,-3.7898,-4.1504,-4.1625,-4.1762,-4.2851,-4.1829,-4.1598,-4.302,-4.1566,-4.1788,-4.4849,-4.4945,-4.4909,-4.505,-4.4767,-4.5326,-4.6898,-4.691,-4.7958,-5.0149,-5.0204,-5.0204,-5.0165,-4.9256,-4.8743,-4.8553,-4.7694,-4.7309,-4.7309,-4.7309,-4.7309,-4.7309,-4.7309,-4.7309,-4.7309,-4.7309,-4.7309,-4.7145,-4.5783,-4.5289,-4.511,-4.3753,-4.329,-4.329,-4.329,-4.329,-4.329,-4.329,-4.329,-4.329,-4.329,-4.329,-4.329,-4.329,-4.329,-4.329,-4.329,-4.2895,-4.2515,-4.2425,-4.1324,-4.0202,-3.9544,-3.9388,-3.9388,-3.9388,-3.9388,-3.9388,-3.9388,-3.8916,-3.8497,-3.8407,-3.727,-3.6267,-3.5699,-3.5549,-3.5504,-3.5504,-3.5504,-3.5504,-3.5504,-3.5504,-3.5504,-3.5504,-3.5504,-3.5504,-3.5504,-3.5504,-3.5504,-3.5504,-3.5504,-3.5504,-3.5504,-3.618,-3.6446,-3.8717,-3.9554,-3.996,-3.9326,-3.8183,-3.6558,-3.4134,-3.2087,0.0,0.0,0.0,-2.5423,-2.4188,-2.6184,0.0,-3.119,0.0,0.0,0.0,0.0,-4.1933,0.0,0.0,0.0,0.0,0.0,0.0,0.0,0.0,-4.3999,-4.4812,-4.4044,-4.4187,-4.5581,-4.6355,-4.7486,-4.9054,-4.9069,-4.9069,-4.9069,-4.8907,-4.8361,-4.7523,-4.7381,-4.7309,-4.7309,-4.7309,-4.7309,-4.7309,-4.7309,-4.7309,-4.7309,-4.7309,-4.7309,-4.7145,-4.5783,-4.5289,-4.511,-4.3753,-4.329,-4.329,-4.329,-4.329,-4.329,-4.329,-4.329,-4.329,-4.329,-4.329,-4.329,-4.329,-4.329,-4.329,-4.329,-4.32,-4.3015,-4.2515,-4.1324,-4.0202,-3.9544,-3.9388,-3.9388,-3.9388,-3.9388,-3.9388,-3.9388,-3.932,-3.9035,-3.8467,-3.727,-3.6447,-3.6327,-3.5833,-3.5504,-3.5504,-3.5504,-3.5504,-3.5504,-3.5504,-3.5504,-3.5504,-3.5504,-3.5504,-3.5504,-3.5504,-3.5504,-3.5504,-3.5504,-3.5504,-3.5504,-3.5651,-3.5701,-3.861,-3.9228,-3.94,-3.9083,-3.736,-3.5,-3.2298,0.0,0.0,0.0,0.0,-2.368,-2.297,0.0,0.0,0.0,0.0,0.0,0.0,0.0,0.0,0.0,0.0,0.0,0.0,0.0,0.0,0.0,0.0,-4.3512,-4.4004,-4.3882,-4.4137,-4.4766,-4.5878,-4.6817,-4.7498,-4.7863,-4.803,-4.803,-4.803,-4.7764,-4.7309,-4.7309,-4.7309,-4.7309,-4.7309,-4.7309,-4.7309,-4.7309,-4.7309,-4.7309,-4.7309,-4.71,-4.6681,-4.5663,-4.508,-4.4646,-4.3633,-4.329,-4.329,-4.329,-4.329,-4.329,-4.329,-4.329,-4.329,-4.329,-4.329,-4.329,-4.329,-4.329,-4.329,-4.329,-4.329,-4.3021,-4.2111,-4.1354,-4.0621,-3.9619,-3.9388,-3.9388,-3.9388,-3.9388,-3.9388,-3.9388,-3.9388,-3.9269,-3.8975,-3.8078,-3.7225,-3.6552,-3.6207,-3.5878,-3.5534,-3.5504,-3.5504,-3.5504,-3.5504,-3.5504,-3.5504,-3.5504,-3.5504,-3.5504,-3.5504,-3.5504,-3.5504,-3.5504,-3.5504,-3.5504,-3.5504,-3.5504,-3.8178,-3.8693,-3.8593,-3.8345,-3.6268,-3.3435,-3.0329,-2.7985,0.0,0.0,-2.2296,-2.2268,-2.218,0.0,0.0,0.0,0.0,0.0,0.0,0.0,0.0,0.0,0.0,0.0,0.0,0.0,0.0,0.0,0.0,-4.329,-4.329,-4.3783,-4.4167,-4.4317,-4.5334,-4.5995,-4.6279,-4.683,-4.7174,-4.7309,-4.7309,-4.7309,-4.7309,-4.7309,-4.7309,-4.7309,-4.7309,-4.7309,-4.7309,-4.7309,-4.7309,-4.7294,-4.7145,-4.677,-4.6175,-4.5394,-4.4751,-4.4212,-4.3529,-4.329,-4.329,-4.329,-4.329,-4.329,-4.329,-4.329,-4.329,-4.329,-4.329,-4.329,-4.329,-4.329,-4.329,-4.329,-4.329,-4.2931,-4.1669,-4.1422,-4.0995,-3.9679,-3.9388,-3.9388,-3.9388,-3.9388,-3.9388,-3.9388,-3.9388,-3.9388,-3.9388,-3.8945,-3.8167,-3.7015,-3.6656,-3.6282,-3.5759,-3.5594,-3.5504,-3.5504,-3.5504,-3.5504,-3.5504,-3.5504,-3.5504,-3.5504,-3.5504,-3.5504,-3.5504,-3.5504,-3.5504,-3.5504,-3.5504,-3.5504,-3.7345,-3.7903,-3.7586,-3.6319,-3.4384,-3.1959,-2.8817,0.0,0.0,-2.2666,-2.2296,-2.218,-2.1733,-2.2705,0.0,0.0,0.0,0.0,0.0,0.0,0.0,0.0,0.0,0.0,0.0,0.0,0.0,0.0,0.0,-4.329,-4.329,-4.3349,-4.3663,-4.4287,-4.4436,-4.508,-4.6264,-4.6339,-4.6711,-4.7309,-4.7309,-4.7309,-4.7309,-4.7309,-4.7309,-4.7309,-4.7309,-4.7309,-4.7309,-4.7309,-4.7309,-4.7249,-4.6651,-4.6324,-4.613,-4.4885,-4.4362,-4.4212,-4.3529,-4.329,-4.329,-4.329,-4.329,-4.329,-4.329,-4.329,-4.329,-4.329,-4.329,-4.329,-4.329,-4.329,-4.329,-4.329,-4.329,-4.2931,-4.1669,-4.1422,-4.0995,-3.9679,-3.9388,-3.9388,-3.9388,-3.9388,-3.9388,-3.9388,-3.9388,-3.9388,-3.9388,-3.9364,-3.9035,-3.8287,-3.718,-3.6462,-3.6402,-3.5848,-3.5504,-3.5504,-3.5504,-3.5504,-3.5504,-3.5504,-3.5504,-3.5504,-3.5504,-3.5504,-3.5504,-3.5504,-3.5504,-3.5504,-3.5504,-3.5504,-3.5161,-3.5924,-3.5911,-3.575,-3.3212,-3.0229,-2.8041,0.0,-2.3444,-2.1856,-2.1705,-2.1749,-2.1306,-2.1628,-2.2639,-2.4742,-2.4854,-2.6045,0.0,0.0,0.0,0.0,0.0,0.0,0.0,0.0,0.0,0.0,0.0,-4.329,-4.329,-4.329,-4.3409,-4.3678,-4.4107,-4.4571,-4.511,-4.5876,-4.6414,-4.6711,-4.7115,-4.7309,-4.7309,-4.7309,-4.7309,-4.7279,-4.689,-4.6711,-4.6681,-4.6262,-4.6097,-4.6067,-4.5798,-4.5454,-4.505,-4.4511,-4.4022,-4.3648,-4.3379,-4.329,-4.329,-4.329,-4.329,-4.329,-4.329,-4.329,-4.329,-4.329,-4.329,-4.329,-4.329,-4.329,-4.329,-4.329,-4.329,-4.2931,-4.1669,-4.1422,-4.0995,-3.9679,-3.9388,-3.9388,-3.9388,-3.9388,-3.9388,-3.9388,-3.9388,-3.9388,-3.9388,-3.9388,-3.932,-3.9035,-3.7838,-3.6881,-3.6522,-3.5893,-3.5504,-3.5504,-3.5504,-3.5504,-3.5504,-3.5504,-3.5504,-3.5504,-3.5504,-3.5504,-3.5504,-3.5504,-3.5504,-3.5504,-3.5504,-3.5504,-3.2725,-3.362,-3.3845,-3.41,-3.1555,-2.8606,0.0,0.0,-2.2614,-2.1276,-2.1322,-2.143,-2.0878,-2.1007,-2.1616,-2.2941,-2.2609,-2.3582,-2.7662,0.0,0.0,0.0,0.0,0.0,0.0,0.0,0.0,0.0,0.0,-4.329,-4.329,-4.329,-4.329,-4.329,-4.3738,-4.4122,-4.4317,-4.5259,-4.5828,-4.6022,-4.6486,-4.6711,-4.6711,-4.6711,-4.6711,-4.6681,-4.6217,-4.6022,-4.5978,-4.5499,-4.5289,-4.5274,-4.508,-4.4721,-4.4287,-4.4092,-4.3693,-4.329,-4.329,-4.329,-4.329,-4.329,-4.329,-4.329,-4.329,-4.329,-4.329,-4.329,-4.329,-4.329,-4.329,-4.329,-4.329,-4.329,-4.314,-4.2731,-4.1624,-4.1235,-4.0756,-3.9634,-3.9388,-3.9388,-3.9388,-3.9388,-3.9388,-3.9388,-3.9388,-3.9388,-3.9388,-3.9388,-3.9388,-3.9388,-3.8212,-3.724,-3.6791,-3.5983,-3.5504,-3.5504,-3.5504,-3.5504,-3.5504,-3.5504,-3.5504,-3.5504,-3.5504,-3.5504,-3.5504,-3.5504,-3.5504,-3.5504,-3.5504,-3.5504,-3.0217,-3.113,-3.1477,-3.0729,-2.9067,-2.7214,0.0,-2.3758,-2.2058,-2.118,-2.1322,-2.1353,-2.0483,-2.1007,-2.1408,-2.0827,-2.2163,-2.4294,-2.7195,0.0,0.0,0.0,0.0,0.0,0.0,0.0,0.0,0.0,-4.329,0.0,-4.329,-4.329,-4.329,-4.329,-4.3305,-4.3618,-4.4302,-4.4332,-4.4661,-4.5304,-4.5319,-4.5319,-4.5319,-4.5319,-4.5319,-4.5319,-4.5304,-4.5304,-4.5304,-4.5289,-4.5289,-4.5229,-4.4586,-4.4317,-4.4242,-4.3544,-4.3305,-4.329,-4.329,-4.329,-4.329,-4.329,-4.329,-4.329,-4.329,-4.329,-4.329,-4.329,-4.329,-4.329,-4.329,-4.329,-4.329,-4.329,-4.2836,-4.2231,-4.1572,-4.0876,-4.0217,-3.9508,-3.9388,-3.9388,-3.9388,-3.9388,-3.9388,-3.9388,-3.9388,-3.9388,-3.9388,-3.9388,-3.9388,-3.9388,-3.8212,-3.7404,-3.7404,-3.6237,-3.5504,-3.5504,-3.5504,-3.5504,-3.5504,-3.5504,-3.5504,-3.5504,-3.5504,-3.5504,-3.5504,-3.5504,-3.5504,-3.5504,-3.5504,-3.5504,-2.682,-2.7357,-2.7543,-2.7786,-2.6343,-2.4627,-2.3734,-2.2304,-2.1,-2.0268,-2.0416,-2.0534,-1.9982,-2.0347,-2.1153,-2.246,-2.3152,0.0,0.0,0.0,0.0,0.0,0.0,0.0,0.0,0.0,0.0,0.0,-4.309,-4.329,-4.329,-4.329,-4.329,-4.329,-4.329,-4.3394,-4.3604,-4.4092,-4.4421,-4.4631,-4.508,-4.5289,-4.5289,-4.5289,-4.5289,-4.5274,-4.4825,-4.4631,-4.4586,-4.4137,-4.3917,-4.3888,-4.3678,-4.3604,-4.3574,-4.3364,-4.329,-4.329,-4.329,-4.329,-4.329,-4.329,-4.329,-4.329,-4.329,-4.329,-4.329,-4.329,-4.329,-4.329,-4.329,-4.329,-4.3185,-4.2776,-4.2545,-4.2096,-4.095,-4.0546,-4.0202,-3.9544,-3.9388,-3.9388,-3.9388,-3.9388,-3.9388,-3.9388,-3.9388,-3.9388,-3.9388,-3.9388,-3.9388,-3.9388,-3.8616,-3.7898,-3.7449,-3.6237,-3.5504,-3.5504,-3.5504,-3.5504,-3.5504,-3.5504,-3.5504,-3.5504,-3.5504,-3.5504,-3.5504,-3.5504,-3.5504,-3.5504,-3.5504,-3.5504,0.0,-2.4702,-2.495,-2.5356,-2.4346,-2.3107,-2.2478,-2.1485,-2.0494,-1.9842,-2.0017,-2.0193,-1.9764,-2.0035,-2.0696,-2.1924,-2.2757,0.0,0.0,0.0,0.0,0.0,0.0,0.0,0.0,0.0,0.0,-4.2366,-4.2746,-4.3075,-4.329,-4.329,-4.329,-4.329,-4.329,-4.329,-4.329,-4.3693,-4.3902,-4.3943,-4.4362,-4.4556,-4.4556,-4.4556,-4.4556,-4.4526,-4.4122,-4.3902,0.0,-4.3469,-4.329,-4.329,-4.329,-4.329,-4.329,-4.329,-4.329,-4.329,-4.329,-4.329,-4.329,-4.329,-4.329,-4.329,-4.329,-4.329,-4.329,-4.329,-4.329,-4.329,-4.329,-4.315,-4.2865,-4.25,-4.2021,-4.1437,-4.0576,-4.0202,-3.9903,-3.9499,-3.9388,-3.9388,-3.9388,-3.9388,-3.9388,-3.9388,-3.9388,-3.9388,-3.9388,-3.9388,-3.9388,-3.9388,-3.8796,-3.8227,-3.7808,-3.6611,-3.5878,-3.5878,-3.5639,-3.5504,-3.5504,-3.5504,-3.5504,-3.5504,-3.5504,-3.5504,-3.5504,-3.5504,-3.5504,-3.5504,-3.5504,-3.5639,0.0,0.0,0.0,0.0,-2.2912,-2.2328,-2.1695,-2.1081,0.0,-1.9842,-2.0,-2.0172,-1.9885,-2.0106,-2.0277,-2.0155,0.0,0.0,0.0,0.0,0.0,0.0,0.0,0.0,0.0,0.0,0.0,-4.2171,-4.2306,-4.2566,-4.3185,-4.323,-4.3245,-4.329,-4.329,-4.329,-4.329,-4.329,-4.329,-4.329,-4.329,-4.329,-4.329,-4.329,-4.329,0.0,-4.329,-4.329,-4.329,-4.329,-4.329,-4.329,-4.329,-4.329,-4.329,-4.329,-4.329,-4.329,-4.329,-4.329,-4.329,-4.329,-4.329,-4.329,-4.329,-4.329,-4.329,-4.329,-4.329,-4.329,-4.3245,-4.2821,-4.2381,-4.2276,-4.1294,-4.0382,-4.0337,-3.9843,-3.9388,-3.9388,-3.9388,-3.9388,-3.9388,-3.9388,-3.9388,-3.9388,-3.9388,-3.9388,-3.9388,-3.9388,-3.9388,-3.9388,-3.8841,-3.8467,-3.8467,-3.7285,-3.6552,-3.6552,-3.5983,-3.5624,-3.5579,-3.5579,-3.5549,-3.5504,-3.5504,-3.5504,-3.5504,-3.5504,-3.5504,-3.5504,-3.5504,-3.5863,-1.8555,0.0,-1.9974,-2.0501,-2.0516,-2.0367,0.0,-2.0052,-1.9902,0.0,0.0,0.0,0.0,0.0,0.0,0.0,0.0,0.0,0.0,0.0,0.0,0.0,0.0,0.0,0.0,0.0,-4.0531,-4.0846,-4.1324,-4.1931,-4.259,-4.262,-4.2821,-4.329,-4.329,-4.329,-4.329,-4.329,-4.329,-4.329,-4.329,-4.329,-4.329,-4.329,-4.329,-4.329,-4.329,-4.329,-4.329,-4.329,-4.329,-4.329,-4.329,-4.329,-4.329,-4.329,-4.329,-4.329,-4.329,-4.329,-4.329,-4.329,-4.329,-4.329,-4.329,-4.329,-4.329,-4.329,-4.329,-4.317,-4.2716,-4.2515,-4.2141,-4.11,-4.0621,-4.0262,-3.9768,-3.9493,-3.9388,-3.9388,-3.9388,-3.9388,-3.9388,-3.9388,-3.9388,-3.9388,-3.9388,-3.9388,-3.9388,-3.9388,-3.9388,-3.9388,-3.9275,-3.917,-3.917,-3.7958,-3.7195,-3.7195,-3.7045,-3.6746,-3.6267,-3.6252,-3.6013,-3.5519,-3.5504,-3.5504,-3.5504,-3.5504,-3.5504,-3.5504,-3.5504,-3.5863,-1.707,-1.8177,-1.9241,-1.9618,-1.9929,-2.0154,-2.0154,0.0,0.0,0.0,0.0,0.0,0.0,0.0,0.0,0.0,0.0,0.0,0.0,0.0,0.0,0.0,0.0,0.0,0.0,0.0,-4.0068,-4.0382,-4.0726,-4.122,-4.1916,-4.1946,-4.2073,-4.2432,-4.2731,-4.303,-4.329,-4.329,-4.329,-4.329,-4.329,-4.329,-4.329,-4.329,-4.329,-4.329,-4.329,-4.329,-4.329,-4.329,-4.329,-4.329,-4.329,-4.329,-4.329,-4.329,-4.329,-4.329,-4.329,-4.329,-4.329,-4.329,-4.329,-4.329,-4.329,-4.329,-4.329,-4.329,-4.329,-4.314,-4.2575,-4.2171,-4.1692,-4.0651,-4.0172,-3.9843,-3.9499,-3.9388,-3.9388,-3.9388,-3.9388,-3.9388,-3.9388,-3.9388,-3.9388,-3.9388,-3.9388,-3.9388,-3.9388,-3.9388,-3.9388,-3.9388,-3.9388,-3.9388,-3.9388,-3.8751,-3.8197,-3.7883,-3.7584,-3.7255,-3.6926,-3.6641,-3.6178,-3.5519,-3.5504,-3.5504,-3.5504,-3.5804,-3.5953,-3.5968,-3.6252,-3.6731,-1.6652,-1.8252,-1.9678,-1.9573,-2.0124,-2.0673,-2.0554,0.0,0.0,0.0,0.0,0.0,0.0,0.0,0.0,0.0,0.0,0.0,0.0,0.0,0.0,0.0,0.0,0.0,0.0,-3.9388,-3.9649,-4.0202,-4.0247,-4.0531,-4.119,-4.1235,-4.128,-4.1422,-4.1961,-4.2476,-4.2991,-4.3185,-4.329,-4.329,-4.329,-4.329,-4.329,-4.329,-4.329,-4.329,-4.329,-4.329,-4.329,-4.329,-4.329,-4.329,-4.329,-4.329,-4.329,-4.329,-4.329,-4.329,-4.329,-4.329,-4.329,-4.329,-4.323,-4.317,-4.326,-4.3155,-4.3021,-4.311,-4.314,-4.303,-4.2425,-4.1767,-4.107,-4.0412,-3.9828,-3.9388,-3.9388,-3.9388,-3.9388,-3.9388,-3.9388,-3.9388,-3.9388,-3.9388,-3.9388,-3.9388,-3.9388,-3.9388,-3.9388,-3.9388,-3.9388,-3.9388,-3.9388,-3.9388,-3.9388,-3.9388,-3.917,-3.8586,-3.8018,-3.7674,-3.7569,-3.6866,-3.6222,-3.5669,-3.5549,-3.5549,-3.5654,-3.6207,-3.6537,-3.6641,-3.7165,-3.7764,-1.7235,-1.8612,-1.9573,-1.9001,-1.9776,-2.0539,-1.9974,0.0,0.0,0.0,0.0,0.0,0.0,0.0,0.0,0.0,0.0,0.0,0.0,0.0,0.0,0.0,0.0,0.0,-3.9328,-3.9388,-3.9454,-3.9574,-3.9574,-3.9858,-4.0516,-4.0546,-4.0801,-4.1369,-4.1512,-4.1579,-4.1683,-4.2737,-4.329,-4.329,-4.329,-4.329,-4.329,-4.329,-4.329,-4.329,-4.329,-4.329,-4.329,-4.329,-4.329,-4.329,-4.329,-4.329,-4.329,-4.329,-4.329,-4.329,-4.329,-4.329,-4.329,-4.329,-4.2955,-4.265,-4.3125,-4.2566,-4.1803,-4.2396,-4.2545,-4.2396,-4.1737,-4.104,-4.0382,-3.9723,-3.9448,-3.9388,-3.9388,-3.9388,-3.9388,-3.9388,-3.9388,-3.9388,-3.9388,-3.9388,-3.9388,-3.9388,-3.9388,-3.9388,-3.9388,-3.9388,-3.9388,-3.9388,-3.9388,-3.9388,-3.9388,-3.9388,-3.9379,-3.9275,-3.917,-3.8856,-3.8257,-3.7105,-3.6432,-3.6342,-3.5789,-3.5774,-3.6342,-3.6432,-3.6746,-3.727,-3.736,-3.7764,-1.6503,-1.7879,-1.9091,-1.8777,-2.0243,-2.1784,-2.1799,0.0,0.0,0.0,0.0,0.0,0.0,0.0,0.0,0.0,0.0,0.0,0.0,0.0,0.0,0.0,0.0,-3.8512,-3.8841,-3.92,-3.9388,-3.9388,-3.9388,-3.9508,-3.9843,-3.9873,-4.0008,-4.0307,-4.0666,-4.0846,-4.0846,-4.1803,-4.2282,-4.2282,-4.2641,-4.2806,-4.2821,-4.3125,-4.329,-4.329,-4.329,-4.329,-4.329,-4.329,-4.329,-4.329,-4.329,-4.329,-4.329,-4.329,-4.3105,-4.2806,-4.2806,-4.2581,-4.2282,-4.2282,-4.2073,-4.1931,-4.2192,-4.1863,-4.1482,-4.1782,-4.1871,-4.1722,-4.1025,-4.0621,-4.0232,-3.9574,-3.9388,-3.9388,-3.9388,-3.9388,-3.9388,-3.9388,-3.9388,-3.9388,-3.9388,-3.9388,-3.9388,-3.9388,-3.9388,-3.9388,-3.9388,-3.9388,-3.9388,-3.9388,-3.9388,-3.9388,-3.9388,-3.9388,-3.9388,-3.9388,-3.9388,-3.911,-3.8422,-3.7823,-3.7345,-3.6985,-3.6686,-3.6686,-3.6985,-3.7345,-3.7659,-3.7943,-3.8317,-3.8661,-1.6159,-1.7445,-1.8777,-1.9091,0.0,-2.2478,-2.3385,-2.3116,0.0,0.0,0.0,0.0,0.0,0.0,0.0,0.0,0.0,0.0,0.0,0.0,0.0,0.0,-3.7345,-3.8003,-3.8138,-3.8781,-3.9185,-3.9185,-3.9334,-3.9388,-3.9388,-3.9388,-3.9388,-3.9388,-3.9903,-4.0172,-4.0172,-4.0666,-4.107,-4.1422,-4.1931,-4.2171,-4.2186,-4.2641,-4.288,-4.288,-4.288,-4.288,-4.288,-4.288,-4.288,-4.288,-4.288,-4.288,-4.288,-4.288,-4.2566,-4.2171,-4.2171,-4.1841,-4.1422,-4.1422,-4.128,-4.119,-4.1324,-4.116,-4.095,-4.1115,-4.104,-4.0846,-4.0487,-4.0292,-4.0053,-3.9508,-3.9388,-3.9388,-3.9388,-3.9388,-3.9388,-3.9388,-3.9388,-3.9388,-3.9388,-3.9388,-3.9388,-3.9388,-3.9388,-3.9388,-3.9388,-3.9388,-3.9388,-3.9388,-3.9388,-3.9388,-3.9388,-3.9388,-3.9388,-3.9388,-3.9388,-3.9185,-3.8661,-3.8482,-3.8153,-3.7644,-3.7479,-3.7479,-3.7644,-3.8138,-3.8467,-3.8646,-3.917,-3.9388,-1.7235,-1.8117,-1.9001,-2.0258,-2.0703,0.0,-2.3176,-2.3116,0.0,-2.5076,0.0,0.0,0.0,0.0,0.0,0.0,0.0,0.0,0.0,0.0,0.0,-3.6417,-3.6567,-3.6851,-3.7419,-3.8078,-3.8467,-3.8467,-3.905,-3.9388,-3.9388,-3.9388,-3.9388,-3.9388,-3.9433,-3.9448,-3.9448,-3.9508,-4.0172,-4.1422,-4.1467,-4.1444,-4.1444,-4.1542,-4.1519,-4.1519,-4.1519,-4.1519,-4.1519,-4.1519,-4.1519,-4.1519,-4.1519,-4.1519,-4.1519,-4.1519,-4.1527,-4.1444,-4.1444,-4.1452,-4.1422,-4.1422,-4.0965,-4.0591,-4.119,-4.0531,-3.9694,-4.0307,-4.0023,-3.9694,-4.0247,-3.9948,-3.9448,-3.9388,-3.9388,-3.9388,-3.9388,-3.9388,-3.9388,-3.9388,-3.9388,-3.9388,-3.9388,-3.9388,-3.9388,-3.9388,-3.9388,-3.9388,-3.9388,-3.9388,-3.9388,-3.9388,-3.9388,-3.9388,-3.9388,-3.9388,-3.9388,-3.9388,-3.9388,-3.9394,-3.9313,-3.8736,-3.8362,-3.8317,-3.7719,-3.7704,-3.8317,-3.8362,-3.8721,-3.9313,-3.9394,-3.9388,-1.6398,-1.7879,-1.9435,-1.9944,-2.1306,0.0,0.0,-2.53,-2.6312,-2.8248,-2.919,0.0,0.0,0.0,0.0,0.0,0.0,0.0,0.0,0.0,-3.5594,-3.5848,-3.6237,-3.6582,-3.6806,-3.7404,-3.7778,-3.7778,-3.8392,-3.8781,-3.8781,-3.9185,-3.9388,-3.9388,-3.9388,-3.9388,-3.9388,-3.9388,-3.9664,-4.0172,-4.0576,-4.0771,-4.0786,-4.119,-4.1422,-4.1422,-4.1422,-4.1422,-4.1422,-4.1422,-4.1422,-4.1422,-4.1422,-4.1422,-4.1422,-4.1422,-4.113,-4.0771,-4.0771,-4.0502,-4.0172,-4.0172,-3.9993,-3.9843,-4.0083,-3.9813,-3.9433,-3.9723,-3.9619,-3.9448,-3.9723,-3.9604,-3.9388,-3.9388,-3.9388,-3.9388,-3.9388,-3.9388,-3.9388,-3.9388,-3.9388,-3.9388,-3.9388,-3.9388,-3.9388,-3.9388,-3.9388,-3.9388,-3.9388,-3.9388,-3.9388,-3.9388,-3.9388,-3.9388,-3.9388,-3.9388,-3.9388,-3.9388,-3.9388,-3.9388,-3.9388,-3.917,-3.9035,-3.9035,-3.8781,-3.8781,-3.9035,-3.9035,-3.917,-3.9388,-3.9388,-3.9388,-1.6069,-1.77,-1.9498,0.0,0.0,0.0,-2.5779,-2.7121,-2.8543,-3.0687,-3.1496,0.0,0.0,0.0,0.0,0.0,0.0,0.0,0.0,0.0,-3.5504,-3.5504,-3.5893,-3.6178,-3.6178,-3.6746,-3.712,-3.712,-3.7719,-3.8078,-3.8078,-3.8527,-3.8886,-3.9095,-3.9095,-3.92,-3.9388,-3.9388,-3.9388,-3.9424,-3.9873,-4.0083,-4.0113,-4.0561,-4.0756,-4.0756,-4.0756,-4.0756,-4.0756,-4.0756,-4.0756,-4.0756,-4.0756,-4.0756,-4.0756,-4.0756,-4.0472,-4.0083,-4.0083,-3.9798,-3.9388,-3.9388,-3.9388,-3.9388,-3.9388,-3.9388,-3.9388,-3.9388,-3.9388,-3.9388,-3.9388,-3.9388,-3.9388,-3.9388,-3.9388,-3.9388,-3.9388,-3.9388,-3.9388,-3.9388,-3.9388,-3.9388,-3.9388,-3.9388,-3.9388,-3.9388,-3.9388,-3.9388,-3.9388,-3.9388,-3.9388,-3.9388,-3.9388,-3.9388,-3.9388,-3.9388,-3.9388,-3.9388,-3.9388,-3.9388,-3.9388,-3.9388,-3.9388,-3.9388,-3.9388,-3.9388,-3.9388,-3.9388,-3.9388,-3.9388,-3.9388,-3.9388,-1.6696,-1.7699,0.0,0.0,0.0,0.0,-2.6866,-2.8113,-2.9355,-3.2003,0.0,-3.2736,0.0,0.0,0.0,0.0,0.0,0.0,0.0,-3.5504,-3.5504,-3.5504,-3.5504,-3.5504,-3.5504,-3.6088,-3.6477,-3.6477,-3.7045,-3.7404,-3.7404,-3.7404,-3.7704,-3.8362,-3.8377,-3.8706,-3.9358,-3.9373,-3.9373,-3.9373,-3.9388,-3.9388,-3.9388,-3.9388,-3.9388,-3.9388,-3.9388,-3.9388,-3.9388,-3.9388,-3.9388,-3.9388,-3.9388,-3.9388,-3.9388,-3.9388,-3.9388,-3.9388,-3.9388,-3.9388,-3.9388,-3.9388,-3.9388,-3.9388,-3.9388,-3.9388,-3.9388,-3.9388,-3.9388,-3.9388,-3.9388,-3.9388,-3.9388,-3.9388,-3.9388,-3.9388,-3.9388,-3.9388,-3.9388,-3.9388,-3.9388,-3.9388,-3.9388,-3.9388,-3.9388,-3.9388,-3.9388,-3.9388,-3.9388,-3.9388,-3.9388,-3.9388,-3.9388,-3.9388,-3.9388,-3.9388,-3.9388,-3.9388,-3.9388,-3.9388,-3.9388,-3.9388,-3.9388,-3.9388,-3.9388,-3.9388,-3.9388,-3.9388,-3.9388,-3.9388,-3.9388,-3.9388,-1.6831,0.0,0.0,0.0,0.0,0.0,0.0,-2.9146,0.0,0.0,0.0,0.0,0.0,0.0,0.0,-3.4474,-3.5055,-3.5504,-3.5504,-3.5504,-3.5504,-3.5504,-3.5504,-3.5504,-3.5504,-3.5684,-3.5804,-3.5804,-3.6387,-3.6761,-3.6761,-3.718,-3.7494,-3.7689,-3.7704,-3.7793,-3.8003,-3.8467,-3.8691,-3.8691,-3.9185,-3.9388,-3.9388,-3.9388,-3.9388,-3.9388,-3.9388,-3.9388,-3.9388,-3.9388,-3.9388,-3.9388,-3.9388,-3.9388,-3.9388,-3.9388,-3.9388,-3.9388,-3.9388,-3.9388,-3.9388,-3.9388,-3.9388,-3.9388,-3.9388,-3.9388,-3.9388,-3.9388,-3.9388,-3.9388,-3.9388,-3.9388,-3.9388,-3.9388,-3.9388,-3.9388,-3.9388,-3.9388,-3.9388,-3.9388,-3.9388,-3.9388,-3.9388,-3.9388,-3.9388,-3.9388,-3.9388,-3.9388,-3.9388,-3.9388,-3.9388,-3.9388,-3.9388,-3.9388,-3.9388,-3.9388,-3.9388,-3.9388,-3.9388,-3.9388,-3.9388,-3.9388,-3.9388,-3.9388,-3.9388,-3.9388,-3.9388,-3.9388,-3.9388,-3.9388,-3.9388,-3.9388,-1.7772,0.0,0.0,0.0,0.0,0.0,0.0,0.0,0.0,0.0,0.0,0.0,0.0,-3.4698,0.0,-3.4846,-3.5235,-3.5504,-3.5504,-3.5504,-3.5504,-3.5504,-3.5504,-3.5504,-3.5504,-3.5504,-3.5504,-3.5504,-3.5863,-3.6088,-3.6088,-3.6447,-3.6776,-3.703,-3.7045,-3.7165,-3.7404,-3.7808,-3.8003,-3.8003,-3.8422,-3.8751,-3.902,-3.929,-3.9388,-3.9388,-3.9388,-3.9388,-3.9388,-3.9388,-3.9388,-3.9388,-3.9388,-3.9388,-3.9388,-3.9388,-3.9388,-3.9388,-3.9388,-3.9388,-3.9388,-3.9388,-3.9388,-3.9388,-3.9388,-3.9388,-3.9388,-3.9388,-3.9388,-3.9388,-3.9388,-3.9388,-3.9388,-3.9388,-3.9388,-3.9388,-3.9388,-3.9388,-3.9388,-3.9388,-3.9388,-3.9388,-3.9388,-3.9388,-3.9388,-3.9388,-3.9388,-3.9388,-3.9388,-3.9388,-3.9388,-3.9388,-3.9388,-3.9388,-3.9388,-3.9388,-3.9388,-3.9388,-3.9388,-3.9388,-3.9388,-3.9388,-3.9388,-3.9388,-3.9388,-3.9388,-3.9388,-3.9388,-3.9388,-3.9388,-3.9388,-3.9388,0.0,0.0,0.0,0.0,0.0,0.0,0.0,0.0,0.0,0.0,0.0,0.0,0.0,-3.4996,-3.4771,-3.54,-3.5504,-3.5504,-3.5504,-3.5504,-3.5504,-3.5504,-3.5504,-3.5504,-3.5504,-3.5504,-3.5504,-3.5504,-3.5504,-3.5504,-3.5504,-3.5504,-3.5774,-3.6372,-3.6402,-3.6671,-3.7225,-3.73,-3.733,-3.733,-3.7375,-3.7719,-3.8317,-3.9005,-3.9328,-3.9388,-3.9388,-3.9388,-3.9388,-3.9388,-3.9388,-3.9388,-3.9388,-3.9388,-3.9388,-3.9388,-3.9388,-3.9388,-3.9388,-3.9388,-3.9388,-3.9388,-3.9388,-3.9388,-3.9388,-3.9388,-3.9388,-3.9388,-3.9388,-3.9388,-3.9388,-3.9388,-3.9388,-3.9388,-3.9388,-3.9388,-3.9388,-3.9388,-3.9388,-3.9388,-3.9388,-3.9388,-3.9388,-3.9388,-3.9388,-3.9388,-3.9388,-3.9388,-3.9388,-3.9388,-3.9388,-3.9388,-3.9388,-3.9388,-3.9388,-3.9388,-3.9388,-3.9388,-3.9388,-3.9388,-3.9388,-3.9388,-3.9388,-3.9388,-3.9388,-3.9388,-3.9388,-3.9388,-3.9388,-3.9388,-3.9388,-3.9388,0.0,0.0,0.0,0.0,0.0,0.0,0.0,0.0,0.0,0.0,0.0,0.0,0.0,-3.5385,-3.5325,-3.5489,-3.5504,-3.5504,-3.5504,-3.5504,-3.5504,-3.5504,-3.5504,-3.5504,-3.5504,-3.5504,-3.5504,-3.5504,-3.5504,-3.5504,-3.5504,-3.5504,-3.5564,-3.5714,-3.5714,-3.5789,-3.5908,-3.6432,-3.6686,-3.6686,-3.718,-3.7479,-3.7644,-3.8302,-3.8901,-3.9388,-3.9388,-3.9388,-3.9388,-3.9388,-3.9388,-3.9388,-3.9388,-3.9388,-3.9388,-3.9388,-3.9388,-3.9388,-3.9388,-3.9388,-3.9388,-3.9388,-3.9388,-3.9388,-3.9388,-3.9388,-3.9388,-3.9388,-3.9388,-3.9388,-3.9388,-3.9388,-3.9388,-3.9388,-3.9388,-3.9388,-3.9388,-3.9388,-3.9388,-3.9388,-3.9388,-3.9388,-3.9388,-3.9388,-3.9388,-3.9388,-3.9388,-3.9388,-3.9388,-3.9388,-3.9388,-3.9388,-3.9388,-3.9388,-3.9388,-3.9388,-3.9388,-3.9388,-3.9388,-3.9388,-3.9388,-3.9388,-3.9388,-3.9388,-3.9388,-3.9388,-3.9388,-3.9388,-3.9388,-3.9388,-3.9388,-3.9388,0.0,0.0,0.0,0.0,0.0,0.0,0.0,0.0,0.0,0.0,0.0,0.0,0.0,-3.5504,-3.5504,-3.5504,-3.5504,-3.5504,-3.5504,-3.5504,-3.5504,-3.5504,-3.5504,-3.5504,-3.5504,-3.5504,-3.5504,-3.5504,-3.5504,-3.5504,-3.5504,-3.5504,-3.5504,-3.5504,-3.5504,-3.5504,-3.5504,-3.5848,-3.6013,-3.6028,-3.6342,-3.6671,-3.6985,-3.7629,-3.8123,-3.8452,-3.8452,-3.8631,-3.8931,-3.8931,-3.9125,-3.9388,-3.9388,-3.9388,-3.9388,-3.9388,-3.9388,-3.9388,-3.9388,-3.9388,-3.9388,-3.9388,-3.9388,-3.9388,-3.9388,-3.9388,-3.9388,-3.9388,-3.9388,-3.9388,-3.9388,-3.9388,-3.9388,-3.9388,-3.9388,-3.9388,-3.9388,-3.9388,-3.9388,-3.9388,-3.9388,-3.9388,-3.9388,-3.9388,-3.9388,-3.9388,-3.9388,-3.9388,-3.9388,-3.9388,-3.9388,-3.9388,-3.9388,-3.9388,-3.9388,-3.9388,-3.9388,-3.9388,-3.9388,-3.9388,-3.9388,-3.9388,-3.9388,-3.9388,-3.9388,-3.9388,-3.9388,-3.9388,-3.9388,-3.9388,-3.9388,-3.9388,0.0,0.0,0.0,0.0,0.0,0.0,0.0,0.0,0.0,0.0,0.0,0.0,0.0,-3.5429,-3.5504,-3.5504,-3.5504,-3.5504,-3.5504,-3.5504,-3.5504,-3.5504,-3.5504,-3.5504,-3.5504,-3.5504,-3.5504,-3.5504,-3.5504,-3.5504,-3.5504,-3.5504,-3.5504,-3.5504,-3.5504,-3.5504,-3.5504,-3.5504,-3.5504,-3.5504,-3.5504,-3.5789,-3.6327,-3.6851,-3.7195,-3.7404,-3.7404,-3.7719,-3.8227,-3.8227,-3.8556,-3.9059,-3.92,-3.9245,-3.926,-3.9379,-3.9388,-3.9388,-3.9388,-3.9388,-3.9388,-3.9388,-3.9388,-3.9388,-3.9388,-3.9388,-3.9388,-3.9388,-3.9388,-3.9388,-3.9388,-3.9388,-3.9388,-3.9388,-3.9388,-3.9388,-3.9388,-3.9388,-3.9388,-3.9388,-3.9388,-3.9388,-3.9388,-3.9388,-3.9388,-3.9388,-3.9388,-3.9388,-3.9388,-3.9388,-3.9388,-3.9388,-3.9388,-3.9388,-3.9388,-3.9388,-3.9388,-3.9388,-3.9388,-3.9388,-3.9388,-3.9388,-3.9388,-3.9388,-3.9388,-3.9388,-3.9388,-3.9388,-3.9388,-3.9388,-3.9388,-3.9388,0.0,0.0,0.0,0.0,0.0,0.0,0.0,0.0,0.0,0.0,0.0,0.0,0.0,-3.51,-3.5504,-3.5504,-3.5504,-3.5504,-3.5504,-3.5504,-3.5504,-3.5504,-3.5504,-3.5504,-3.5504,-3.5504,-3.5504,-3.5504,-3.5504,-3.5504,-3.5504,-3.5504,-3.5504,-3.5504,-3.5504,-3.5504,-3.5504,-3.5504,-3.5504,-3.5504,-3.5504,-3.5549,-3.5639,-3.5729,-3.6372,-3.7404,-3.7404,-3.7464,-3.7539,-3.7539,-3.7599,-3.7734,-3.8302,-3.8527,-3.8601,-3.92,-3.9388,-3.9388,-3.9388,-3.9388,-3.9388,-3.9388,-3.9388,-3.9388,-3.9388,-3.9388,-3.9388,-3.9388,-3.9388,-3.9388,-3.9388,-3.9388,-3.9388,-3.9388,-3.9388,-3.9388,-3.9388,-3.9388,-3.9388,-3.9388,-3.9388,-3.9388,-3.9388,-3.9388,-3.9388,-3.9388,-3.9388,-3.9388,-3.9388,-3.9388,-3.9388,-3.9388,-3.9388,-3.9388,-3.9388,-3.9388,-3.9388,-3.9388,-3.9388,-3.9388,-3.9388,-3.9388,-3.9388,-3.9388,-3.9388,-3.9388,-3.9388,-3.9388,-3.9388,-3.9388,-3.9388,-3.9388,0.0,0.0,0.0,0.0,0.0,0.0,0.0,0.0,0.0,0.0,0.0,0.0,0.0,-3.4472,-3.4936,-3.4936,-3.525,-3.5504,-3.5504,-3.5504,-3.5504,-3.5504,-3.5504,-3.5504,-3.5504,-3.5504,-3.5504,-3.5504,-3.5504,-3.5504,-3.5504,-3.5504,-3.5504,-3.5504,-3.5504,-3.5504,-3.5504,-3.5504,-3.5504,-3.5504,-3.5504,-3.5504,-3.5504,-3.5504,-3.5818,-3.6342,-3.6342,-3.6552,-3.6896,-3.6896,-3.709,-3.7434,-3.7719,-3.7838,-3.7883,-3.8182,-3.8287,-3.8347,-3.8721,-3.8841,-3.8901,-3.929,-3.9388,-3.9388,-3.9388,-3.9388,-3.9388,-3.9388,-3.9388,-3.9388,-3.9388,-3.9388,-3.9388,-3.9388,-3.9388,-3.9388,-3.9388,-3.9388,-3.9388,-3.9388,-3.9388,-3.9388,-3.9388,-3.9388,-3.9388,-3.9388,-3.9388,-3.9388,-3.9388,-3.9388,-3.9388,-3.9388,-3.9388,-3.9388,-3.9388,-3.9388,-3.9388,-3.9388,-3.9388,-3.9388,-3.9388,-3.9388,-3.9388,-3.9388,-3.9388,-3.923,-3.8841,-3.923,-3.923,-3.8856,-3.9245,-3.9388,0.0,0.0,0.0,0.0,0.0,0.0,0.0,0.0,0.0,0.0,0.0,0.0,0.0,-3.3664,-3.4309,-3.4474,-3.4906,-3.531,-3.5489,-3.5504,-3.5504,-3.5504,-3.5504,-3.5504,-3.5504,-3.5504,-3.5504,-3.5504,-3.5504,-3.5504,-3.5504,-3.5504,-3.5504,-3.5504,-3.5504,-3.5504,-3.5504,-3.5504,-3.5504,-3.5504,-3.5504,-3.5504,-3.5504,-3.5504,-3.5504,-3.5504,-3.5504,-3.5789,-3.6237,-3.6237,-3.6507,-3.6941,-3.7105,-3.718,-3.7195,-3.7345,-3.7404,-3.7479,-3.7973,-3.8138,-3.8257,-3.8931,-3.9155,-3.9185,-3.9364,-3.9388,-3.9388,-3.9388,-3.9388,-3.9388,-3.9388,-3.9388,-3.9388,-3.9388,-3.9177,-3.898,-3.898,-3.9228,-3.9301,-3.9068,-3.9228,-3.9388,-3.9388,-3.9388,-3.9388,-3.9388,-3.9388,-3.9388,-3.9388,-3.9388,-3.9388,-3.9388,-3.9388,-3.9388,-3.9388,-3.9388,-3.9388,-3.9388,-3.9388,-3.9388,-3.9388,-3.9388,-3.9298,-3.9155,-3.9155,-3.8901,-3.8392,-3.8901,-3.8901,-3.8407,-3.9095,-3.9388,0.0,0.0,0.0,0.0,0.0,0.0,0.0,0.0,0.0,0.0,0.0,0.0,-3.16,-3.2677,-3.3754,-3.4414,-3.4533,-3.4756,-3.5415,-3.5504,-3.5504,-3.5504,-3.5504,-3.5504,-3.5504,-3.5504,-3.5504,-3.5504,-3.5504,-3.5504,-3.5504,-3.5504,-3.5504,-3.5504,-3.5504,-3.5504,-3.5504,-3.5504,-3.5504,-3.5504,-3.5504,-3.5504,-3.5504,-3.5504,-3.5504,-3.5504,-3.5504,-3.5534,-3.5549,-3.5549,-3.5579,-3.5669,-3.6297,-3.6537,-3.6611,-3.7195,-3.7404,-3.7404,-3.7449,-3.7464,-3.7569,-3.8227,-3.8437,-3.8556,-3.923,-3.9388,-3.9388,-3.9388,-3.9388,-3.9388,-3.9388,-3.9388,-3.9388,-3.9388,-3.862,-3.7866,-3.7866,-3.8671,-3.9104,-3.8069,-3.8708,-3.9388,-3.9388,-3.9388,-3.9388,-3.9388,-3.9388,-3.9388,-3.9388,-3.9388,-3.9388,-3.9388,-3.9388,-3.9388,-3.9388,-3.9388,-3.9388,-3.9388,-3.9388,-3.9388,-3.9388,-3.9388,-3.911,-3.8452,-3.8437,-3.8422,-3.8392,-3.8422,-3.8422,-3.8407,-3.9095,-3.9388,0.0,0.0,0.0,0.0,0.0,0.0,0.0,0.0,0.0,0.0,0.0,0.0,-3.0866,-3.1958,-3.2946,-3.3185,-3.3574,-3.3933,-3.4173,-3.4577,-3.4846,-3.4846,-3.5235,-3.5504,-3.5504,-3.5504,-3.5504,-3.5504,-3.5504,-3.5504,-3.5504,-3.5504,-3.5504,-3.5504,-3.5504,-3.5504,-3.5504,-3.5504,-3.5504,-3.5504,-3.4839,-3.4872,-3.5472,-3.4839,-3.4872,-3.5504,-3.5504,-3.5504,-3.5504,-3.5504,-3.5504,-3.5534,-3.5759,-3.5863,-3.5878,-3.6103,-3.6193,-3.6252,-3.6671,-3.6821,-3.6926,-3.7554,-3.7764,-3.7883,-3.8556,-3.8751,-3.8698,-3.8465,-3.8142,-3.7696,-3.7,-3.6587,-3.6325,-3.6325,-3.6495,-3.6558,-3.632,-3.739,-3.8271,-3.7866,-3.8671,-3.9388,-3.9388,-3.9388,-3.9388,-3.9388,-3.9388,-3.9388,-3.9388,-3.9388,-3.9388,-3.9388,-3.9388,-3.9388,-3.9388,-3.9388,-3.9388,-3.9388,-3.9388,-3.9388,-3.9388,-3.899,-3.8646,-3.8392,-3.7584,-3.7165,-3.7165,-3.7569,-3.7554,-3.7195,-3.8257,-3.8751,-1.4784,0.0,0.0,0.0,0.0,0.0,0.0,0.0,0.0,0.0,0.0,0.0,0.0,-3.0876,-3.1694,-3.2378,-3.2886,-3.3245,-3.3469,-3.3873,-3.4264,-3.4474,-3.4876,-3.525,-3.5489,-3.5504,-3.5504,-3.5504,-3.5504,-3.5504,-3.5504,-3.5504,-3.5504,-3.5504,-3.5504,-3.5504,-3.5504,-3.5504,-3.5504,-3.5504,-3.4839,-3.4691,-3.4986,-3.4279,-3.4177,-3.4524,-3.4524,-3.4887,-3.5504,-3.5504,-3.5504,-3.5504,-3.5504,-3.5504,-3.5504,-3.5504,-3.5504,-3.5564,-3.6013,-3.6148,-3.6219,-3.6497,-3.6586,-3.667,-3.7036,-3.7119,-3.7063,-3.6805,-3.647,-3.6046,-3.5318,-3.4861,-3.4519,-3.4156,-3.4542,-3.4827,-3.4184,-3.6121,-3.7957,-3.7838,-3.8383,-3.898,-3.9337,-3.8819,-3.8457,-3.8819,-3.8568,-3.8331,-3.8331,-3.862,-3.887,-3.887,-3.9177,-3.9388,-3.9388,-3.9388,-3.9388,-3.9388,-3.9388,-3.932,-3.908,-3.8631,-3.8182,-3.7764,-3.6911,-3.6372,-3.6163,-3.6791,-3.6881,-3.6507,-3.7569,-3.8182,0.0,0.0,0.0,0.0,0.0,0.0,0.0,0.0,0.0,0.0,0.0,0.0,0.0,-2.9399,-3.0032,-3.205,-3.2422,-3.2676,-3.3319,-3.3424,-3.3663,-3.4306,-3.4396,-3.4711,-3.5352,-3.5444,-3.5444,-3.5412,-3.5444,-3.5459,-3.5442,-3.5489,-3.5504,-3.5504,-3.5504,-3.5504,-3.5472,-3.5472,-3.5439,-3.5392,-3.5392,-3.4887,-3.3959,-3.391,-3.3449,-3.2593,-3.2593,-3.365,-3.5392,-3.5392,-3.5392,-3.5392,-3.5392,-3.5392,-3.5392,-3.5392,-3.5392,-3.5392,-3.5392,-3.5392,-3.535,-3.5038,-3.4934,-3.4874,-3.4631,-3.4566,-3.458,-3.4556,-3.4542,-3.4529,-3.4477,-3.4477,-3.4214,-3.3155,-3.2935,-3.2673,-3.1633,-3.502,-3.8142,-3.7731,-3.771,-3.804,-3.9111,-3.7558,-3.6565,-3.7587,-3.6852,-3.6198,-3.6237,-3.7175,-3.7791,-3.7829,-3.8782,-3.9388,-3.9388,-3.9388,-3.9373,-3.9394,-3.9394,-3.908,-3.8392,-3.8347,-3.7749,-3.6507,-3.6462,-3.6148,-3.5504,-3.6148,-3.6462,-3.6477,-3.7105,-3.7764,-1.3613,0.0,0.0,0.0,0.0,0.0,0.0,0.0,0.0,0.0,0.0,0.0,0.0,-2.7752,-2.8857,-2.9434,-3.0791,-3.1649,-3.1244,-3.1547,-3.1695,-3.1297,-3.219,-3.292,-3.3095,-3.3678,-3.3773,0.0,-3.371,-3.3981,-3.3846,-3.4881,-3.5504,-3.5504,-3.5504,-3.5133,-3.4428,-3.4428,-3.4075,-3.3394,-3.2713,-3.2607,-3.2961,-3.2285,-3.2213,-3.2593,-3.2593,-3.289,-3.3394,-3.3394,-3.3394,-3.3394,-3.3394,-3.3394,-3.3394,-3.3394,-3.3394,-3.3394,-3.3394,-3.3394,-3.3388,-3.3297,-3.3269,-3.3324,-3.3756,-3.3877,-3.3827,-3.3538,-3.3171,-3.2591,-3.1446,-3.1125,-3.1048,-3.0765,-3.1214,-3.1749,-3.1927,-3.352,-3.4823,-3.441,-3.5261,-3.6143,-3.6448,-3.6325,-3.629,-3.6604,-3.6408,-3.6487,-3.7266,-3.7625,-3.8107,-3.887,-3.9228,-3.9388,-3.9388,-3.9388,-3.92,-3.8706,-3.8676,-3.8377,-3.7704,-3.7255,-3.6851,-3.6492,-3.6013,-3.5684,-3.5504,-3.5684,-3.5774,-3.5804,-3.6896,-3.7764,-1.4256,-1.4905,-1.5722,0.0,0.0,0.0,0.0,-1.8864,0.0,0.0,0.0,0.0,0.0,0.0,-2.6314,-2.7073,-2.8439,-2.9522,-2.9823,-3.0429,-3.0625,-3.0067,-3.0773,-3.1389,-3.1677,-3.2141,-3.2379,-3.2205,-3.2347,-3.241,-3.2298,-3.3128,-3.374,-3.3935,-3.3949,-3.3782,-3.3415,-3.3415,-3.3136,-3.2593,-3.2069,-3.1852,-3.1997,-3.1462,-3.1291,-3.1452,-3.1452,-3.1452,-3.1452,-3.1452,-3.1901,-3.2593,-3.2593,-3.2593,-3.2593,-3.2593,-3.2593,-3.2593,-3.2593,-3.2593,-3.2522,-3.2141,-3.2033,-3.2028,-3.2024,-3.2019,-3.1949,-3.172,-3.1435,-3.0996,-3.0061,-2.9792,-2.9792,-2.9792,-3.0203,-3.0724,-3.1099,-3.1645,-3.2348,-3.3459,-3.4045,-3.459,-3.5261,-3.4748,-3.45,-3.5439,-3.5371,-3.5406,-3.6022,-3.7086,-3.7829,-3.7922,-3.8561,-3.8871,-3.8601,-3.8586,-3.8407,-3.8003,-3.7973,-3.7689,-3.7045,-3.6686,-3.6357,-3.6088,-3.5699,-3.5504,-3.5504,-3.5504,-3.5504,-3.5534,-3.6552,-3.736,-1.5215,-1.5735,-1.637,0.0,0.0,0.0,-1.8258,-1.8077,-1.8091,0.0,0.0,0.0,0.0,0.0,-2.3137,-2.4749,-2.5744,-2.6904,-2.8695,-2.9454,-2.9749,-2.9527,-2.9609,-2.9909,-3.0569,-3.0738,-3.1035,-3.1636,-3.1105,-3.0801,-3.0868,-3.0971,-3.1215,-3.1688,-3.1702,-3.1924,-3.2354,-3.2368,-3.2324,-3.2285,-3.2285,-3.1852,-3.1044,-3.1044,-3.0595,-2.9792,-2.9792,-2.9792,-2.9792,-2.9792,-3.0771,-3.2285,-3.2285,-3.2285,-3.2285,-3.2285,-3.2285,-3.2285,-3.2285,-3.2285,-3.2141,-3.1328,-3.1044,-3.0895,-3.0037,-2.9792,-2.9792,-2.9792,-2.9792,-2.9792,-2.9792,-2.9792,-2.9792,-2.9792,-2.9792,-2.9792,-2.9792,-2.9792,-3.0663,-3.3519,-3.3332,-3.3197,-3.4628,-3.2947,-3.2082,-3.4033,-3.3895,-3.3553,-3.3633,-3.5753,-3.6882,-3.5855,-3.7074,-3.7773,-3.7277,-3.7252,-3.7272,-3.7315,-3.73,-3.703,-3.6402,-3.6372,-3.6103,-3.5519,-3.5504,-3.5504,-3.5504,-3.5504,-3.5504,-3.5519,-3.6178,-3.6821,-1.5827,-1.6357,-1.6969,0.0,0.0,0.0,-1.646,-1.6913,-1.7546,0.0,0.0,0.0,0.0,0.0,0.0,-2.1834,-2.3664,-2.5425,-2.657,-2.6846,-2.68,-2.649,-2.7065,-2.7725,-2.8299,-2.8961,-2.9155,-2.8616,-2.8926,-2.945,-3.0178,-3.0701,-3.1054,-3.1146,-3.1146,-3.1041,-3.0832,-3.0832,-3.0684,-3.0355,-3.0355,-3.0254,-3.0075,-3.0075,-2.996,-2.9792,-2.9792,-2.9792,-2.9792,-2.9792,-3.0011,-3.0355,-3.0355,-3.0355,-3.0355,-3.0355,-3.0355,-3.0355,-3.0355,-3.0355,-3.0317,-3.0139,-3.0075,-3.0037,-2.9869,-2.9792,-2.9792,-2.9792,-2.9792,-2.9792,-2.9792,-2.9792,-2.9792,-2.9792,-2.9792,-2.9792,-2.9792,-2.9792,-2.9997,-3.0612,-3.0917,-3.1182,-3.1469,-3.1455,-3.1543,-3.199,-3.1927,-3.2175,-3.3041,-3.3592,-3.4186,-3.4771,-3.5152,-3.5571,-3.6214,-3.6285,-3.6377,-3.6653,-3.6671,-3.6372,-3.5729,-3.5699,-3.5639,-3.5504,-3.5504,-3.5504,-3.5504,-3.5504,-3.5504,-3.5519,-3.6178,-3.6821,-1.6782,-1.6948,-1.7398,-1.734,0.0,0.0,0.0,-1.6735,-1.6719,-1.7285,0.0,0.0,0.0,0.0,0.0,-1.9929,-2.1272,-2.2432,-2.2886,-2.4764,-2.5876,-2.527,-2.5588,-2.5949,-2.6232,-2.6667,-2.6836,-2.6664,-2.7609,-2.8239,-2.8259,-2.8571,-2.8896,-2.9154,-2.9154,-2.918,-2.9256,-2.9503,-2.9539,-2.9365,-2.9654,-2.9792,-2.9792,-2.9792,-2.9792,-2.9792,-2.9792,-2.9792,-2.9792,-2.9792,-2.9792,-2.9792,-2.9792,-2.9792,-2.9792,-2.9792,-2.9792,-2.9792,-2.9792,-2.9792,-2.9792,-2.9792,-2.9792,-2.9792,-2.9792,-2.9792,-2.9792,-2.9792,-2.9792,-2.9792,-2.9792,-2.9792,-2.9792,-2.9792,-2.9792,-2.9792,-2.9792,-2.9792,-2.9792,-2.9792,-3.0018,-3.0294,-3.057,-3.0595,-3.0771,-3.1311,-3.1618,-3.1967,-3.2461,-3.324,-3.3772,-3.3638,-3.3905,-3.4144,-3.4292,-3.4299,-3.4363,-3.4531,-3.4991,-3.5096,-3.4773,-3.5246,-3.5504,-3.5504,-3.5504,-3.5504,-3.5504,-3.5504,-3.5504,-3.5519,-3.5848,-3.6342,-1.819,0.0,0.0,0.0,0.0,-1.7413,0.0,0.0,0.0,-1.7074,0.0,0.0,0.0,0.0,0.0,0.0,0.0,0.0,0.0,-2.262,0.0,-2.4066,-2.4173,-2.4349,-2.4449,-2.4462,-2.4725,-2.5398,-2.6297,-2.6679,-2.6345,-2.6336,-2.6587,-2.714,-2.7165,-2.7394,-2.7946,-2.8386,-2.8712,-2.89,-2.9402,-2.9691,-2.9792,-2.9792,-2.9792,-2.9792,-2.9792,-2.9792,-2.9792,-2.9792,-2.9792,-2.9792,-2.9792,-2.9792,-2.9792,-2.9792,-2.9792,-2.9792,-2.9792,-2.9792,-2.9792,-2.9792,-2.9792,-2.9792,-2.9792,-2.9792,-2.9792,-2.9792,-2.9792,-2.9792,-2.9792,-2.9792,-2.9792,-2.9792,-2.9792,-2.9792,-2.9792,-2.9792,-2.9792,-2.9792,-2.9792,-2.993,-3.0382,-3.0093,-3.008,-3.0947,-3.1461,-3.169,-3.1588,-3.2798,-3.3244,-3.2191,-3.254,-3.2732,-3.2349,-3.2321,-3.2429,-3.2593,-3.331,-3.3808,-3.3993,-3.4953,-3.5504,-3.5504,-3.5504,-3.5504,-3.5504,-3.5504,-3.5504,-3.5504,-3.5504,-3.5863,0.0,0.0,0.0,0.0,-1.9623,0.0,0.0,0.0,-1.7677,-1.6776,0.0,0.0,0.0,0.0,0.0,0.0,0.0,0.0,-1.8392,-1.9598,-2.0685,-2.1106,-2.2008,-2.2757,-2.3246,-2.3296,-2.3735,-2.48,-2.4092,-2.4236,-2.5624,-2.5686,-2.5996,-2.6562,-2.6587,-2.6851,-2.7369,-2.7444,-2.7959,-2.8888,-2.8963,-2.9289,-2.9792,-2.9792,-2.9792,-2.9792,-2.9792,-2.9792,-2.9792,-2.9792,-2.9792,-2.9792,-2.9792,-2.9792,-2.9792,-2.9792,-2.9792,-2.9792,-2.9792,-2.9792,-2.9792,-2.9792,-2.9792,-2.9792,-2.9792,-2.9792,-2.9792,-2.9792,-2.9792,-2.9792,-2.9792,-2.9792,-2.9792,-2.9792,-2.9792,-2.9792,-2.9792,-2.9792,-2.9792,-2.9792,-2.9792,-2.9817,-2.988,-2.9829,-2.9829,-2.9955,-3.0034,-3.0061,-3.0061,-3.0227,-3.0292,-3.0126,-3.0203,-3.0534,-3.1291,-3.1352,-3.1706,-3.2558,-3.2713,-3.3136,-3.3993,-3.4953,-3.5504,-3.5504,-3.5504,-3.5504,-3.5504,-3.5504,-3.5504,-3.5504,-3.5504,-3.5863,0.0,0.0,0.0,0.0,0.0,0.0,-1.7903,0.0,-1.7187,0.0,0.0,0.0,0.0,0.0,0.0,0.0,-1.72,0.0,0.0,0.0,-1.9196,0.0,0.0,0.0,-2.1644,-2.1995,-2.251,-2.3271,-2.3195,-2.3559,-2.4619,-2.5259,-2.5711,-2.5984,-2.6323,-2.6612,-2.6839,-2.7118,-2.7519,-2.7984,-2.8587,-2.9013,-2.9302,-2.9641,-2.9792,-2.9792,-2.9792,-2.9792,-2.9792,-2.9792,-2.9792,-2.9792,-2.9792,-2.9792,-2.9792,-2.9792,-2.9792,-2.9792,-2.9792,-2.9792,-2.9792,-2.9792,-2.9792,-2.9792,-2.9792,-2.9792,-2.9792,-2.9792,-2.9792,-2.9792,-2.9792,-2.9792,-2.9792,-2.9792,-2.9792,-2.9792,-2.9792,-2.9792,-2.9792,-2.9792,-2.9792,-2.9792,-2.9792,-2.9792,-2.9792,-2.9792,-2.9792,-2.9792,-2.9792,-2.9792,-2.9792,-2.9792,-2.9792,-2.9972,-3.0343,-3.0381,-3.0558,-3.0959,-3.1476,-3.2464,-3.3945,-3.4394,-3.4905,-3.5504,-3.5504,-3.5504,-3.5504,-3.5504,-3.5504,-3.5504,-3.5504,-3.5654,-2.1521,0.0,0.0,0.0,0.0,0.0,0.0,0.0,0.0,0.0,0.0,0.0,0.0,0.0,-1.6914,-1.6773,0.0,-1.7036,0.0,0.0,0.0,0.0,0.0,0.0,0.0,-2.0439,-2.0941,-2.1794,-2.1929,-2.2493,-2.3703,-2.4657,-2.5297,-2.5586,-2.6197,-2.6499,-2.6499,-2.6889,-2.7165,-2.7329,-2.8097,-2.8637,-2.89,-2.9365,-2.9641,-2.9792,-2.9792,-2.9792,-2.9792,-2.9792,-2.9792,-2.9792,-2.9792,-2.9792,-2.9792,-2.9792,-2.9792,-2.9792,-2.9792,-2.9792,-2.9792,-2.9792,-2.9792,-2.9792,-2.9792,-2.9792,-2.9792,-2.9792,-2.9792,-2.9792,-2.9792,-2.9792,-2.9792,-2.9792,-2.9792,-2.9792,-2.9792,-2.9792,-2.9792,-2.9792,-2.9792,-2.9792,-2.9792,-2.9792,-2.9792,-2.9792,-2.9792,-2.9792,-2.9792,-2.9792,-2.9792,-2.9792,-2.9792,-2.9792,-2.9792,-2.9792,-2.9792,-2.9792,-3.0696,-3.1815,-3.3171,-3.3484,-3.3959,-3.4706,-3.4706,-3.4706,-3.4706,-3.4706,-3.4854,-3.51,-3.5359,-3.5504,-2.3183,-2.3446,-2.3263,-2.0514,-1.9811,-1.9233,-1.7039,0.0,-1.8003,0.0,0.0,0.0,-1.8279,-1.8166,-1.7978,-1.7461,-1.7398,0.0,0.0,0.0,0.0,0.0,0.0,0.0,0.0,-1.8606,-1.8982,0.0,-1.9748,-2.0299,-2.2995,-2.3728,-2.4531,-2.5561,-2.6197,-2.6499,-2.6499,-2.6512,-2.6788,-2.7281,-2.7318,-2.7896,-2.8888,-2.8913,-2.9264,-2.9792,-2.9792,-2.9792,-2.9792,-2.9792,-2.9792,-2.9792,-2.9792,-2.9792,-2.9792,-2.9792,-2.9792,-2.9792,-2.9792,-2.9792,-2.9792,-2.9792,-2.9792,-2.9792,-2.9792,-2.9792,-2.9792,-2.9792,-2.9792,-2.9792,-2.9792,-2.9792,-2.9792,-2.9792,-2.9792,-2.9792,-2.9792,-2.9792,-2.9792,-2.9792,-2.9792,-2.9792,-2.9792,-2.9792,-2.9792,-2.9792,-2.9792,-2.9792,-2.9792,-2.9792,-2.9792,-2.9792,-2.9792,-2.9792,-2.9792,-2.9792,-2.9792,-2.9792,-3.0696,-3.1217,-3.1278,-3.2177,-3.2664,-3.2713,-3.2713,-3.2713,-3.2713,-3.2713,-3.3171,-3.4061,-3.5052,-3.5504,-2.4274,-2.4644,-2.4481,-2.2071,-2.1192,-2.0338,-1.8141,-1.8193,-1.8469,-1.7564,-1.853,-1.9271,-1.8367,-1.8204,-1.8028,-1.7498,-1.741,-1.6945,0.0,0.0,0.0,0.0,0.0,0.0,0.0,0.0,0.0,-1.9484,-1.9208,-1.9748,-2.1405,-2.2723,-2.3735,-2.4519,-2.5423,-2.6109,-2.6499,-2.6499,-2.6587,-2.6776,-2.714,-2.7482,-2.7871,-2.8562,-2.9001,-2.9239,-2.9628,-2.9792,-2.9792,-2.9792,-2.9792,-2.9792,-2.9792,-2.9792,-2.9792,-2.9792,-2.9792,-2.9792,-2.9792,-2.9792,-2.9792,-2.9792,-2.9792,-2.9792,-2.9792,-2.9792,-2.9792,-2.9792,-2.9792,-2.9792,-2.9792,-2.9792,-2.9792,-2.9792,-2.9792,-2.9792,-2.9792,-2.9792,-2.9792,-2.9792,-2.9792,-2.9792,-2.9792,-2.9792,-2.9792,-2.9792,-2.9792,-2.9792,-2.9792,-2.9792,-2.9792,-2.9792,-2.9792,-2.9792,-2.9792,-2.9792,-2.9792,-2.9792,-3.0113,-3.0558,-3.118,-3.1499,-3.196,-3.2593,-3.2593,-3.2593,-3.2593,-3.2593,-3.2749,-3.3066,-3.3429,-3.3891,-2.4838,-2.5197,-2.5109,-2.307,-2.2305,-2.1493,-1.9271,-1.9359,-1.9648,-1.8756,-1.9409,-2.0075,-1.9948,-1.9133,-1.8442,-1.8267,-1.7775,-1.6958,0.0,-1.5475,0.0,0.0,0.0,0.0,0.0,0.0,-1.7237,-1.8355,-1.8418,-1.9007,0.0,-2.1933,-2.317,-2.3966,-2.5034,-2.5908,-2.6487,-2.6499,-2.6499,-2.6499,-2.6851,-2.7128,-2.7306,-2.8021,-2.8561,-2.8913,-2.9327,-2.9603,-2.9792,-2.9792,-2.9792,-2.9792,-2.9792,-2.9792,-2.9792,-2.9792,-2.9792,-2.9792,-2.9792,-2.9792,-2.9792,-2.9792,-2.9792,-2.9792,-2.9792,-2.9792,-2.9792,-2.9792,-2.9792,-2.9792,-2.9792,-2.9792,-2.9792,-2.9792,-2.9792,-2.9792,-2.9792,-2.9792,-2.9792,-2.9792,-2.9792,-2.9792,-2.9792,-2.9792,-2.9792,-2.9792,-2.9792,-2.9792,-2.9792,-2.9792,-2.9792,-2.9792,-2.9792,-2.9792,-2.9792,-2.9792,-2.9792,-2.9792,-2.9792,-3.0075,-3.0696,-3.0696,-3.0983,-3.1586,-3.1586,-3.1586,-3.1586,-3.1586,-3.1792,-3.2105,-3.2105,-3.2429]}]]